[[{"header":{"parameterUnit":"m.s-1","parameterCategory":1,"la1":31.0,"la2":29.5877,"lo1":-88.7671,"lo2":-86.6584,"dy":0.0162,"dx":0.0185,"nx":115,"ny":88,"refTime":"2025-03-27T12:00:00:Z","depth":0,"parameterNumber":2,"parameterNumberName":"U-component_of_WINDS"},"data":[0.0,0.0,0.0,0.0,0.0,0.0,0.0,0.0,0.0,0.0,0.0,0.0,0.0,0.0,0.0,0.0,0.0,0.0,0.0,0.0,0.0,0.0,0.0,0.0,0.0,0.0,0.0,0.0,0.0,0.0,0.0,0.0,0.0,0.0,0.0,0.0,0.0,0.0,0.0,0.0,0.0,0.0,0.0,0.0,0.0,0.0,0.0,0.0,0.0,0.0,0.0,0.0,0.0,0.0,0.0,0.0,0.0,0.0,0.0,0.0,0.0,0.0,0.0,0.0,0.0,0.0,0.0,0.0,0.0,0.0,0.0,0.0,0.0,0.0,0.0,0.0,0.0,0.0,0.0,0.0,0.0,0.0,0.0,0.0,0.0,0.0,0.0,0.0,0.0,0.0,0.0,0.0,0.0,0.0,0.0,0.0,0.0,0.0,0.0,0.0,0.0,0.0,0.0,0.0,0.0,0.0,0.0,0.0,0.0,0.0,0.0,0.0,0.0,0.0,0.0,0.0,0.0,0.0,0.0,0.0,0.0,0.0,0.0,0.0,0.0,0.0,0.0,0.0,0.0,0.0,0.0,0.0,0.0,0.0,0.0,0.0,0.0,0.0,0.0,0.0,0.0,0.0,0.0,0.0,0.0,0.0,0.0,0.0,0.0,0.0,0.0,0.0,0.0,0.0,0.0,0.0,0.0,0.0,0.0,0.0,0.0,0.0,0.0,0.0,0.0,0.0,0.0,0.0,0.0,0.0,0.0,0.0,0.0,0.0,0.0,0.0,0.0,0.0,0.0,0.0,0.0,0.0,0.0,0.0,0.0,0.0,0.0,0.0,0.0,0.0,0.0,0.0,0.0,0.0,0.0,0.0,0.0,0.0,0.0,0.0,0.0,0.0,0.0,0.0,0.0,0.0,0.0,0.0,0.0,0.0,0.0,0.0,0.0,0.0,0.0,0.0,0.0,0.0,0.0,0.0,0.0,0.0,0.0,0.0,0.0,0.0,0.0,0.0,0.0,0.0,0.0,0.0,0.0,0.0,0.0,0.0,0.0,0.0,0.0,0.0,0.0,0.0,0.0,0.0,0.0,0.0,0.0,0.0,0.0,0.0,0.0,0.0,0.0,0.0,0.0,0.0,0.0,0.0,0.0,0.0,0.0,0.0,0.0,0.0,0.0,0.0,0.0,0.0,0.0,0.0,0.0,0.0,0.0,0.0,0.0,0.0,0.0,0.0,0.0,0.0,0.0,0.0,0.0,0.0,0.0,0.0,0.0,0.0,0.0,0.0,0.0,0.0,0.0,0.0,0.0,0.0,0.0,0.0,0.0,0.0,0.0,0.0,0.0,0.0,0.0,0.0,0.0,0.0,0.0,0.0,0.0,0.0,0.0,0.0,0.0,0.0,0.0,0.0,0.0,0.0,0.0,0.0,0.0,0.0,0.0,0.0,0.0,0.0,0.0,0.0,0.0,0.0,0.0,0.0,0.0,0.0,0.0,0.0,0.0,0.0,0.0,0.0,0.0,0.0,0.0,0.0,0.0,0.0,0.0,0.0,0.0,0.0,0.0,0.0,0.0,0.0,0.0,0.0,0.0,0.0,0.0,0.0,0.0,0.0,0.0,0.0,0.0,0.0,0.0,0.0,0.0,0.0,0.0,0.0,0.0,0.0,0.0,0.0,0.0,0.0,0.0,0.0,0.0,0.0,0.0,0.0,0.0,0.0,0.0,0.0,0.0,0.0,0.0,0.0,0.0,0.0,0.0,0.0,0.0,0.0,0.0,0.0,0.0,0.0,0.0,0.0,0.0,0.0,0.0,0.0,0.0,0.0,0.0,0.0,0.0,0.0,0.0,0.0,0.0,0.0,0.0,0.0,0.0,0.0,0.0,0.0,0.0,0.0,0.0,0.0,0.0,0.0,0.0,0.0,0.0,0.0,0.0,0.0,0.0,0.0,0.0,0.0,0.0,0.0,0.0,0.0,0.0,0.0,0.0,0.0,0.0,0.0,0.0,0.0,0.0,0.0,0.0,0.0,0.0,0.0,0.0,0.0,0.0,0.0,0.0,0.0,0.0,0.0,0.0,0.0,0.0,0.0,0.0,0.0,0.0,0.0,0.0,0.0,0.0,0.0,0.0,0.0,0.0,0.0,0.0,0.0,0.0,0.0,0.0,0.0,0.0,0.0,0.0,0.0,0.0,0.0,0.0,0.0,0.0,0.0,0.0,0.0,0.0,0.0,0.0,0.0,0.0,0.0,0.0,0.0,0.0,0.0,0.0,0.0,0.0,0.0,0.0,0.0,0.0,0.0,0.0,0.0,0.0,0.0,0.0,0.0,0.0,0.0,0.0,0.0,0.0,0.0,0.0,0.0,0.0,0.0,0.0,0.0,0.0,0.0,0.0,0.0,0.0,0.0,0.0,0.0,0.0,0.0,0.0,0.0,0.0,0.0,0.0,0.0,0.0,0.0,0.0,0.0,0.0,0.0,0.0,0.0,0.0,0.0,0.0,0.0,0.0,0.0,0.0,0.0,0.0,0.0,0.0,0.0,0.0,0.0,0.0,0.0,0.0,0.0,0.0,0.0,0.0,0.0,0.0,0.0,0.0,0.0,0.0,0.0,0.0,0.0,0.0,0.0,0.0,0.0,0.0,0.0,0.0,0.0,0.0,0.0,0.0,0.0,0.0,0.0,0.0,0.0,0.0,0.0,0.0,0.0,0.0,0.0,0.0,0.0,0.0,0.0,0.0,0.0,0.0,0.0,0.0,0.0,0.0,0.0,0.0,0.0,0.0,0.0,0.0,0.0,0.0,0.0,0.0,0.0,0.0,0.0,0.0,0.0,0.0,0.0,0.0,0.0,0.0,0.0,0.0,0.0,0.0,0.0,0.0,0.0,0.0,0.0,0.0,0.0,0.0,0.0,0.0,0.0,0.0,0.0,0.0,0.0,0.0,0.0,0.0,0.0,0.0,0.0,0.0,0.0,0.0,0.0,0.0,0.0,0.0,0.0,0.0,0.0,0.0,0.0,0.0,0.0,0.0,0.0,0.0,0.0,0.0,0.0,0.0,0.0,0.0,0.0,0.0,0.0,0.0,0.0,0.0,0.0,0.0,0.0,0.0,0.0,0.0,0.0,0.0,0.0,0.0,0.0,0.0,0.0,0.0,0.0,0.0,0.0,0.0,0.0,0.0,0.0,0.0,0.0,0.0,0.0,0.0,0.0,0.0,0.0,0.0,0.0,0.0,0.0,0.0,0.0,0.0,0.0,0.0,0.0,0.0,0.0,0.0,0.0,0.0,0.0,0.0,0.0,0.0,0.0,0.0,0.0,0.0,0.0,0.0,0.0,0.0,0.0,0.0,0.0,0.0,0.0,0.0,0.0,0.0,0.0,0.0,0.0,0.0,0.0,0.0,0.0,0.0,0.0,0.0,0.0,0.0,0.0,0.0,0.0,0.0,0.0,0.0,0.0,0.0,0.0,0.0,0.0,0.0,0.0,0.0,0.0,0.0,0.0,0.0,0.0,0.0,0.0,0.0,0.0,0.0,0.0,0.0,0.0,0.0,0.0,0.0,0.0,0.0,0.0,0.0,0.0,0.0,0.0,0.0,0.0,0.0,0.0,0.0,0.0,0.0,0.0,0.0,0.0,0.0,0.0,0.0,0.0,0.0,0.0,0.0,0.0,0.0,0.0,0.0,0.0,0.0,0.0,0.0,0.0,0.0,0.0,0.0,0.0,0.0,0.0,0.0,0.0,0.0,0.0,0.0,0.0,0.0,0.0,0.0,0.0,0.0,0.0,0.0,0.0,0.0,0.0,0.0,0.0,0.0,0.0,0.0,0.0,0.0,0.0,0.0,0.0,0.0,0.0,0.0,0.0,0.0,0.0,0.0,0.0,0.0,0.0,0.0,0.0,0.0,0.0,0.0,0.0,0.0,0.0,0.0,0.0,0.0,0.0,0.0,0.0,0.0,0.0,0.0,0.0,0.0,0.0,0.0,0.0,0.0,0.0,0.0,0.0,0.0,0.0,0.0,0.0,0.0,0.0,0.0,0.0,0.0,0.0,0.0,0.0,0.0,0.0,0.0,0.0,0.0,0.0,0.0,0.0,0.0,0.0,0.0,0.0,0.0,0.0,0.0,0.0,0.0,0.0,0.0,0.0,0.0,0.0,0.0,0.0,0.0,0.0,0.0,0.0,0.0,0.0,0.0,0.0,0.0,0.0,0.0,0.0,0.0,0.0,0.0,0.0,0.0,0.0,0.0,0.0,0.0,0.0,0.0,0.0,-3.5236,0.0,0.0,0.0,0.0,0.0,0.0,0.0,0.0,0.0,0.0,0.0,0.0,0.0,0.0,0.0,0.0,0.0,0.0,0.0,0.0,0.0,0.0,0.0,0.0,0.0,0.0,0.0,0.0,0.0,0.0,0.0,0.0,0.0,0.0,0.0,0.0,0.0,0.0,0.0,0.0,0.0,0.0,0.0,0.0,0.0,0.0,0.0,0.0,0.0,0.0,0.0,0.0,0.0,0.0,0.0,0.0,0.0,0.0,0.0,0.0,0.0,0.0,0.0,0.0,0.0,0.0,0.0,0.0,0.0,0.0,0.0,0.0,0.0,0.0,0.0,0.0,0.0,0.0,0.0,0.0,0.0,0.0,0.0,0.0,0.0,0.0,0.0,0.0,0.0,0.0,0.0,0.0,0.0,0.0,0.0,0.0,0.0,0.0,0.0,0.0,0.0,0.0,0.0,0.0,0.0,0.0,0.0,0.0,0.0,0.0,-3.3725,-3.4243,-3.4812,-3.5223,-3.5399,0.0,0.0,0.0,0.0,0.0,0.0,0.0,0.0,0.0,0.0,0.0,0.0,0.0,0.0,0.0,0.0,0.0,0.0,0.0,0.0,0.0,0.0,0.0,0.0,0.0,0.0,0.0,0.0,0.0,0.0,0.0,0.0,0.0,0.0,0.0,0.0,0.0,0.0,0.0,0.0,0.0,0.0,0.0,0.0,0.0,0.0,0.0,0.0,0.0,0.0,0.0,0.0,0.0,0.0,0.0,0.0,0.0,0.0,0.0,0.0,0.0,0.0,0.0,0.0,0.0,0.0,0.0,0.0,0.0,0.0,0.0,0.0,0.0,0.0,0.0,0.0,0.0,0.0,0.0,0.0,0.0,0.0,0.0,0.0,0.0,0.0,0.0,0.0,0.0,0.0,0.0,0.0,0.0,0.0,0.0,0.0,0.0,0.0,0.0,0.0,0.0,0.0,0.0,0.0,0.0,0.0,0.0,0.0,0.0,0.0,0.0,0.0,-3.5345,-3.5683,-3.5642,0.0,0.0,0.0,0.0,0.0,0.0,0.0,0.0,0.0,0.0,0.0,0.0,0.0,0.0,0.0,0.0,0.0,0.0,0.0,0.0,0.0,0.0,0.0,0.0,0.0,0.0,0.0,0.0,0.0,0.0,0.0,0.0,0.0,0.0,0.0,0.0,0.0,0.0,0.0,0.0,0.0,0.0,0.0,0.0,0.0,0.0,0.0,0.0,0.0,0.0,0.0,0.0,0.0,0.0,0.0,0.0,0.0,0.0,0.0,0.0,0.0,0.0,0.0,0.0,0.0,0.0,0.0,0.0,0.0,0.0,0.0,0.0,0.0,0.0,0.0,0.0,0.0,0.0,0.0,0.0,0.0,0.0,0.0,0.0,0.0,0.0,0.0,0.0,0.0,0.0,0.0,0.0,0.0,0.0,0.0,0.0,0.0,0.0,0.0,0.0,0.0,0.0,0.0,0.0,0.0,0.0,0.0,0.0,0.0,0.0,-3.4688,-3.5318,-3.5548,0.0,-3.6272,0.0,0.0,0.0,0.0,0.0,0.0,0.0,0.0,0.0,0.0,0.0,0.0,0.0,0.0,0.0,0.0,0.0,0.0,0.0,0.0,0.0,0.0,0.0,0.0,0.0,0.0,0.0,0.0,0.0,0.0,0.0,0.0,0.0,0.0,0.0,0.0,0.0,0.0,0.0,0.0,0.0,0.0,0.0,0.0,0.0,0.0,0.0,0.0,0.0,0.0,0.0,0.0,0.0,0.0,0.0,0.0,0.0,0.0,0.0,0.0,0.0,0.0,0.0,0.0,0.0,0.0,0.0,0.0,0.0,0.0,0.0,0.0,0.0,0.0,0.0,0.0,0.0,0.0,0.0,0.0,0.0,0.0,0.0,0.0,0.0,0.0,0.0,0.0,0.0,0.0,0.0,0.0,0.0,0.0,0.0,0.0,0.0,0.0,0.0,0.0,0.0,0.0,0.0,0.0,0.0,0.0,0.0,0.0,0.0,0.0,-3.5072,-3.5548,-3.5938,-3.6093,0.0,0.0,0.0,0.0,0.0,0.0,0.0,0.0,0.0,0.0,0.0,0.0,0.0,0.0,0.0,0.0,0.0,0.0,0.0,0.0,0.0,0.0,0.0,0.0,0.0,0.0,0.0,0.0,0.0,0.0,0.0,0.0,0.0,0.0,0.0,0.0,0.0,0.0,0.0,0.0,0.0,0.0,0.0,0.0,0.0,0.0,0.0,0.0,0.0,0.0,0.0,0.0,0.0,0.0,0.0,0.0,0.0,0.0,0.0,0.0,0.0,0.0,0.0,0.0,0.0,0.0,0.0,0.0,0.0,0.0,0.0,0.0,0.0,0.0,0.0,0.0,0.0,0.0,0.0,0.0,0.0,0.0,0.0,0.0,0.0,0.0,0.0,0.0,0.0,0.0,0.0,0.0,0.0,0.0,0.0,0.0,0.0,0.0,0.0,0.0,0.0,0.0,0.0,0.0,0.0,0.0,0.0,0.0,0.0,0.0,-3.499,-3.548,-3.5965,-3.6312,-3.6272,-3.5906,0.0,0.0,0.0,0.0,0.0,0.0,0.0,0.0,0.0,0.0,0.0,0.0,0.0,0.0,0.0,0.0,0.0,0.0,0.0,0.0,0.0,0.0,0.0,0.0,0.0,0.0,0.0,0.0,0.0,0.0,0.0,0.0,0.0,0.0,0.0,0.0,0.0,0.0,0.0,0.0,0.0,0.0,0.0,0.0,0.0,0.0,0.0,0.0,0.0,0.0,0.0,0.0,0.0,0.0,0.0,0.0,0.0,0.0,0.0,0.0,0.0,0.0,0.0,0.0,0.0,0.0,0.0,0.0,0.0,0.0,0.0,0.0,0.0,0.0,0.0,0.0,0.0,0.0,0.0,0.0,0.0,0.0,0.0,0.0,0.0,0.0,0.0,0.0,0.0,0.0,0.0,0.0,0.0,0.0,0.0,0.0,0.0,0.0,0.0,0.0,0.0,0.0,0.0,0.0,0.0,0.0,0.0,0.0,-3.4675,-3.5358,-3.5978,-3.6656,-3.6696,-3.6493,0.0,0.0,0.0,0.0,0.0,0.0,0.0,0.0,0.0,0.0,0.0,0.0,0.0,0.0,0.0,0.0,0.0,0.0,0.0,0.0,0.0,0.0,0.0,0.0,0.0,0.0,0.0,0.0,0.0,0.0,0.0,0.0,0.0,0.0,0.0,0.0,0.0,0.0,0.0,0.0,0.0,0.0,0.0,0.0,0.0,0.0,0.0,0.0,0.0,0.0,0.0,0.0,0.0,0.0,0.0,0.0,0.0,0.0,0.0,0.0,0.0,0.0,0.0,0.0,0.0,0.0,0.0,0.0,0.0,0.0,0.0,0.0,0.0,0.0,0.0,0.0,0.0,0.0,0.0,0.0,0.0,0.0,0.0,0.0,0.0,0.0,0.0,0.0,0.0,0.0,0.0,0.0,0.0,0.0,0.0,0.0,0.0,0.0,0.0,0.0,0.0,0.0,0.0,0.0,0.0,0.0,0.0,0.0,0.0,-3.5562,-3.6673,-3.7303,-3.7278,-3.7398,-3.6844,0.0,0.0,0.0,0.0,0.0,0.0,0.0,0.0,0.0,0.0,0.0,0.0,0.0,0.0,0.0,0.0,0.0,0.0,0.0,0.0,0.0,0.0,0.0,0.0,0.0,0.0,0.0,0.0,0.0,0.0,0.0,0.0,0.0,0.0,0.0,0.0,0.0,0.0,0.0,0.0,0.0,0.0,0.0,0.0,0.0,0.0,0.0,0.0,0.0,0.0,0.0,0.0,0.0,0.0,0.0,0.0,0.0,0.0,0.0,0.0,0.0,0.0,0.0,0.0,0.0,0.0,0.0,0.0,0.0,0.0,0.0,0.0,0.0,0.0,0.0,0.0,0.0,0.0,0.0,0.0,0.0,0.0,0.0,0.0,0.0,0.0,0.0,0.0,0.0,0.0,0.0,0.0,0.0,0.0,0.0,0.0,0.0,0.0,0.0,0.0,0.0,0.0,0.0,0.0,0.0,0.0,0.0,0.0,0.0,-3.6695,0.0,-3.8227,-3.8027,-3.7924,-3.7271,0.0,0.0,0.0,0.0,0.0,0.0,0.0,0.0,0.0,0.0,0.0,0.0,0.0,0.0,0.0,0.0,0.0,0.0,0.0,0.0,0.0,0.0,0.0,0.0,0.0,0.0,0.0,0.0,0.0,0.0,0.0,0.0,0.0,0.0,0.0,0.0,0.0,0.0,0.0,0.0,0.0,0.0,0.0,0.0,0.0,0.0,0.0,0.0,0.0,0.0,0.0,0.0,0.0,0.0,0.0,0.0,0.0,0.0,0.0,0.0,0.0,0.0,0.0,0.0,0.0,0.0,0.0,0.0,0.0,0.0,0.0,0.0,0.0,0.0,0.0,0.0,0.0,0.0,0.0,0.0,0.0,0.0,0.0,0.0,0.0,0.0,0.0,0.0,0.0,0.0,0.0,0.0,0.0,0.0,0.0,0.0,0.0,0.0,0.0,0.0,0.0,0.0,0.0,0.0,0.0,0.0,0.0,0.0,-3.6525,-3.8145,-3.8422,-3.8684,-3.8902,-3.8271,-3.7743,0.0,0.0,0.0,0.0,0.0,0.0,0.0,0.0,0.0,0.0,0.0,0.0,0.0,0.0,0.0,0.0,0.0,0.0,0.0,0.0,0.0,0.0,0.0,0.0,0.0,0.0,0.0,0.0,0.0,0.0,0.0,0.0,0.0,0.0,0.0,0.0,0.0,0.0,0.0,0.0,0.0,0.0,0.0,0.0,0.0,0.0,0.0,0.0,0.0,0.0,0.0,0.0,0.0,0.0,0.0,0.0,0.0,0.0,0.0,0.0,0.0,0.0,0.0,0.0,0.0,0.0,0.0,0.0,0.0,0.0,0.0,0.0,0.0,0.0,0.0,0.0,0.0,0.0,0.0,0.0,0.0,0.0,0.0,0.0,0.0,0.0,0.0,0.0,0.0,0.0,0.0,0.0,0.0,0.0,0.0,0.0,0.0,0.0,0.0,0.0,0.0,0.0,0.0,0.0,0.0,0.0,0.0,0.0,0.0,-3.9699,-3.9771,-3.9732,-3.9507,-3.9067,-3.8314,0.0,0.0,0.0,0.0,0.0,0.0,0.0,0.0,0.0,0.0,0.0,0.0,0.0,0.0,0.0,0.0,0.0,0.0,0.0,0.0,0.0,0.0,0.0,0.0,0.0,0.0,0.0,0.0,0.0,0.0,0.0,0.0,0.0,0.0,0.0,0.0,0.0,0.0,0.0,0.0,0.0,0.0,0.0,0.0,0.0,0.0,0.0,0.0,0.0,0.0,0.0,0.0,0.0,0.0,0.0,0.0,0.0,0.0,0.0,0.0,0.0,0.0,0.0,0.0,0.0,0.0,0.0,0.0,0.0,0.0,0.0,0.0,0.0,0.0,0.0,0.0,0.0,0.0,0.0,0.0,0.0,0.0,0.0,0.0,0.0,0.0,0.0,0.0,0.0,0.0,0.0,0.0,0.0,0.0,0.0,0.0,0.0,0.0,0.0,0.0,0.0,0.0,0.0,0.0,0.0,0.0,0.0,0.0,0.0,-4.1667,-4.1457,-4.1152,-4.0732,-4.0249,-3.9463,-3.8289,0.0,0.0,0.0,0.0,0.0,0.0,0.0,0.0,0.0,0.0,0.0,0.0,0.0,0.0,0.0,0.0,0.0,0.0,0.0,0.0,0.0,0.0,0.0,0.0,0.0,0.0,0.0,0.0,0.0,0.0,0.0,0.0,0.0,0.0,0.0,0.0,0.0,0.0,0.0,0.0,0.0,0.0,0.0,0.0,0.0,0.0,0.0,0.0,0.0,0.0,0.0,0.0,0.0,0.0,0.0,0.0,0.0,0.0,0.0,0.0,0.0,0.0,0.0,0.0,0.0,0.0,0.0,0.0,0.0,0.0,0.0,0.0,0.0,0.0,0.0,0.0,0.0,0.0,0.0,0.0,0.0,0.0,0.0,0.0,0.0,0.0,0.0,0.0,0.0,0.0,0.0,0.0,0.0,0.0,0.0,0.0,0.0,0.0,0.0,0.0,0.0,0.0,0.0,0.0,0.0,0.0,0.0,0.0,-4.3936,-4.344,-4.2904,-4.241,-4.1781,-4.0992,0.0,0.0,0.0,0.0,0.0,0.0,0.0,0.0,0.0,0.0,0.0,0.0,0.0,0.0,0.0,0.0,0.0,0.0,0.0,0.0,0.0,0.0,0.0,0.0,0.0,0.0,0.0,0.0,0.0,0.0,0.0,0.0,0.0,0.0,0.0,0.0,0.0,0.0,0.0,0.0,0.0,0.0,0.0,0.0,0.0,0.0,0.0,0.0,0.0,0.0,0.0,0.0,0.0,0.0,0.0,0.0,0.0,0.0,0.0,0.0,0.0,0.0,0.0,0.0,0.0,0.0,0.0,0.0,0.0,0.0,0.0,0.0,0.0,0.0,0.0,0.0,0.0,0.0,0.0,0.0,0.0,0.0,0.0,0.0,0.0,0.0,0.0,0.0,0.0,0.0,0.0,0.0,0.0,0.0,0.0,0.0,0.0,0.0,0.0,0.0,0.0,0.0,0.0,0.0,0.0,0.0,0.0,0.0,0.0,-4.4818,-4.5731,-4.5405,-4.3783,-4.2826,-4.2006,0.0,0.0,0.0,0.0,0.0,0.0,0.0,0.0,0.0,0.0,0.0,0.0,0.0,0.0,0.0,0.0,0.0,0.0,0.0,0.0,0.0,0.0,0.0,0.0,0.0,0.0,0.0,0.0,0.0,0.0,0.0,0.0,0.0,0.0,0.0,0.0,0.0,0.0,0.0,0.0,0.0,0.0,0.0,0.0,0.0,0.0,0.0,0.0,0.0,0.0,0.0,0.0,0.0,0.0,0.0,0.0,0.0,0.0,0.0,0.0,0.0,0.0,0.0,0.0,0.0,0.0,0.0,0.0,0.0,0.0,0.0,0.0,0.0,0.0,0.0,0.0,0.0,0.0,0.0,0.0,0.0,0.0,0.0,0.0,0.0,0.0,0.0,0.0,0.0,0.0,0.0,0.0,0.0,0.0,0.0,0.0,0.0,0.0,0.0,0.0,0.0,0.0,0.0,0.0,0.0,0.0,0.0,0.0,-4.4735,-4.611,-4.7322,-4.7225,-4.5732,-4.4354,-4.3083,0.0,0.0,0.0,0.0,0.0,0.0,0.0,0.0,0.0,0.0,0.0,0.0,0.0,0.0,0.0,0.0,0.0,0.0,0.0,0.0,0.0,0.0,0.0,0.0,0.0,0.0,0.0,0.0,0.0,0.0,0.0,0.0,0.0,0.0,0.0,0.0,0.0,0.0,0.0,0.0,0.0,0.0,0.0,0.0,0.0,0.0,0.0,0.0,0.0,0.0,0.0,0.0,0.0,0.0,0.0,0.0,0.0,0.0,0.0,0.0,0.0,0.0,0.0,0.0,0.0,0.0,0.0,0.0,0.0,0.0,0.0,0.0,0.0,0.0,0.0,0.0,0.0,0.0,0.0,0.0,0.0,0.0,0.0,0.0,0.0,0.0,0.0,0.0,0.0,0.0,0.0,0.0,0.0,0.0,0.0,0.0,0.0,0.0,0.0,0.0,0.0,0.0,0.0,0.0,0.0,0.0,0.0,0.0,-4.5407,-4.7347,-4.8306,-4.8478,-4.7814,-4.6026,-4.4211,0.0,0.0,0.0,0.0,0.0,0.0,0.0,0.0,0.0,0.0,0.0,0.0,0.0,0.0,0.0,0.0,0.0,0.0,0.0,0.0,0.0,0.0,0.0,0.0,0.0,0.0,0.0,0.0,0.0,0.0,0.0,0.0,0.0,0.0,0.0,0.0,0.0,0.0,0.0,0.0,0.0,0.0,0.0,0.0,0.0,0.0,0.0,0.0,0.0,0.0,0.0,0.0,0.0,0.0,0.0,0.0,0.0,0.0,0.0,0.0,0.0,0.0,0.0,0.0,0.0,0.0,0.0,0.0,0.0,0.0,0.0,0.0,0.0,0.0,0.0,0.0,0.0,0.0,0.0,0.0,0.0,0.0,0.0,0.0,0.0,0.0,0.0,0.0,0.0,0.0,0.0,0.0,0.0,0.0,0.0,0.0,0.0,0.0,0.0,0.0,0.0,0.0,0.0,0.0,0.0,0.0,0.0,0.0,-4.6483,-4.7376,-4.8789,-4.8928,-4.7811,-4.6896,-4.5532,0.0,0.0,0.0,0.0,0.0,0.0,0.0,0.0,0.0,0.0,0.0,0.0,0.0,0.0,0.0,0.0,0.0,0.0,0.0,0.0,0.0,0.0,0.0,0.0,0.0,0.0,0.0,0.0,0.0,0.0,0.0,0.0,0.0,0.0,0.0,0.0,0.0,0.0,0.0,0.0,0.0,0.0,0.0,0.0,0.0,0.0,0.0,0.0,-4.184,0.0,0.0,0.0,0.0,0.0,0.0,0.0,0.0,0.0,0.0,0.0,0.0,0.0,0.0,0.0,0.0,0.0,0.0,0.0,0.0,0.0,0.0,0.0,0.0,0.0,0.0,0.0,0.0,0.0,0.0,0.0,0.0,0.0,0.0,0.0,0.0,0.0,0.0,0.0,0.0,0.0,0.0,0.0,0.0,0.0,0.0,0.0,0.0,0.0,0.0,0.0,0.0,0.0,0.0,0.0,0.0,0.0,0.0,0.0,-4.7166,-4.8174,-4.9,-4.8993,-4.8138,-4.7403,-4.6029,0.0,0.0,0.0,0.0,0.0,0.0,0.0,0.0,0.0,0.0,0.0,0.0,0.0,0.0,0.0,0.0,0.0,0.0,0.0,0.0,0.0,0.0,0.0,0.0,0.0,0.0,0.0,0.0,0.0,0.0,0.0,0.0,0.0,0.0,0.0,0.0,0.0,0.0,0.0,0.0,0.0,0.0,0.0,0.0,0.0,0.0,0.0,0.0,0.0,0.0,0.0,0.0,0.0,0.0,0.0,0.0,0.0,0.0,0.0,0.0,0.0,0.0,0.0,0.0,0.0,0.0,0.0,0.0,0.0,0.0,0.0,0.0,0.0,0.0,0.0,0.0,0.0,0.0,0.0,0.0,0.0,0.0,0.0,0.0,0.0,0.0,0.0,0.0,0.0,0.0,0.0,0.0,0.0,0.0,0.0,0.0,0.0,0.0,0.0,0.0,0.0,0.0,0.0,0.0,0.0,0.0,0.0,-4.6287,-4.7782,-4.9066,-4.9186,-4.8972,-4.8494,-4.7678,-4.6253,-4.4138,0.0,0.0,0.0,0.0,0.0,0.0,0.0,0.0,0.0,0.0,0.0,0.0,0.0,0.0,0.0,0.0,0.0,0.0,0.0,0.0,0.0,0.0,0.0,0.0,0.0,0.0,0.0,0.0,0.0,0.0,0.0,0.0,0.0,0.0,0.0,0.0,0.0,0.0,-3.9547,-4.1421,0.0,0.0,0.0,0.0,0.0,0.0,0.0,0.0,-4.5035,0.0,0.0,0.0,0.0,0.0,0.0,0.0,0.0,0.0,0.0,0.0,0.0,0.0,0.0,0.0,0.0,0.0,0.0,0.0,0.0,0.0,0.0,0.0,0.0,0.0,0.0,0.0,0.0,0.0,0.0,0.0,0.0,0.0,0.0,0.0,0.0,0.0,0.0,0.0,0.0,0.0,0.0,0.0,0.0,0.0,0.0,0.0,0.0,0.0,0.0,0.0,0.0,0.0,0.0,0.0,0.0,-4.4922,-4.6951,-4.8453,-4.9407,-4.9437,-4.9127,-4.8525,-4.7801,-4.6431,-4.4353,0.0,0.0,0.0,0.0,0.0,0.0,0.0,0.0,0.0,0.0,0.0,0.0,0.0,0.0,0.0,0.0,0.0,0.0,0.0,0.0,0.0,0.0,0.0,0.0,0.0,0.0,0.0,0.0,0.0,0.0,0.0,0.0,0.0,0.0,0.0,0.0,0.0,0.0,0.0,-4.3817,-4.5536,0.0,0.0,0.0,0.0,0.0,0.0,0.0,0.0,-4.5412,0.0,0.0,0.0,0.0,0.0,0.0,0.0,0.0,0.0,0.0,0.0,0.0,0.0,0.0,0.0,0.0,0.0,0.0,0.0,0.0,0.0,0.0,0.0,0.0,0.0,0.0,0.0,0.0,0.0,0.0,0.0,0.0,0.0,0.0,0.0,0.0,0.0,0.0,0.0,0.0,0.0,0.0,0.0,0.0,0.0,0.0,0.0,0.0,0.0,0.0,0.0,0.0,0.0,0.0,0.0,-4.5624,-4.7488,-4.8951,-5.01,-4.9508,-4.9112,-4.8877,-4.7466,-4.6019,0.0,0.0,0.0,0.0,0.0,0.0,0.0,0.0,0.0,0.0,0.0,0.0,0.0,0.0,0.0,0.0,0.0,0.0,0.0,0.0,0.0,0.0,0.0,0.0,0.0,0.0,0.0,0.0,0.0,0.0,0.0,0.0,0.0,0.0,0.0,0.0,0.0,0.0,0.0,0.0,-4.5186,-4.659,-4.7936,0.0,0.0,0.0,0.0,0.0,0.0,-4.746,-4.6845,0.0,0.0,0.0,0.0,0.0,0.0,0.0,0.0,0.0,0.0,0.0,0.0,0.0,0.0,0.0,0.0,0.0,0.0,0.0,0.0,0.0,0.0,0.0,0.0,0.0,0.0,0.0,0.0,0.0,0.0,0.0,0.0,0.0,0.0,0.0,0.0,0.0,0.0,0.0,0.0,0.0,0.0,0.0,0.0,0.0,0.0,0.0,0.0,0.0,0.0,0.0,0.0,0.0,0.0,0.0,-4.6108,-4.7758,-4.9197,-5.0379,-4.9503,-4.8999,-4.9045,-4.7121,-4.5641,0.0,0.0,0.0,0.0,0.0,0.0,0.0,0.0,0.0,0.0,0.0,0.0,0.0,0.0,0.0,0.0,0.0,0.0,0.0,0.0,0.0,0.0,0.0,0.0,0.0,0.0,0.0,0.0,0.0,0.0,0.0,0.0,0.0,0.0,0.0,0.0,0.0,0.0,0.0,0.0,0.0,-4.7445,-4.955,-4.9769,0.0,0.0,0.0,0.0,-4.9284,-4.9045,0.0,0.0,0.0,0.0,0.0,0.0,0.0,0.0,0.0,0.0,0.0,0.0,0.0,0.0,0.0,0.0,0.0,0.0,0.0,0.0,0.0,0.0,0.0,0.0,0.0,0.0,0.0,0.0,0.0,0.0,0.0,0.0,0.0,0.0,0.0,0.0,0.0,0.0,0.0,0.0,0.0,0.0,0.0,0.0,0.0,0.0,0.0,0.0,0.0,0.0,0.0,0.0,0.0,0.0,0.0,0.0,-4.5754,-4.7627,-4.8875,-4.9418,-4.9344,-4.8985,-4.8401,-4.7012,-4.5754,0.0,0.0,0.0,0.0,0.0,0.0,0.0,0.0,0.0,0.0,0.0,0.0,0.0,0.0,0.0,0.0,0.0,0.0,0.0,0.0,0.0,0.0,0.0,0.0,0.0,0.0,0.0,0.0,0.0,0.0,0.0,0.0,0.0,0.0,0.0,0.0,0.0,0.0,0.0,0.0,0.0,-4.8713,-5.0728,-5.0813,-5.0513,0.0,0.0,-4.9882,-4.9404,-5.0167,0.0,0.0,0.0,0.0,0.0,0.0,0.0,0.0,0.0,0.0,0.0,0.0,0.0,0.0,0.0,0.0,0.0,0.0,0.0,0.0,0.0,0.0,0.0,0.0,0.0,0.0,0.0,0.0,0.0,0.0,0.0,0.0,0.0,0.0,0.0,0.0,0.0,0.0,0.0,0.0,0.0,0.0,0.0,0.0,0.0,0.0,0.0,0.0,0.0,0.0,0.0,0.0,0.0,0.0,0.0,-4.3663,-4.5665,-4.7348,-4.8566,-4.9239,-4.8955,-4.8581,-4.8282,-4.6636,-4.5394,0.0,0.0,0.0,0.0,0.0,0.0,0.0,0.0,0.0,0.0,0.0,0.0,0.0,0.0,0.0,0.0,0.0,0.0,0.0,0.0,0.0,0.0,0.0,0.0,0.0,0.0,0.0,0.0,0.0,0.0,0.0,0.0,0.0,0.0,0.0,0.0,0.0,0.0,0.0,0.0,0.0,0.0,-5.0448,-5.1509,0.0,0.0,0.0,-5.1259,-5.0975,0.0,0.0,0.0,0.0,0.0,0.0,0.0,0.0,0.0,0.0,0.0,0.0,0.0,0.0,0.0,0.0,0.0,0.0,0.0,0.0,0.0,0.0,0.0,0.0,0.0,0.0,0.0,0.0,0.0,0.0,0.0,0.0,0.0,0.0,0.0,0.0,0.0,0.0,0.0,0.0,0.0,0.0,0.0,0.0,0.0,0.0,0.0,0.0,0.0,0.0,0.0,0.0,0.0,0.0,0.0,0.0,0.0,-4.5429,-4.7081,-4.8194,-4.876,-4.8461,-4.8207,-4.8012,-4.6426,0.0,0.0,0.0,0.0,0.0,0.0,0.0,0.0,0.0,0.0,0.0,0.0,0.0,0.0,0.0,0.0,0.0,0.0,0.0,0.0,0.0,0.0,0.0,0.0,0.0,0.0,0.0,-3.5537,0.0,0.0,0.0,0.0,0.0,0.0,0.0,0.0,0.0,0.0,0.0,0.0,0.0,0.0,-4.8977,-5.0045,-5.1783,-5.2531,0.0,0.0,-5.2276,-5.1783,-5.1454,-5.0838,0.0,0.0,0.0,0.0,0.0,0.0,0.0,0.0,0.0,0.0,0.0,0.0,0.0,0.0,0.0,0.0,0.0,0.0,0.0,0.0,0.0,0.0,0.0,0.0,0.0,0.0,0.0,0.0,0.0,0.0,0.0,0.0,0.0,0.0,0.0,0.0,0.0,0.0,0.0,0.0,0.0,0.0,0.0,0.0,0.0,0.0,0.0,0.0,0.0,0.0,0.0,0.0,0.0,0.0,-4.3175,-4.4779,-4.6844,-4.7747,-4.7489,-4.7997,-4.7997,-4.7384,-4.6608,-4.5821,0.0,0.0,0.0,0.0,0.0,0.0,0.0,0.0,0.0,0.0,0.0,0.0,0.0,0.0,0.0,0.0,0.0,0.0,0.0,0.0,0.0,0.0,0.0,0.0,0.0,0.0,0.0,0.0,0.0,0.0,0.0,0.0,0.0,0.0,0.0,0.0,0.0,0.0,0.0,0.0,0.0,-4.8977,-5.006,-5.1394,-5.2022,0.0,-5.2291,-5.2486,-5.0614,-5.2333,-5.268,-4.903,0.0,0.0,0.0,0.0,0.0,0.0,0.0,0.0,0.0,0.0,0.0,0.0,0.0,0.0,0.0,0.0,0.0,0.0,0.0,0.0,0.0,0.0,0.0,0.0,0.0,0.0,0.0,0.0,0.0,0.0,0.0,0.0,0.0,0.0,0.0,0.0,0.0,0.0,0.0,0.0,0.0,0.0,0.0,0.0,0.0,0.0,0.0,0.0,0.0,0.0,0.0,0.0,0.0,-4.2913,-4.4706,-4.6129,-4.7015,-4.7294,-4.7549,-4.7563,-4.7309,-4.6247,-4.5475,0.0,0.0,0.0,0.0,0.0,0.0,0.0,0.0,0.0,0.0,0.0,0.0,0.0,0.0,0.0,0.0,0.0,0.0,0.0,0.0,0.0,0.0,0.0,0.0,0.0,0.0,0.0,0.0,-3.7999,-3.8405,-3.8231,0.0,0.0,0.0,0.0,0.0,0.0,0.0,0.0,0.0,0.0,-4.8966,-4.9568,-5.1109,0.0,0.0,-5.1648,-5.1708,-5.096,-5.1005,-5.0646,-4.9179,-4.7878,0.0,0.0,0.0,0.0,0.0,0.0,0.0,0.0,0.0,0.0,0.0,0.0,0.0,0.0,0.0,0.0,0.0,0.0,0.0,0.0,0.0,0.0,0.0,0.0,0.0,0.0,0.0,0.0,0.0,0.0,0.0,0.0,0.0,0.0,0.0,0.0,0.0,0.0,0.0,0.0,0.0,0.0,0.0,0.0,0.0,0.0,0.0,0.0,0.0,0.0,0.0,0.0,-4.2743,-4.4691,-4.5766,-4.6608,-4.7294,-4.7309,-4.7204,-4.6995,-4.6097,-4.5341,0.0,0.0,0.0,0.0,0.0,0.0,0.0,0.0,0.0,0.0,0.0,0.0,0.0,0.0,0.0,0.0,0.0,0.0,0.0,0.0,0.0,0.0,0.0,0.0,0.0,0.0,0.0,0.0,-3.8376,-3.8725,-3.826,0.0,0.0,0.0,0.0,0.0,0.0,0.0,0.0,0.0,0.0,-4.9013,-4.9284,-5.078,-5.1678,-5.102,-5.1094,-5.1079,-5.069,-5.0032,-4.9359,-4.8775,0.0,0.0,0.0,0.0,0.0,0.0,0.0,0.0,0.0,0.0,0.0,0.0,0.0,0.0,0.0,0.0,0.0,0.0,0.0,0.0,0.0,0.0,0.0,0.0,0.0,0.0,0.0,-3.8179,0.0,0.0,-3.8194,0.0,0.0,0.0,0.0,0.0,0.0,0.0,0.0,0.0,0.0,0.0,0.0,0.0,0.0,0.0,0.0,0.0,0.0,0.0,0.0,0.0,0.0,-4.2729,-4.4676,-4.5724,-4.6593,-4.7279,-4.7294,-4.6995,-4.6381,-4.6292,-4.5636,-4.4306,0.0,0.0,0.0,0.0,0.0,0.0,0.0,0.0,0.0,0.0,0.0,0.0,0.0,0.0,0.0,0.0,0.0,0.0,0.0,0.0,0.0,0.0,0.0,0.0,0.0,0.0,-3.8188,-3.8202,-3.8231,0.0,0.0,0.0,0.0,0.0,0.0,0.0,0.0,0.0,-4.4855,-4.7287,-4.9013,-4.9254,-5.0391,-5.0975,-5.0285,-5.0734,-5.075,-4.9569,-4.9793,-4.9523,0.0,0.0,0.0,0.0,0.0,0.0,0.0,0.0,0.0,0.0,0.0,0.0,0.0,0.0,0.0,0.0,0.0,0.0,0.0,0.0,0.0,0.0,0.0,0.0,0.0,0.0,0.0,-3.9088,-3.9421,0.0,0.0,0.0,0.0,0.0,0.0,0.0,0.0,0.0,0.0,0.0,-4.0104,-4.0104,0.0,0.0,0.0,0.0,0.0,0.0,0.0,0.0,0.0,0.0,0.0,0.0,-4.2315,-4.4602,-4.532,-4.6187,-4.7249,-4.6875,-4.6546,-4.6322,-4.5439,-4.4167,-4.2417,0.0,0.0,0.0,0.0,0.0,0.0,0.0,0.0,0.0,0.0,0.0,0.0,0.0,0.0,0.0,0.0,0.0,0.0,0.0,0.0,0.0,0.0,0.0,0.0,0.0,-3.887,0.0,0.0,0.0,0.0,0.0,0.0,0.0,0.0,0.0,0.0,-4.2412,-4.4104,-4.4897,-4.7046,-4.8522,-4.8611,-4.9359,-4.9838,0.0,0.0,0.0,0.0,0.0,0.0,0.0,0.0,0.0,0.0,0.0,0.0,0.0,0.0,-4.5395,-4.5775,-4.615,-4.6585,-4.7244,0.0,0.0,0.0,0.0,0.0,0.0,0.0,0.0,0.0,0.0,0.0,0.0,0.0,0.0,-3.9741,-4.0046,-3.9697,0.0,0.0,0.0,0.0,0.0,0.0,0.0,0.0,-4.0684,-4.0786,-4.0786,-4.0786,-4.067,0.0,-4.0437,-3.99,0.0,0.0,0.0,0.0,0.0,0.0,0.0,0.0,-4.2094,-4.4588,-4.5111,-4.5843,-4.689,-4.6503,-4.6055,-4.5633,-4.4515,-4.315,-4.1482,-4.0838,-3.9824,0.0,0.0,0.0,0.0,0.0,0.0,0.0,0.0,0.0,0.0,0.0,0.0,0.0,0.0,0.0,0.0,0.0,0.0,0.0,0.0,0.0,0.0,0.0,-3.9204,0.0,0.0,0.0,0.0,0.0,0.0,0.0,0.0,0.0,-4.1425,-4.3127,-4.4611,-4.5364,-4.7103,-4.8297,-4.8297,0.0,0.0,0.0,0.0,0.0,0.0,0.0,-4.7563,-4.7354,-4.7683,-4.7848,-4.7414,-4.6785,-4.6421,-4.6617,0.0,0.0,-4.7479,-4.7782,-4.8249,-4.8885,-4.9635,-5.0304,-5.0761,-5.145,-5.1941,0.0,0.0,0.0,0.0,0.0,0.0,0.0,0.0,-4.0133,-4.0176,0.0,-4.0176,0.0,0.0,0.0,0.0,-4.0162,-4.0771,0.0,0.0,-4.1758,-4.2092,-4.2063,-4.2049,-4.1758,-4.1149,-4.112,-4.0786,-4.0147,-3.9552,0.0,0.0,0.0,0.0,0.0,0.0,-4.2094,-4.4573,-4.5052,-4.5589,-4.6219,-4.6219,-4.5618,-4.4347,-4.3633,-4.2746,-4.1504,-4.1414,-4.0479,-3.8403,-3.8071,0.0,0.0,0.0,0.0,0.0,0.0,0.0,0.0,0.0,0.0,0.0,0.0,0.0,0.0,0.0,0.0,0.0,0.0,0.0,0.0,-3.9189,0.0,0.0,0.0,0.0,0.0,0.0,0.0,0.0,0.0,-4.3095,-4.3184,-4.4284,-4.5322,-4.6175,0.0,0.0,0.0,0.0,-4.906,-4.8386,-4.8312,-4.8102,-4.7489,-4.7923,-4.8117,-4.7489,0.0,0.0,-4.9254,-4.8686,-4.8295,-4.8514,-4.8507,-4.8388,-4.773,-4.8483,-4.9248,-4.9531,-5.0739,-5.1749,-5.1962,-5.3029,-5.4067,-4.2452,0.0,0.0,0.0,0.0,-4.0135,-4.0392,-4.08,-4.0815,-4.1323,-4.2107,-4.1207,0.0,0.0,0.0,0.0,0.0,0.0,-4.1366,-4.1802,-4.2005,-4.2092,-4.2092,-4.2092,-4.199,-4.1816,-4.1816,-4.1715,-4.1497,-4.0873,-4.0321,-3.9842,0.0,0.0,0.0,0.0,-4.2275,-4.3879,-4.4396,-4.493,-4.5574,-4.514,-4.4481,-4.3643,-4.3394,-4.294,-4.2156,-4.2126,-4.1609,-4.0539,-3.9379,0.0,0.0,0.0,0.0,0.0,0.0,0.0,0.0,0.0,0.0,0.0,0.0,0.0,0.0,0.0,0.0,0.0,0.0,0.0,-3.8434,-3.8913,-3.9015,0.0,0.0,0.0,0.0,0.0,0.0,0.0,0.0,0.0,-4.5165,-4.5714,-4.6028,0.0,0.0,-4.7593,-4.7593,-4.8147,-4.8506,-4.8327,-4.8686,0.0,-4.879,-4.891,-4.897,-4.873,-4.9075,-4.9164,-4.8641,-4.8461,-4.8176,-4.7755,-4.864,-4.9362,-4.9268,-4.9869,-5.0704,-5.1369,-5.193,-5.2577,-5.3515,-5.4113,-5.4547,-4.4484,-4.3059,-4.1745,-4.1116,-4.0989,-4.1159,-4.1522,-4.1998,-4.2162,-4.2542,-4.2948,-4.2194,-4.1932,-4.2063,-4.125,0.0,0.0,0.0,-4.1715,-4.2092,-4.2092,-4.2092,-4.2092,-4.2092,-4.2092,-4.2092,-4.2092,-4.2092,-4.2092,-4.1686,-4.1294,-4.0873,0.0,-4.0437,-4.1076,-4.1412,-4.2243,-4.3519,-4.3991,-4.4404,-4.4762,-4.4216,-4.3693,-4.3319,-4.3305,-4.3135,-4.2761,-4.2761,-4.2447,-4.1826,-4.0822,-3.9565,0.0,0.0,0.0,0.0,0.0,0.0,0.0,0.0,0.0,0.0,0.0,-3.5392,-3.5407,0.0,0.0,0.0,-3.7767,-3.8202,-3.8565,-3.9266,0.0,0.0,0.0,0.0,0.0,0.0,0.0,-4.2991,-4.386,-4.4851,-4.613,-4.6743,-4.701,-4.6741,-4.7279,-4.7698,-4.7698,0.0,-4.8686,-4.8671,-4.906,-4.9299,-4.9299,-4.9494,-4.9748,-5.0002,-5.0032,-4.9808,-4.9194,-4.8865,-4.8461,-4.8007,-4.8576,-4.9423,-4.9742,-5.0499,-5.138,-5.223,-5.2605,-5.3102,-5.3947,-5.4274,-5.4659,-4.5918,-4.5098,-4.2941,-4.1927,-4.1863,-4.2309,-4.2802,-4.3303,-4.3774,-4.3644,-4.3079,-4.2963,-4.2615,-4.2092,-4.2092,0.0,-4.2092,-4.2092,-4.2092,-4.2092,-4.2092,-4.2092,-4.2092,-4.2092,-4.2092,-4.2092,-4.2092,-4.2092,-4.2092,-4.2092,-4.2092,-4.2063,-4.0858,-4.0568,-4.1134,-4.139,-4.2111,-4.3282,-4.3726,-4.3916,-4.3916,-4.3538,-4.3305,-4.3305,-4.3305,-4.3305,-4.3305,-4.3305,-4.306,-4.2515,-4.2246,-4.0908,-3.8332,0.0,0.0,0.0,0.0,0.0,0.0,0.0,0.0,0.0,0.0,0.0,0.0,0.0,0.0,-3.7447,-3.8565,0.0,-3.9329,-4.0008,0.0,0.0,0.0,-4.0914,-4.0943,-4.2317,-4.3239,-4.3343,0.0,0.0,-4.6354,-4.7489,-4.8072,-4.7459,-4.7952,-4.8356,-4.8356,-4.897,-4.9389,-4.9389,-4.9404,-4.9434,-4.9614,-4.9972,-5.045,-5.099,-5.1229,-5.09,-5.0226,-4.9643,-4.9075,-4.8356,-4.846,-4.879,-4.9583,-5.0438,-5.1343,-5.2089,-5.2782,-5.3318,-5.3467,-5.3947,-5.4411,-4.5918,-4.52,-4.4135,-4.3314,-4.2752,-4.3364,-4.3487,-4.3316,-4.3462,-4.3612,-4.3689,-4.2731,-4.2223,-4.2092,-4.2092,-4.2092,-4.2092,-4.2092,-4.2092,-4.2092,-4.2092,-4.2092,-4.2092,-4.2092,-4.2092,-4.2092,-4.2092,-4.2092,-4.2092,-4.2092,-4.2092,-4.2078,-4.1773,-4.17,-4.1845,-4.2091,-4.2304,-4.2611,-4.3046,-4.3314,-4.3449,-4.3379,-4.3305,-4.3305,-4.3305,-4.3305,-4.3305,-4.3305,-4.3215,-4.309,-4.2587,-4.1656,-4.0176,-3.9084,0.0,0.0,0.0,0.0,0.0,0.0,0.0,0.0,0.0,-3.6301,-3.6809,0.0,-3.8202,0.0,-3.9436,-3.9979,-4.0164,-4.0349,0.0,0.0,-4.137,-4.1991,-4.2481,-4.3413,-4.44,-4.543,-4.5995,-4.6516,-4.7025,-4.7773,-4.8222,-4.8087,-4.867,-4.9075,-4.9105,-4.9583,-5.0002,-5.0047,-5.0406,-5.075,-5.069,-5.087,-5.099,-5.1152,-5.1214,-5.0943,-5.03,-4.9703,-4.909,-4.8475,-4.8475,-4.8702,-4.8887,-5.0088,-5.1065,-5.1397,-5.2076,-5.2788,-5.3301,-5.3549,-5.3831,-4.5469,-4.4825,-4.4466,-4.3847,-4.316,-4.3656,-4.3732,-4.3512,-4.3622,-4.3613,-4.3485,-4.2513,-4.2092,-4.2092,-4.2092,-4.2092,-4.2092,-4.2092,-4.2092,-4.2092,-4.2092,-4.2092,-4.2092,-4.2092,-4.2092,-4.2092,-4.2092,-4.2092,-4.2092,-4.2092,-4.2092,-4.2092,-4.2092,-4.2092,-4.2092,-4.2216,-4.2284,-4.2284,-4.2662,-4.301,-4.3305,-4.3305,-4.3305,-4.3305,-4.3305,-4.3305,-4.3305,-4.3305,-4.3305,-4.329,-4.2985,-4.2106,-4.058,-3.9697,-3.8443,0.0,0.0,0.0,0.0,0.0,0.0,0.0,0.0,0.0,0.0,0.0,-3.8913,-3.9552,-3.9993,-4.046,-4.0856,-4.1082,-4.1371,-4.174,-4.2292,-4.2902,-4.3558,-4.428,-4.5155,-4.616,-4.6533,-4.6995,-4.7653,-4.8312,-4.8835,-4.9119,-4.9718,-5.0032,-4.9823,-5.0257,-5.0629,-5.0644,-5.0943,-5.1094,-5.0794,-5.0541,-5.0346,-5.0376,-5.0586,-5.0435,-4.9568,-4.9329,-4.9015,-4.8101,-4.7951,-4.8172,-4.8573,-4.9599,-5.0592,-5.1118,-5.1782,-5.2487,-5.287,-5.297,-5.3102,-4.484,-4.4302,-4.4227,-4.3853,-4.3295,-4.3527,-4.3658,-4.3693,-4.3872,-4.3585,-4.2847,-4.2324,-4.2092,-4.2092,-4.2092,-4.2092,-4.2092,-4.2092,-4.2092,-4.2092,-4.2092,-4.2092,-4.2092,-4.2092,-4.2092,-4.2092,-4.2092,-4.2092,-4.2092,-4.2092,-4.2092,-4.2092,-4.2092,-4.2092,-4.2092,-4.2092,-4.2133,-4.2133,-4.25,-4.2875,-4.325,-4.329,-4.3305,-4.3305,-4.3305,-4.3305,-4.3305,-4.3305,-4.3305,-4.3305,-4.3305,-4.2389,-4.0479,-4.0083,-3.9121,0.0,-3.6975,0.0,0.0,0.0,0.0,0.0,0.0,0.0,0.0,-3.9203,-3.9654,-4.0216,-4.0573,-4.0983,-4.1536,-4.1982,-4.2441,-4.2946,-4.321,-4.3589,-4.4306,-4.496,-4.5589,-4.6324,-4.695,-4.7534,-4.8042,-4.879,-4.9494,-4.9942,-5.0631,-5.09,-5.048,-5.0779,-5.1092,-5.1078,-5.102,-5.0631,-5.0182,-4.9673,-4.9374,-4.9404,-4.9748,-4.9703,-4.8716,-4.888,-4.876,-4.7758,-4.7557,-4.7737,-4.8381,-4.9237,-5.0174,-5.0783,-5.1655,-5.239,-5.2459,-5.2475,-5.2409,-4.4421,-4.4272,-4.3693,-4.3409,-4.3305,-4.3169,-4.3353,-4.3705,-4.3725,-4.3209,-4.2266,-4.215,-4.2092,-4.2092,-4.2092,-4.2092,-4.2092,-4.2092,-4.2092,-4.2092,-4.2092,-4.2092,-4.2092,-4.2092,-4.2092,-4.2092,-4.2092,-4.2092,-4.2092,-4.2092,-4.2092,-4.2092,-4.2092,-4.2092,-4.2092,0.0,0.0,0.0,-4.2581,-4.2795,-4.3076,-4.321,-4.3305,-4.3305,-4.3305,0.0,-4.3305,-4.3305,-4.3305,-4.3305,-4.3305,0.0,0.0,0.0,0.0,0.0,0.0,0.0,0.0,0.0,0.0,0.0,-3.9923,-4.0132,-4.0149,-4.0498,-4.0851,-4.1127,-4.1704,-4.2232,-4.2668,-4.2763,-4.2942,-4.3195,-4.329,-4.3753,-4.493,-4.5214,-4.5753,-4.698,-4.7234,-4.7354,-4.7578,-4.8506,-4.9344,-4.9523,-5.0481,-5.1124,-5.0958,-5.1065,-5.0958,-5.048,-5.0032,-4.9628,-4.9464,-4.9359,-4.9164,-4.9329,-4.9374,-4.9359,-4.9045,-4.8626,-4.852,-4.8071,-4.8271,-4.813,-4.7737,-4.9318,-5.0669,-5.019,-5.1343,-5.2409,-5.2409,-5.2409,-5.2409,-4.3838,-4.3793,-4.3439,-4.3305,0.0,-4.321,-4.3163,-4.3204,-4.3122,-4.2699,-4.2092,-4.2092,-4.2092,-4.2092,-4.2092,-4.2092,-4.2092,-4.2092,-4.2092,-4.2092,-4.2092,-4.2092,-4.2092,-4.2092,-4.2092,-4.2092,-4.2092,-4.2092,-4.2092,-4.2092,-4.2092,-4.2092,-4.2092,-4.2092,-4.2092,-4.2092,-4.2242,-4.2541,-4.2648,-4.2835,-4.3155,-4.325,-4.3305,-4.3305,-4.3305,0.0,0.0,0.0,0.0,0.0,0.0,0.0,0.0,0.0,0.0,-4.0144,-4.001,-3.9862,-3.9654,-4.0241,-4.0731,-4.1058,-4.1566,-4.1578,-4.092,-4.1576,-4.2012,-4.1942,-4.2401,-4.2769,-4.2996,-4.3076,-4.3195,-4.329,-4.3305,-4.3693,-4.4646,-4.511,-4.5693,-4.6621,-4.7115,-4.7414,-4.7758,-4.8312,-4.894,-4.9284,-4.9853,-5.0287,-5.0287,-5.0541,-5.045,-4.9853,-4.9209,-4.879,-4.876,-4.8476,-4.8162,-4.7938,-4.8087,-4.8132,-4.7863,-4.7818,-4.7803,-4.786,-4.8216,-4.8407,-4.8214,-4.9694,-5.0951,-5.0653,-5.1508,-5.2373,-5.2409,-5.2409,-5.2409,-4.3305,-4.3305,-4.3305,-4.3305,-4.3305,-4.3265,-4.301,-4.2607,-4.2433,0.0,0.0,-4.2092,-4.2092,-4.2092,-4.2092,-4.2092,-4.2092,-4.2092,-4.2092,-4.2092,-4.2092,-4.2092,-4.2092,-4.2092,-4.2092,-4.2092,-4.2092,-4.2092,-4.2092,-4.2092,-4.2092,-4.2092,-4.2092,-4.2092,-4.2092,-4.2092,-4.2284,-4.2688,-4.2688,-4.285,-4.317,-4.325,-4.3305,-4.3305,-4.3305,-4.3305,-4.3305,-4.3305,-4.309,-4.2635,-4.3045,-4.2791,-4.1669,-4.1918,-4.1933,-4.1459,-4.1352,-4.1411,-4.1549,-4.1654,-4.1968,-4.253,-4.2857,-4.2619,-4.1582,-4.2381,-4.2845,-4.2585,-4.2831,-4.2996,-4.2996,-4.317,-4.3305,-4.325,-4.329,-4.3544,-4.4242,-4.4766,-4.5364,-4.6052,-4.6711,-4.7324,-4.7773,-4.8132,-4.8506,-4.9,-4.9284,-4.9254,-4.9239,-4.9538,-4.9658,-4.9164,-4.8551,-4.8117,-4.8042,-4.7743,-4.707,-4.6593,-4.686,-4.6875,-4.6426,-4.6576,-4.692,-4.689,-4.7737,-4.8224,-4.8352,-4.9755,-5.0983,-5.0924,-5.17,-5.2409,-5.2409,-5.2409,-5.2409,-4.3305,-4.3305,-4.3305,-4.3305,-4.329,-4.3115,-4.2809,-4.2418,-4.2257,-4.2133,-4.2092,-4.2092,-4.2092,-4.2092,-4.2092,-4.2092,-4.2092,-4.2092,-4.2092,-4.2092,-4.2092,-4.2092,-4.2092,-4.2092,-4.2092,-4.2092,-4.2092,-4.2092,-4.2092,-4.2092,-4.2092,-4.2092,-4.2092,-4.2092,-4.2092,-4.2092,-4.2284,-4.2688,-4.2688,-4.2729,-4.2809,-4.3145,-4.3305,-4.3305,-4.3305,-4.3305,-4.3305,-4.3305,-4.3245,-4.317,-4.3245,-4.2985,-4.2321,-4.2312,-4.2073,-4.1474,-4.1908,-4.2222,-4.2276,-4.2761,-4.3065,-4.314,-4.323,-4.3096,-4.2708,-4.2706,-4.278,-4.2816,-4.2966,-4.2996,-4.3036,-4.3195,-4.325,-4.3115,-4.321,-4.3559,-4.4197,-4.4407,-4.4736,-4.5364,-4.6037,-4.6471,-4.6696,-4.7549,-4.8207,-4.8491,-4.8775,-4.9075,-4.8581,-4.8506,-4.8536,-4.8371,-4.7863,-4.7504,-4.7489,-4.7399,-4.7025,-4.6384,-4.6367,-4.6232,-4.5559,-4.5559,-4.5735,-4.5675,-4.6942,-4.7528,-4.719,-4.9277,-5.0569,-5.0501,-5.1313,-5.2224,-5.2293,-5.2359,-5.2409,-4.3305,-4.3305,-4.3305,-4.3305,-4.3305,-4.297,-4.2729,-4.2541,-4.2242,-4.2092,-4.2092,-4.2092,-4.2092,-4.2092,-4.2092,-4.2092,-4.2092,-4.2092,-4.2092,-4.2092,-4.2092,-4.2092,-4.2092,-4.2092,-4.2092,-4.2092,-4.2092,-4.2092,-4.2092,-4.2092,-4.2092,-4.2092,-4.2092,-4.2092,-4.2092,-4.2092,-4.216,-4.2351,-4.2581,-4.2809,-4.301,-4.321,-4.3305,-4.3305,-4.3305,-4.3305,-4.3305,-4.3305,-4.3125,-4.2821,-4.315,-4.3045,-4.2455,-4.2686,-4.2746,-4.2476,-4.2716,-4.2895,-4.288,-4.3125,-4.3305,-4.3305,-4.3305,-4.325,-4.314,-4.3076,-4.305,-4.3101,-4.3155,-4.3155,-4.3155,-4.325,-4.325,-4.317,-4.325,-4.3409,-4.3748,-4.4082,-4.4436,-4.4766,-4.5349,-4.5753,-4.5768,-4.6606,-4.7204,-4.7264,-4.7788,-4.8057,-4.7803,-4.7758,-4.7758,-4.7728,-4.7489,-4.7339,-4.7309,-4.7309,-4.6875,-4.5948,-4.5768,-4.5484,-4.4915,-4.4766,-4.5105,-4.5839,-4.6928,-4.7659,-4.7643,-4.928,-5.0251,-5.0352,-5.0568,-5.1245,-5.1645,-5.2075,-5.2393,-4.3305,-4.3305,-4.3305,-4.325,-4.313,-4.285,-4.2662,-4.2541,-4.2242,-4.2092,-4.2092,-4.2092,-4.2092,-4.2092,-4.2092,-4.2092,-4.2092,-4.2092,-4.2092,-4.2092,-4.2092,-4.2092,-4.2092,-4.2092,-4.2092,-4.2092,-4.2092,-4.2092,-4.2092,-4.2092,-4.2092,-4.2092,-4.2092,-4.2133,-4.2175,-4.2175,-4.2201,-4.2325,-4.2622,-4.2875,-4.317,-4.325,-4.3305,-4.3305,-4.3305,-4.3305,-4.3305,-4.3305,-4.3105,-4.2641,-4.306,-4.3105,-4.2641,-4.306,-4.3305,-4.3305,-4.3305,-4.3305,-4.3305,-4.3305,-4.3305,-4.3305,-4.3305,-4.3305,-4.3305,-4.3305,-4.3305,-4.3305,-4.329,-4.329,-4.325,-4.329,-4.329,-4.3235,-4.3265,-4.3305,-4.3349,-4.3753,-4.4107,-4.4167,-4.4796,-4.5274,-4.5274,-4.5948,-4.6606,-4.6741,-4.689,-4.71,-4.7249,-4.7309,-4.7309,-4.7309,-4.7309,-4.7309,-4.7309,-4.7309,-4.6741,-4.5514,-4.5304,-4.496,-4.4407,-4.4092,-4.4388,-4.5407,-4.6299,-4.7,-4.7962,-4.8942,-4.9597,-4.9801,-5.0153,-5.0518,-5.1249,-5.1746,-5.2227,-4.3305,-4.3305,-4.3305,-4.309,-4.2769,-4.2729,-4.25,-4.2175,-4.2133,-4.2092,-4.2092,-4.2092,-4.2092,-4.2092,-4.2092,-4.2092,-4.2092,-4.2092,-4.2092,-4.2092,-4.2092,-4.2092,-4.2092,-4.2092,-4.2092,-4.2092,-4.2092,-4.2092,-4.2092,-4.2092,-4.2092,-4.2092,-4.2092,-4.2216,-4.2366,-4.2351,-4.2541,-4.2915,-4.2955,-4.2915,-4.2769,-4.309,-4.3305,-4.3305,-4.3305,-4.3305,-4.3305,-4.3305,-4.3275,-4.3215,-4.3245,-4.326,-4.3215,-4.3275,-4.3305,-4.3305,-4.3305,-4.3305,-4.3305,-4.3305,-4.3305,-4.3305,-4.3305,-4.3305,-4.3305,-4.3305,-4.3305,-4.3305,-4.3305,-4.321,-4.3076,-4.3195,-4.325,-4.3115,-4.321,-4.3305,-4.3319,-4.3349,-4.3379,-4.3379,-4.4466,-4.508,-4.4676,-4.5873,-4.704,-4.7115,-4.6845,-4.68,-4.7204,-4.7309,-4.7309,-4.7309,-4.7309,-4.7309,-4.7309,-4.7309,-4.6681,-4.5574,-4.5274,-4.4736,-4.3928,-4.3469,-4.3573,-4.4319,-4.4595,-4.55,-4.6317,-4.712,-4.8429,-4.9141,-4.969,-5.0369,-5.1048,-5.1398,-5.168,-4.3305,-4.3305,-4.3305,-4.313,-4.2875,-4.2622,-4.2433,-4.2284,-4.2133,-4.2092,-4.2092,-4.2092,-4.2092,-4.2092,-4.2092,-4.2092,-4.2092,-4.2092,-4.2092,-4.2092,-4.2092,-4.2092,-4.2092,-4.2092,-4.2092,-4.2092,-4.2092,-4.2092,-4.2092,-4.2092,-4.2175,-4.2284,-4.2284,-4.2392,-4.2581,-4.2581,-4.2648,-4.2835,-4.2955,-4.2955,-4.2915,-4.317,-4.3305,-4.3305,-4.3305,-4.3305,-4.3305,-4.3305,-4.3305,-4.3305,-4.3305,-4.3305,-4.3305,-4.3305,-4.3305,-4.3305,-4.3305,-4.3305,-4.3305,-4.3305,-4.3305,-4.3305,-4.3305,-4.3305,-4.3305,-4.3305,-4.3305,-4.3305,-4.3305,-4.325,-4.321,-4.3235,-4.3235,-4.3195,-4.325,-4.3305,-4.3305,-4.3305,-4.3305,-4.3334,-4.3753,-4.4077,-4.3977,-4.511,-4.6367,-4.704,-4.704,-4.701,-4.7279,-4.7309,-4.7309,-4.7309,-4.7309,-4.7309,-4.7279,-4.695,-4.6337,-4.5544,-4.496,-4.4317,-4.3604,-4.3305,-4.3448,-4.3888,-4.4548,-4.5316,-4.6353,-4.7109,-4.8132,-4.858,-4.9011,-4.9657,-4.9939,-5.0684,-5.1365,-4.3305,-4.329,-4.325,-4.305,-4.2795,-4.2541,-4.2351,-4.2284,-4.2175,-4.2092,-4.2092,-4.2092,-4.2092,-4.2092,-4.2092,-4.2092,-4.2092,-4.2092,-4.2092,-4.2092,-4.2092,-4.2092,-4.2092,-4.2092,-4.2092,-4.2092,-4.2092,-4.2092,-4.2092,-4.2175,-4.2242,-4.2392,-4.2474,-4.2581,-4.2769,-4.2795,-4.2809,-4.289,-4.2996,-4.3076,-4.313,-4.321,-4.3305,-4.3305,-4.3305,-4.3305,-4.3305,-4.3305,-4.3305,-4.3305,-4.3305,-4.3305,-4.3305,-4.3305,-4.3305,-4.3305,-4.3305,-4.3305,-4.3305,-4.3305,-4.3305,-4.3305,-4.3305,-4.3305,-4.3305,-4.3305,-4.3305,-4.3305,-4.3305,-4.3305,-4.3305,-4.3305,-4.3305,-4.3305,-4.3305,-4.3305,-4.3305,-4.3305,-4.3305,-4.3305,-4.3559,-4.3753,-4.4112,-4.4796,-4.5574,-4.695,-4.7145,-4.716,-4.7264,-4.7309,-4.7309,-4.7309,-4.7309,-4.7309,-4.7249,-4.6785,-4.6082,-4.5409,-4.4796,-4.4152,-4.3439,-4.3319,-4.3329,-4.3732,-4.4774,-4.5551,-4.6076,-4.6963,-4.7853,-4.8084,-4.8465,-4.8945,-4.926,-5.0088,-5.0704,-4.3305,-4.3305,-4.3115,-4.2809,-4.2433,-4.2392,-4.2284,-4.2133,-4.2107,-4.2092,-4.2092,-4.2092,-4.2092,-4.2092,-4.2092,-4.2092,-4.2092,-4.2092,-4.2092,-4.2092,-4.2092,-4.2092,-4.2092,-4.2092,-4.2092,-4.2092,-4.2092,-4.2092,-4.2133,-4.2269,-4.2392,-4.2433,-4.2581,-4.2809,-4.2955,-4.2996,-4.309,-4.321,-4.325,-4.329,-4.3305,-4.3305,-4.3305,-4.3305,-4.3305,-4.3305,-4.3305,-4.3305,-4.3305,-4.3305,-4.3305,-4.3305,-4.3305,-4.3305,-4.3305,-4.3305,-4.3305,-4.3305,-4.3305,-4.3305,-4.3305,-4.3305,-4.3305,-4.3305,-4.3305,-4.3305,-4.3305,-4.3305,-4.3305,-4.3305,-4.3305,-4.3305,-4.3305,-4.3305,-4.3305,-4.3305,-4.3305,-4.3305,-4.3305,-4.3379,-4.3823,-4.4541,-4.5783,-4.508,-4.5544,-4.6636,-4.68,-4.6651,-4.7174,-4.7309,-4.7309,-4.7309,-4.7309,-4.7309,-4.7249,-4.6741,-4.6082,-4.5409,-4.4751,-4.4052,-4.3633,-4.3305,-4.3369,-4.3576,-4.4396,-4.5132,-4.5681,-4.641,-4.7286,-4.772,-4.7985,-4.8365,-4.8763,-4.9028,-4.9642,-4.321,-4.3076,-4.289,-4.2648,-4.2392,-4.2228,-4.2175,-4.2092,-4.2092,-4.2092,-4.2092,-4.2092,-4.2092,-4.2092,-4.2092,-4.2092,-4.2092,-4.2092,-4.2092,-4.2092,-4.2092,-4.2092,-4.2092,-4.2092,-4.2092,-4.2092,-4.2092,-4.2175,-4.231,-4.25,-4.2662,-4.2769,-4.2835,-4.2996,-4.317,-4.3195,-4.325,-4.3305,-4.3305,-4.3305,-4.3305,-4.3305,-4.3305,-4.3305,-4.3305,-4.3305,-4.3305,-4.3305,-4.3305,-4.3305,-4.3305,-4.3305,-4.3305,-4.3305,-4.3305,-4.3305,-4.3305,-4.3305,-4.3305,-4.3305,-4.3305,-4.3305,-4.3305,-4.3305,-4.3305,-4.3305,-4.3305,-4.3305,-4.3305,-4.3305,-4.3305,-4.3305,-4.3305,-4.3305,-4.3305,-4.3305,-4.3305,-4.3305,-4.3305,-4.3394,-4.3873,-4.465,-4.5379,-4.5603,-4.6067,-4.701,-4.7085,-4.7055,-4.7204,-4.7309,-4.7234,-4.7294,-4.7309,-4.7309,-4.7309,-4.6756,-4.604,-4.5409,-4.4751,-4.4092,-4.3544,-4.3349,-4.3329,-4.3708,-4.432,-4.5279,-4.604,-4.6878,-4.7538,-4.7754,-4.8001,-4.81,-4.8349,-4.868,-4.9211,-4.3076,-4.2875,-4.2688,-4.2514,-4.2284,-4.2175,-4.2092,-4.2092,-4.2092,-4.2092,-4.2092,-4.2092,-4.2092,-4.2092,-4.2092,-4.2092,-4.2092,-4.2092,-4.2092,-4.2092,-4.2092,-4.2092,-4.2092,-4.2092,-4.2133,-4.2201,-4.2284,-4.2351,-4.2514,-4.2703,-4.2875,-4.2996,-4.3076,-4.317,-4.3305,-4.3305,-4.3305,-4.3305,-4.3305,-4.3305,-4.3305,-4.3305,-4.3305,-4.3305,-4.3305,-4.3305,-4.3305,-4.3305,-4.3305,-4.3305,-4.3305,-4.3305,-4.3305,-4.3305,-4.3305,-4.3305,-4.3305,-4.3305,-4.3305,-4.3305,-4.3305,-4.3305,-4.3305,-4.3305,-4.3305,-4.3305,-4.3305,-4.3305,-4.3305,-4.3305,-4.3305,-4.3305,-4.3305,-4.3305,-4.3305,-4.3305,-4.3305,-4.3305,-4.3305,-4.3349,-4.3633,-4.4332,-4.514,-4.5663,-4.6322,-4.716,-4.7145,-4.6995,-4.698,-4.677,-4.6666,-4.6636,-4.6576,-4.6531,-4.6471,-4.6052,-4.5858,-4.5304,-4.4751,-4.4092,-4.3584,-4.3419,-4.3527,-4.3849,-4.4586,-4.5608,-4.6515,-4.7354,-4.7754,-4.7968,-4.8001,-4.8067,-4.8249,-4.8398,-4.8845,-4.2875,-4.2703,-4.2459,-4.231,-4.2133,-4.2092,-4.2092,-4.2092,-4.2092,-4.2092,-4.2092,-4.2092,-4.2092,-4.2092,-4.2092,-4.2092,-4.2092,-4.2092,-4.2092,-4.2092,-4.2092,-4.2092,-4.2092,-4.2133,-4.2242,-4.2392,-4.2622,-4.2703,-4.2688,-4.2875,-4.3021,-4.3036,-4.321,-4.3305,-4.3305,-4.3305,-4.3305,-4.3305,-4.3305,-4.3305,-4.3305,-4.3305,-4.3305,-4.3305,-4.3305,-4.3305,-4.3305,-4.3305,-4.3305,-4.3305,-4.3305,-4.3305,-4.3305,-4.3305,-4.3305,-4.3305,-4.3305,-4.3305,-4.3305,-4.3305,-4.3305,-4.3305,-4.3305,-4.3305,-4.3305,-4.3305,-4.3305,-4.3305,-4.3305,-4.3305,-4.3305,-4.3305,-4.3305,-4.3305,-4.3305,-4.3305,-4.3305,-4.3305,-4.3305,-4.3319,-4.3454,-4.3888,-4.487,-4.5469,-4.5992,-4.6666,-4.6726,-4.6396,-4.6307,-4.5918,-4.5469,-4.5424,-4.5633,-4.5798,-4.5559,-4.5304,-4.5304,-4.517,-4.4661,-4.4107,-4.3678,-4.3448,-4.381,-4.422,-4.5153,-4.6147,-4.71,-4.782,-4.7869,-4.8001,-4.8001,-4.8001,-4.8117,-4.8232,-4.8329,-4.2809,-4.25,-4.2433,-4.2284,-4.2092,-4.2092,-4.2092,-4.2092,-4.2092,-4.2092,-4.2092,-4.2092,-4.2092,-4.2092,-4.2092,-4.2092,-4.2092,-4.2092,-4.2092,-4.2092,-4.2092,-4.2092,-4.2133,-4.2242,-4.2392,-4.2622,-4.2809,-4.2915,-4.2955,-4.313,-4.321,-4.321,-4.325,-4.3305,-4.3305,-4.3305,-4.3305,-4.3305,-4.3305,-4.3305,-4.3305,-4.3305,-4.3305,-4.3305,-4.3305,-4.3305,-4.3305,-4.3305,-4.3305,-4.3305,-4.3305,-4.3305,-4.3305,-4.3305,-4.3305,-4.3305,-4.3305,-4.3305,-4.3305,-4.3305,-4.3319,-4.3305,-4.3305,-4.3305,-4.3305,-4.3305,-4.3305,-4.3305,-4.3305,-4.3305,-4.3305,-4.3305,-4.3305,-4.3305,-4.3305,-4.3305,-4.3305,-4.3305,-4.3305,-4.3349,-4.3678,-4.4157,-4.4676,-4.5214,-4.5858,-4.5963,-4.6112,-4.6112,-4.5693,-4.5379,-4.5304,-4.5289,-4.5289,-4.511,-4.4975,-4.4855,-4.4796,-4.4781,-4.4451,-4.4223,-4.3822,-4.3732,-4.4105,-4.4871,-4.5773,-4.6655,-4.7605,-4.8001,-4.8001,-4.8001,-4.8001,-4.8001,-4.8001,-4.8066,-4.8179,-4.2769,-4.2392,-4.2392,-4.2284,-4.2092,-4.2092,-4.2092,-4.2092,-4.2092,-4.2092,-4.2092,-4.2092,-4.2092,-4.2092,-4.2092,-4.2092,-4.2133,-4.216,-4.2201,-4.2201,-4.2201,-4.2201,-4.2242,-4.25,-4.2688,-4.2795,-4.301,-4.3115,-4.3115,-4.325,-4.3305,-4.3305,-4.3305,-4.3305,-4.3305,-4.3305,-4.3305,-4.3305,-4.3305,-4.3305,-4.3305,-4.3305,-4.3305,-4.3305,-4.3305,-4.3305,-4.3305,-4.3305,-4.3305,-4.3305,-4.3305,-4.3305,-4.3305,-4.3305,-4.3305,-4.3334,-4.3499,-4.3574,-4.3379,-4.3529,-4.3514,-4.3364,-4.3305,-4.3305,-4.3305,-4.3305,-4.3305,-4.3305,-4.3305,-4.3305,-4.3305,-4.3305,-4.3305,-4.3305,-4.3305,-4.3305,-4.3305,-4.3305,-4.3305,-4.3379,-4.3633,-4.4018,-4.4481,-4.4855,-4.5544,-4.5349,-4.5439,-4.5499,-4.499,-4.4691,-4.4646,-4.4586,-4.4407,-4.4347,-4.4481,-4.4407,-4.4317,-4.4272,-4.4182,-4.4172,-4.4031,-4.4151,-4.4472,-4.5629,-4.6604,-4.7118,-4.8001,-4.8001,-4.8001,-4.8001,-4.8001,-4.8001,-4.8001,-4.8001,-4.8099,-4.2754,-4.2433,-4.2392,-4.2284,-4.2133,-4.2092,-4.2092,-4.2092,-4.2092,-4.2092,-4.2092,-4.2092,-4.2092,-4.2133,-4.2133,-4.2175,-4.2175,-4.231,-4.2433,-4.2433,-4.2433,-4.2474,-4.2514,-4.2809,-4.2955,-4.3036,-4.3195,-4.329,-4.3265,-4.329,-4.3305,-4.3305,-4.3305,-4.3305,-4.3305,-4.3305,-4.3305,-4.3305,-4.3305,-4.3305,-4.3305,-4.3305,-4.3305,-4.3305,-4.3305,-4.3305,-4.3305,-4.3305,-4.3305,-4.3305,-4.3305,-4.3305,-4.3305,-4.3319,-4.3424,-4.3469,-4.3977,-4.4032,-4.3723,-4.4077,-4.4067,-4.3529,-4.3559,-4.3334,-4.3349,-4.3409,-4.3424,-4.3319,-4.3305,-4.3305,-4.3305,-4.3409,-4.3409,-4.3379,-4.3364,-4.3319,-4.3305,-4.3349,-4.3409,-4.3349,-4.3349,-4.3574,-4.4257,-4.4436,-4.4706,-4.493,-4.4781,-4.4556,-4.4227,-4.3943,-4.3469,-4.3469,-4.3678,-4.3723,-4.3943,-4.3928,-4.3898,-4.4208,-4.4178,-4.4291,-4.4527,-4.4783,-4.5337,-4.6429,-4.7152,-4.7671,-4.7968,-4.8001,-4.8001,-4.8001,-4.8001,-4.8001,-4.8001,-4.8001,-4.8099,-4.2835,-4.2622,-4.2474,-4.2366,-4.2325,-4.2175,-4.2092,-4.2092,-4.2092,-4.2133,-4.2092,-4.2092,-4.2201,-4.2325,-4.2325,-4.2407,-4.2514,-4.2581,-4.2607,-4.2648,-4.2769,-4.2835,-4.285,-4.2955,-4.3076,-4.321,-4.325,-4.3305,-4.3305,-4.3305,-4.3305,-4.3305,-4.3305,-4.3305,-4.3305,-4.3319,-4.3305,-4.3305,-4.3305,-4.3305,-4.3305,-4.3305,-4.3305,-4.3305,-4.3305,-4.3305,-4.3305,-4.3305,-4.3305,-4.3305,-4.3305,-4.3305,-4.3334,-4.3708,-4.3962,-4.4052,-4.4631,-4.4975,-4.484,-4.493,-4.4721,-4.4212,-4.4421,-4.4347,-4.3379,-4.3753,-4.3723,-4.3469,-4.3305,-4.3319,-4.3394,-4.3738,-4.4003,-4.3988,-4.3693,-4.3394,-4.3424,-4.3723,-4.3858,-4.3454,-4.3768,-4.4137,-4.4302,-4.4392,-4.4436,-4.4556,-4.4451,-4.4137,-4.3753,-4.3559,-4.3305,-4.3305,-4.3409,-4.3364,-4.3364,-4.3364,-4.3569,-4.4138,-4.4361,-4.4534,-4.4986,-4.5536,-4.6429,-4.7521,-4.7521,-4.7935,-4.8001,-4.8001,-4.8001,-4.8001,-4.8001,-4.8001,-4.8001,-4.8001,-4.8147,-4.297,-4.2688,-4.2662,-4.2607,-4.2514,-4.2407,-4.2366,-4.2366,-4.2351,-4.2351,-4.2351,-4.2366,-4.2433,-4.25,-4.25,-4.2581,-4.2673,-4.2809,-4.285,-4.289,-4.305,-4.313,-4.3115,-4.3115,-4.321,-4.3305,-4.3305,-4.3305,-4.3305,-4.3305,-4.3305,-4.3305,-4.3305,-4.3439,-4.3723,-4.3409,-4.3454,-4.3604,-4.3469,-4.3305,-4.3305,-4.3305,-4.3305,-4.3305,-4.3305,-4.3305,-4.3305,-4.3305,-4.3305,-4.3305,-4.3305,-4.3305,-4.3349,-4.3902,-4.4317,-4.4362,-4.5185,-4.5618,-4.5409,-4.5544,-4.5409,-4.493,-4.5125,-4.4721,-4.4022,-4.4082,-4.4007,-4.3409,-4.3529,-4.3678,-4.3813,-4.4332,-4.4661,-4.4691,-4.4392,-4.4047,-4.3753,-4.4037,-4.4231,-4.4216,-4.4466,-4.4736,-4.4721,-4.4721,-4.4556,-4.4421,-4.4377,-4.3917,-4.3499,-4.3379,-4.3334,-4.3394,-4.3334,-4.3305,-4.3469,-4.3529,-4.3978,-4.4489,-4.5078,-4.5175,-4.5792,-4.6458,-4.7084,-4.782,-4.7935,-4.8001,-4.8001,-4.8001,-4.8001,-4.8001,-4.8001,-4.8001,-4.8001,-4.8066,-4.8212,-4.309,-4.2784,-4.297,-4.2875,-4.2729,-4.2729,-4.2662,-4.2688,-4.2662,-4.2648,-4.2648,-4.2688,-4.2688,-4.2729,-4.2729,-4.2729,-4.2795,-4.2955,-4.3036,-4.3076,-4.3195,-4.3265,-4.325,-4.325,-4.3305,-4.3305,-4.3305,-4.3305,-4.3305,-4.3305,-4.3305,-4.3349,-4.3379,-4.3633,-4.3943,-4.3708,-4.3843,-4.4092,-4.3943,-4.3753,-4.3693,-4.3618,-4.3529,-4.3499,-4.3334,-4.3305,-4.3305,-4.3305,-4.3305,-4.3305,-4.3305,-4.3305,-4.3379,-4.3932,-4.4407,-4.4736,-4.5633,-4.6172,-4.5768,-4.6157,-4.6142,-4.5589,-4.5499,-4.5155,-4.4676,-4.4601,-4.4481,-4.3798,-4.4052,-4.4421,-4.462,-4.505,-4.5244,-4.5304,-4.5319,-4.4975,-4.4676,-4.4526,-4.4736,-4.5214,-4.5289,-4.5409,-4.5379,-4.5244,-4.5035,-4.5035,-4.4766,-4.4227,-4.3873,-4.3798,-4.3693,-4.3589,-4.3469,-4.3305,-4.3544,-4.3838,-4.4444,-4.5065,-4.5835,-4.6297,-4.6956,-4.7464,-4.772,-4.8001,-4.8001,-4.8001,-4.8001,-4.8001,-4.8001,-4.8001,-4.8001,-4.8001,-4.8001,-4.8115,-4.8227,-4.325,-4.317,-4.3076,-4.2996,-4.2915,-4.2769,-4.2688,-4.2688,-4.2688,-4.2743,-4.2688,-4.2688,-4.2795,-4.29,-4.2955,-4.2996,-4.313,-4.321,-4.325,-4.3235,-4.325,-4.3305,-4.3319,-4.3349,-4.3319,-4.3305,-4.3305,-4.3305,-4.3305,-4.3305,-4.3305,-4.3349,-4.3738,-4.3873,-4.3718,-4.4392,-4.4601,-4.4466,-4.4586,-4.4676,-4.4571,-4.4242,-4.4047,-4.3962,-4.3544,-4.3319,-4.3305,-4.3305,-4.3305,-4.3305,-4.3334,-4.3379,-4.3559,-4.4436,-4.499,-4.5364,-4.6292,-4.698,-4.6905,-4.6875,-4.6815,-4.6247,-4.6426,-4.6367,-4.5259,-4.5559,-4.5469,-4.505,-4.5035,-4.5304,-4.5738,-4.5484,-4.5663,-4.5903,-4.5708,-4.5544,-4.5783,-4.5843,-4.5678,-4.5574,-4.5828,-4.6112,-4.6052,-4.5214,-4.517,-4.5514,-4.5244,-4.4646,-4.4377,-4.4212,-4.3973,-4.3708,-4.3484,-4.3319,-4.3469,-4.4018,-4.5016,-4.5675,-4.645,-4.72,-4.7869,-4.7951,-4.8001,-4.8001,-4.8001,-4.8001,-4.8001,-4.8001,-4.8001,-4.8001,-4.8001,-4.8001,-4.8049,-4.813,-4.8292,-4.3305,-4.329,-4.321,-4.3115,-4.3115,-4.3036,-4.2985,-4.297,-4.297,-4.297,-4.297,-4.297,-4.305,-4.3155,-4.3155,-4.321,-4.3305,-4.3305,-4.3305,-4.329,-4.3319,-4.3469,-4.3738,-4.3708,-4.3673,-4.3394,-4.3305,-4.3305,-4.3305,-4.3334,-4.3305,-4.3349,-4.4018,-4.4332,-4.4182,-4.4721,-4.4781,-4.4691,-4.4451,-4.4496,-4.4691,-4.4526,-4.4317,-4.4197,-4.3663,-4.3305,-4.3305,-4.3305,-4.3305,-4.3379,-4.3589,-4.3768,-4.3888,-4.4721,-4.5364,-4.5918,-4.6666,-4.7279,-4.7294,-4.7294,-4.713,-4.6815,-4.7145,-4.6681,-4.6112,-4.6115,-4.5948,-4.5574,-4.5603,-4.6052,-4.6666,-4.6546,-4.6501,-4.6591,-4.6456,-4.6411,-4.6651,-4.6488,-4.6339,-4.6262,-4.6591,-4.6726,-4.6426,-4.5678,-4.5618,-4.6097,-4.5948,-4.5334,-4.4407,-4.4227,-4.3932,-4.3693,-4.3439,-4.3334,-4.3439,-4.4208,-4.5593,-4.6322,-4.6975,-4.7746,-4.8473,-4.8299,-4.8017,-4.8001,-4.8001,-4.8001,-4.8001,-4.8001,-4.8001,-4.8001,-4.8001,-4.8033,-4.8115,-4.826,-4.842,-4.3305,-4.329,-4.317,-4.317,-4.325,-4.2955,-4.2955,-4.329,-4.313,-4.2955,-4.313,-4.321,-4.317,-4.313,-4.325,-4.329,-4.3305,-4.3319,-4.3334,-4.3544,-4.3544,-4.3902,-4.4332,-4.4407,-4.4257,-4.3618,-4.3738,-4.3738,-4.3723,-4.3604,-4.3843,-4.3783,-4.4306,-4.4825,-4.508,-4.5095,-4.5065,-4.511,-4.4825,-4.453,-4.4769,-4.4781,-4.4706,-4.4212,-4.3858,-4.3439,-4.3394,-4.3424,-4.3484,-4.3484,-4.4067,-4.4466,-4.4766,-4.511,-4.5648,-4.6264,-4.692,-4.7249,-4.7309,-4.7309,-4.7294,-4.7309,-4.7309,-4.707,-4.6593,-4.6459,-4.6307,-4.6142,-4.6187,-4.6666,-4.7219,-4.713,-4.7174,-4.7249,-4.7279,-4.7309,-4.7219,-4.68,-4.6815,-4.7055,-4.707,-4.7085,-4.698,-4.6531,-4.6576,-4.6546,-4.6352,-4.6007,-4.511,-4.4421,-4.4287,-4.3902,-4.3678,-4.3917,-4.4052,-4.447,-4.583,-4.7247,-4.7842,-4.8239,-4.8823,-4.8398,-4.81,-4.8017,-4.8001,-4.8001,-4.8001,-4.8001,-4.8001,-4.8001,-4.8001,-4.8017,-4.8179,-4.8356,-4.8564,-4.3305,-4.325,-4.2522,-4.2618,-4.2996,-4.1699,-4.1961,-4.3036,-4.2441,-4.2211,-4.2293,-4.2915,-4.2739,-4.2537,-4.3036,-4.325,-4.3036,-4.3165,-4.3523,-4.3922,-4.4082,-4.4511,-4.5035,-4.5125,-4.505,-4.502,-4.496,-4.496,-4.484,-4.496,-4.4736,-4.502,-4.5544,-4.5783,-4.5723,-4.6097,-4.5992,-4.5603,-4.5738,-4.5933,-4.5813,-4.5738,-4.5364,-4.4616,-4.4246,-4.3913,-4.3574,-4.3843,-4.4152,-4.4227,-4.4781,-4.5349,-4.5738,-4.595,-4.613,-4.6471,-4.6965,-4.7309,-4.7309,-4.7309,-4.7309,-4.7309,-4.7309,-4.7309,-4.713,-4.71,-4.6905,-4.6935,-4.692,-4.7174,-4.7279,-4.7309,-4.7309,-4.7309,-4.7309,-4.7309,-4.7279,-4.7189,-4.7085,-4.7279,-4.7309,-4.7294,-4.713,-4.695,-4.6785,-4.6636,-4.6471,-4.6501,-4.6187,-4.5454,-4.4945,-4.4511,-4.3992,-4.4436,-4.4855,-4.5276,-4.6198,-4.815,-4.885,-4.8693,-4.8954,-4.8448,-4.8199,-4.8084,-4.8017,-4.8001,-4.8001,-4.8001,-4.8001,-4.8001,-4.8033,-4.8049,-4.8244,-4.8452,-4.8595,-4.3036,-4.2592,-4.2155,-4.1935,-4.1755,-4.1029,-4.1071,-4.1755,-4.1449,-4.1296,-4.138,-4.1713,-4.1713,-4.1463,-4.1672,-4.192,-4.2117,-4.2893,-4.3281,-4.3688,-4.4415,-4.5185,-4.5768,-4.5828,-4.6082,-4.6247,-4.6322,-4.5888,-4.5364,-4.5259,-4.5349,-4.5424,-4.5978,-4.6142,-4.5992,-4.6352,-4.6441,-4.6022,-4.6157,-4.6381,-4.6337,-4.6294,-4.5873,-4.5499,-4.4945,-4.4481,-4.4107,-4.4481,-4.4631,-4.4511,-4.493,-4.5603,-4.6112,-4.6339,-4.6429,-4.68,-4.71,-4.7294,-4.7309,-4.7309,-4.7309,-4.7309,-4.7294,-4.7309,-4.7309,-4.7279,-4.7309,-4.7309,-4.7309,-4.7309,-4.7309,-4.7309,-4.7309,-4.7309,-4.7309,-4.7309,-4.7309,-4.7309,-4.7309,-4.7309,-4.7309,-4.7294,-4.7264,-4.707,-4.6875,-4.6726,-4.6591,-4.6711,-4.6905,-4.6232,-4.5394,-4.4601,-4.4077,-4.4479,-4.5046,-4.5636,-4.661,-4.8577,-4.9501,-4.9325,-4.9217,-4.8795,-4.8382,-4.8084,-4.8034,-4.8001,-4.8001,-4.8001,-4.8001,-4.8033,-4.8082,-4.8179,-4.8324,-4.8515,-4.8658,-4.2522,-4.1686,-4.1505,-4.1113,-4.0617,-4.0326,-4.0357,-4.0546,-4.0586,-4.0428,-4.0332,-4.056,-4.056,-4.046,-4.0701,-4.09,-4.0942,-4.2494,-4.3252,-4.3812,-4.4899,-4.5873,-4.6352,-4.6533,-4.6726,-4.701,-4.7115,-4.6756,-4.6052,-4.5873,-4.5768,-4.5978,-4.6367,-4.6531,-4.6591,-4.6638,-4.6501,-4.6202,-4.6037,-4.6037,-4.6381,-4.6474,-4.6384,-4.6279,-4.5783,-4.5185,-4.4646,-4.5155,-4.5259,-4.517,-4.5439,-4.6007,-4.6426,-4.6531,-4.677,-4.7174,-4.7189,-4.713,-4.7055,-4.683,-4.677,-4.695,-4.707,-4.716,-4.7309,-4.7309,-4.7309,-4.7309,-4.7309,-4.7309,-4.7309,-4.7309,-4.7309,-4.7309,-4.7309,-4.7309,-4.7309,-4.7309,-4.7309,-4.7309,-4.7309,-4.7294,-4.7264,-4.695,-4.6711,-4.6875,-4.6756,-4.6756,-4.6845,-4.6292,-4.5484,-4.4556,-4.4143,-4.4459,-4.5029,-4.5796,-4.7082,-4.8961,-4.9406,-4.9294,-4.9321,-4.9259,-4.873,-4.8067,-4.8034,-4.8001,-4.8001,-4.8001,-4.8033,-4.8049,-4.8147,-4.8308,-4.85,-4.8627,-4.8769,-4.1589,-4.0689,-3.9927,-3.9929,-4.0385,-3.9459,-3.9622,-4.0485,-4.0241,-3.9833,-3.9581,-4.0158,-4.0055,-3.9856,-4.0782,-4.1257,-4.1716,-4.268,-4.369,-4.4255,-4.5457,-4.6373,-4.707,-4.7189,-4.713,-4.7309,-4.7309,-4.7264,-4.689,-4.686,-4.6965,-4.698,-4.695,-4.716,-4.7055,-4.704,-4.689,-4.6474,-4.677,-4.704,-4.7115,-4.7115,-4.6845,-4.6459,-4.6232,-4.5873,-4.5379,-4.5798,-4.6052,-4.6082,-4.6606,-4.7025,-4.7174,-4.7204,-4.7204,-4.7115,-4.683,-4.6399,-4.6486,-4.6202,-4.6172,-4.6561,-4.6576,-4.6785,-4.713,-4.7309,-4.7309,-4.7309,-4.7309,-4.7309,-4.7309,-4.7309,-4.7309,-4.7309,-4.7309,-4.7309,-4.7309,-4.7309,-4.7309,-4.7309,-4.7309,-4.7309,-4.7294,-4.689,-4.6561,-4.6785,-4.695,-4.6978,-4.6941,-4.6614,-4.5693,-4.4781,-4.474,-4.5135,-4.6112,-4.6686,-4.7953,-4.9661,-4.9657,-4.9518,-4.9472,-4.9425,-4.858,-4.8084,-4.8034,-4.8033,-4.8066,-4.8066,-4.8082,-4.8147,-4.8276,-4.8468,-4.8707,-4.8818,-4.8863,-4.1171,-4.0814,-4.0409,-4.0105,-3.9976,-3.9433,-3.9487,-3.9838,-3.9533,-3.9342,-3.9408,-3.9422,-3.9476,-3.96,-4.0226,-4.0399,-4.0798,-4.2122,-4.3212,-4.4257,-4.5375,-4.6504,-4.7118,-4.7309,-4.7309,-4.7309,-4.7309,-4.7309,-4.7309,-4.7309,-4.7309,-4.7309,-4.7309,-4.7279,-4.7309,-4.7309,-4.716,-4.7025,-4.7145,-4.7294,-4.7309,-4.7279,-4.716,-4.6875,-4.6875,-4.6486,-4.6202,-4.6501,-4.6636,-4.6516,-4.6666,-4.6935,-4.7085,-4.701,-4.686,-4.7234,-4.6696,-4.6546,-4.6756,-4.6202,-4.6232,-4.6516,-4.6606,-4.6651,-4.713,-4.7309,-4.7309,-4.7309,-4.7309,-4.7309,-4.7309,-4.7309,-4.7309,-4.7309,-4.7309,-4.7309,-4.7309,-4.7309,-4.7309,-4.7309,-4.7309,-4.7309,-4.7309,-4.7115,-4.7046,-4.7392,-4.7598,-4.771,-4.7749,-4.7681,-4.6533,-4.5095,-4.5455,-4.5999,-4.727,-4.8314,-4.9383,-5.066,-5.0589,-5.0383,-4.9887,-4.9475,-4.858,-4.8116,-4.8099,-4.8082,-4.8115,-4.8147,-4.8179,-4.8276,-4.8389,-4.8612,-4.8801,-4.8894,-4.8956,-4.1052,-4.1039,-4.0743,-4.0213,-3.9625,-3.9743,-3.9703,-3.9534,-3.9189,-3.9102,-3.9181,-3.894,-3.9071,-3.956,-3.98,-4.0035,-3.9992,-4.1407,-4.2626,-4.381,-4.5055,-4.6285,-4.7019,-4.7309,-4.7309,-4.7309,-4.7309,-4.7309,-4.7309,-4.7309,-4.7309,-4.7309,-4.7309,-4.7309,-4.7309,-4.7309,-4.7249,-4.7249,-4.7264,-4.7309,-4.7309,-4.7309,-4.7309,-4.7279,-4.7249,-4.707,-4.6741,-4.6965,-4.6965,-4.6756,-4.6666,-4.695,-4.7174,-4.6995,-4.6935,-4.716,-4.6845,-4.683,-4.6756,-4.6396,-4.6337,-4.6501,-4.692,-4.686,-4.7174,-4.7309,-4.7309,-4.7309,-4.7309,-4.7309,-4.7309,-4.7309,-4.7309,-4.7309,-4.7309,-4.7309,-4.7309,-4.7309,-4.7309,-4.7309,-4.7309,-4.7309,-4.7309,-4.7309,-4.7508,-4.7988,-4.8256,-4.8434,-4.8461,-4.8484,-4.7747,-4.6427,-4.6496,-4.7014,-4.7766,-4.9155,-5.0554,-5.1257,-5.1175,-5.0883,-5.022,-4.9375,-4.8498,-4.8248,-4.8164,-4.8227,-4.8276,-4.826,-4.8292,-4.8468,-4.8612,-4.8738,-4.8863,-4.894,-4.9001,-4.1293,-4.1201,-4.014,-3.976,-3.9703,-4.0161,-4.0082,-3.9782,-3.9612,-3.9285,-3.905,-3.8828,-3.9194,-3.9677,-4.0187,-4.037,-4.0445,-4.1984,-4.3019,-4.4065,-4.5298,-4.6166,-4.6829,-4.7164,-4.7309,-4.7309,-4.7309,-4.7309,-4.7309,-4.7309,-4.7309,-4.7309,-4.7309,-4.7309,-4.7309,-4.7309,-4.7309,-4.7309,-4.7309,-4.7309,-4.7309,-4.7309,-4.7309,-4.7266,-4.7309,-4.7279,-4.7191,-4.6973,-4.7003,-4.678,-4.6734,-4.7027,-4.7146,-4.716,-4.7204,-4.7189,-4.7189,-4.7115,-4.6875,-4.5963,-4.5155,-4.5618,-4.6411,-4.713,-4.7279,-4.7309,-4.7309,-4.7309,-4.7309,-4.7309,-4.7309,-4.7309,-4.7309,-4.7309,-4.7309,-4.7309,-4.7309,-4.7309,-4.7309,-4.7309,-4.7309,-4.7309,-4.751,-4.7538,-4.7709,-4.813,-4.901,-4.9237,-4.9097,-4.9063,-4.8938,-4.8278,-4.7993,-4.8048,-4.8044,-4.9286,-5.0736,-5.0944,-5.0709,-5.0516,-5.0171,-4.9276,-4.8282,-4.8264,-4.8163,-4.8292,-4.8452,-4.8483,-4.8564,-4.8707,-4.8818,-4.8863,-4.8925,-4.8987,-4.9001,-4.1311,-4.1272,-4.084,-4.0657,-4.0671,-4.0893,-4.084,-4.0605,-4.0265,-3.9991,-3.973,-3.9795,-4.0082,-4.0579,-4.0814,-4.0971,-4.1047,-4.1502,-4.2514,-4.3416,-4.4377,-4.5417,-4.6211,-4.6975,-4.7309,-4.7309,-4.7309,-4.7309,-4.7309,-4.7309,-4.7309,-4.7309,-4.7309,-4.7309,-4.7309,-4.7309,-4.7309,-4.7309,-4.7309,-4.7309,-4.7309,-4.7309,-4.7309,-4.7309,-4.655,-4.6447,-4.6182,-4.5313,-4.5622,-4.602,-4.6035,-4.6518,-4.7119,-4.7207,-4.7309,-4.7309,-4.7309,-4.7145,-4.683,-4.5992,-4.5738,-4.5948,-4.6756,-4.7309,-4.7309,-4.7309,-4.7309,-4.7309,-4.7309,-4.7309,-4.7309,-4.7309,-4.7309,-4.7309,-4.7309,-4.7309,-4.7309,-4.7309,-4.7309,-4.7309,-4.7309,-4.7309,-4.7538,-4.7807,-4.8019,-4.8297,-4.9237,-4.9978,-4.9891,-4.9889,-4.9882,-4.9869,-4.9598,-4.9609,-4.9673,-5.0347,-5.1103,-5.0799,-5.0443,-5.025,-5.0038,-4.8912,-4.8116,-4.8131,-4.826,-4.842,-4.8578,-4.8704,-4.8784,-4.8832,-4.8894,-4.8956,-4.8987,-4.9001,-4.9018,-4.1311,-4.1311,-4.1311,-4.1311,-4.1311,-4.1311,-4.1311,-4.1206,-4.0644,-4.0409,-4.0409,-4.0435,-4.0749,-4.118,-4.1298,-4.1285,-4.1259,-4.1448,-4.2003,-4.2889,-4.3923,-4.4808,-4.5838,-4.6682,-4.7309,-4.7309,-4.7309,-4.7309,-4.7309,-4.7309,-4.7309,-4.7309,-4.7309,-4.7309,-4.7309,-4.7309,-4.7309,-4.7309,-4.7309,-4.7062,-4.6916,-4.6829,-4.6506,-4.6329,-4.5613,-4.5417,-4.5164,-4.4616,-4.4527,-4.5082,-4.5473,-4.5859,-4.652,-4.7106,-4.7266,-4.7309,-4.7249,-4.7055,-4.6726,-4.6354,-4.6337,-4.6294,-4.6875,-4.7234,-4.7309,-4.7309,-4.7309,-4.7309,-4.7309,-4.7309,-4.7309,-4.7309,-4.7309,-4.7309,-4.7309,-4.7309,-4.7309,-4.7309,-4.7309,-4.7309,-4.7309,-4.7309,-4.7624,-4.8003,-4.8846,-4.9172,-4.9955,-5.0707,-5.0941,-5.0968,-5.1117,-5.1127,-5.1062,-5.1238,-5.148,-5.1609,-5.1663,-5.1451,-5.101,-5.035,-4.9823,-4.873,-4.8181,-4.8276,-4.842,-4.8578,-4.8704,-4.8829,-4.8877,-4.8863,-4.8925,-4.8987,-4.9018,-4.9018,-4.9018,-4.1311,-4.1311,-4.1311,-4.1311,-4.1311,-4.1311,-4.1311,-4.1232,-4.0634,-4.0448,-4.0488,-4.0474,-4.0749,-4.1206,-4.1311,-4.1311,-4.1311,-4.1311,-4.172,-4.266,-4.3796,-4.4808,-4.5748,-4.6594,-4.7309,-4.7309,-4.7309,-4.7309,-4.7309,-4.7309,-4.7309,-4.7207,-4.7164,-4.7164,-4.7266,-4.7309,-4.7309,-4.7309,-4.7309,-4.6814,-4.6196,-4.6062,-4.5658,-4.4961,-4.4485,-4.4345,-4.4195,-4.3673,-4.3659,-4.4186,-4.4733,-4.5187,-4.575,-4.6682,-4.7019,-4.7106,-4.7251,-4.7279,-4.7219,-4.6681,-4.6444,-4.6474,-4.707,-4.7279,-4.7309,-4.7309,-4.7309,-4.7309,-4.7309,-4.7309,-4.7309,-4.7309,-4.7309,-4.7309,-4.7309,-4.7309,-4.7309,-4.7309,-4.7309,-4.7309,-4.7309,-4.7352,-4.7651,-4.8214,-4.9454,-5.0206,-5.0821,-5.1252,-5.1529,-5.1782,-5.1855,-5.1855,-5.1818,-5.1908,-5.198,-5.2178,-5.2208,-5.1993,-5.1446,-5.0601,-4.9824,-4.8945,-4.856,-4.852,-4.8564,-4.869,-4.8815,-4.897,-4.8956,-4.8956,-4.8987,-4.9018,-4.9001,-4.9018,-4.9018,-4.1311,-4.1311,-4.1311,-4.1311,-4.1311,-4.1311,-4.1311,-4.1206,-4.0736,-4.0631,-4.0867,-4.0631,-4.0749,-4.1154,-4.1311,-4.1311,-4.1311,-4.1311,-4.1683,-4.1967,-4.343,-4.4266,-4.519,-4.6314,-4.7207,-4.7294,-4.7309,-4.7309,-4.7309,-4.7207,-4.7266,-4.7222,-4.6594,-4.6741,-4.7121,-4.7309,-4.7309,-4.7309,-4.7207,-4.6814,-4.5928,-4.5674,-4.5221,-4.4219,-4.3592,-4.3321,-4.3245,-4.263,-4.2507,-4.3115,-4.37,-4.3929,-4.4723,-4.5748,-4.6255,-4.6491,-4.6741,-4.7309,-4.7294,-4.7055,-4.701,-4.7055,-4.7115,-4.7309,-4.7309,-4.7309,-4.7309,-4.7309,-4.7309,-4.7309,-4.7309,-4.7309,-4.7309,-4.7309,-4.7309,-4.7309,-4.7309,-4.7309,-4.7309,-4.7309,-4.7309,-4.7651,-4.7961,-4.8558,-4.9678,-5.0477,-5.1027,-5.1231,-5.1434,-5.198,-5.2214,-5.225,-5.225,-5.2302,-5.2409,-5.2409,-5.2409,-5.2243,-5.1448,-5.0453,-4.9675,-4.9161,-4.8808,-4.8684,-4.8711,-4.8801,-4.8894,-4.897,-4.9001,-4.9001,-4.9018,-4.9018,-4.9018,-4.9018,-4.9018,-4.1311,-4.1311,-4.1311,-4.1311,-4.1311,-4.1311,-4.1311,-4.1246,-4.0906,-4.0958,-4.1154,-4.088,-4.0919,-4.1232,-4.1311,-4.1311,-4.1311,-4.1311,-4.1311,-4.156,-4.295,-4.3606,-4.4392,-4.5703,-4.6491,-4.6814,-4.7106,-4.7193,-4.6682,-4.6741,-4.6462,-4.5987,-4.5658,-4.5613,-4.6002,-4.6091,-4.6091,-4.6047,-4.5898,-4.5568,-4.4854,-4.447,-4.4158,-4.3273,-4.2612,-4.2284,-4.1981,-4.159,-4.115,-4.1959,-4.2403,-4.261,-4.3765,-4.4624,-4.5175,-4.5568,-4.6166,-4.6638,-4.6726,-4.7193,-4.7161,-4.7264,-4.7309,-4.7309,-4.7309,-4.7309,-4.7309,-4.7309,-4.7309,-4.7309,-4.7309,-4.7309,-4.7309,-4.7309,-4.7309,-4.7309,-4.7309,-4.7309,-4.7309,-4.7309,-4.7424,-4.7807,-4.824,-4.9116,-4.99,-5.0538,-5.114,-5.1306,-5.1471,-5.198,-5.2409,-5.2409,-5.2409,-5.2409,-5.2409,-5.2409,-5.2409,-5.2409,-5.1564,-5.0587,-5.0308,-4.9893,-4.9357,-4.8865,-4.8921,-4.8962,-4.8911,-4.8956,-4.8987,-4.9018,-4.9018,-4.9018,-4.9018,-4.9018,-4.9018,-4.1311,-4.1311,-4.1311,-4.1311,-4.1311,-4.1311,-4.1311,-4.1311,-4.1298,-4.1285,-4.1298,-4.1272,-4.1272,-4.1285,-4.1311,-4.1311,-4.1311,-4.1311,-4.1311,-4.1584,-4.2563,-4.284,-4.3545,-4.4794,-4.5553,-4.6062,-4.6314,-4.6225,-4.5793,-4.5748,-4.5281,-4.4684,-4.4438,-4.4438,-4.4452,-4.4312,-4.4438,-4.473,-4.4869,-4.4345,-4.3673,-4.3211,-4.2757,-4.2101,-4.1634,-4.1534,-4.1458,-4.1319,-4.1269,-4.1657,-4.2146,-4.2536,-4.3081,-4.3687,-4.4078,-4.4591,-4.5358,-4.5838,-4.6107,-4.677,-4.7207,-4.7309,-4.7309,-4.7309,-4.7309,-4.7309,-4.7309,-4.7309,-4.7309,-4.7309,-4.7309,-4.7309,-4.7309,-4.7309,-4.7309,-4.7309,-4.7309,-4.7309,-4.7309,-4.7352,-4.751,-4.7779,-4.8145,-4.8887,-5.0267,-5.0691,-5.1306,-5.1855,-5.2017,-5.2053,-5.2409,-5.2409,-5.2409,-5.2409,-5.2409,-5.2409,-5.2409,-5.2409,-5.1829,-5.1002,-5.0808,-5.0476,-4.9788,-4.9312,-4.9164,-4.9089,-4.899,-4.8987,-4.9018,-4.9018,-4.9018,-4.9018,-4.9018,-4.9018,-4.9032,-4.1311,-4.1311,-4.1311,-4.1311,-4.1311,-4.1311,-4.1311,-4.1311,-4.1311,-4.1311,-4.1311,-4.1311,-4.1311,-4.1311,-4.1311,-4.1311,-4.1311,-4.1311,-4.1311,-4.1634,-4.2186,-4.2612,-4.3211,-4.4017,-4.4577,-4.4823,-4.5007,-4.5204,-4.4823,-4.4716,-4.4624,-4.4359,-4.3511,-4.3321,-4.2985,-4.2563,-4.3225,-4.3796,-4.3984,-4.3464,-4.2937,-4.266,-4.2052,-4.1547,-4.1311,-4.1311,-4.1311,-4.1311,-4.1311,-4.1448,-4.1584,-4.1733,-4.1832,-4.266,-4.3402,-4.4359,-4.519,-4.5824,-4.5958,-4.6726,-4.7309,-4.7309,-4.7309,-4.7309,-4.7309,-4.7309,-4.7309,-4.7309,-4.7309,-4.7309,-4.7309,-4.7309,-4.7309,-4.7309,-4.7309,-4.7309,-4.7309,-4.7309,-4.7309,-4.7381,-4.7538,-4.8019,-4.8297,-4.9534,-5.0745,-5.1027,-5.1455,-5.2053,-5.2409,-5.2409,-5.2409,-5.2409,-5.2409,-5.2409,-5.2409,-5.2409,-5.2409,-5.231,-5.1829,-5.1519,-5.136,-5.0944,-5.0187,-4.9725,-4.948,-4.9255,-4.9018,-4.9018,-4.9018,-4.9018,-4.9018,-4.9018,-4.9018,-4.9018,-4.9094,-4.1455,-4.1638,-4.1651,-4.1651,-4.1611,-4.1402,-4.1311,-4.1311,-4.1311,-4.1311,-4.1311,-4.1311,-4.1311,-4.1311,-4.1311,-4.1311,-4.1311,-4.1311,-4.1311,-4.1448,-4.1967,-4.2052,-4.2514,-4.3177,-4.3592,-4.3782,-4.3984,-4.4266,-4.3796,-4.3239,-4.3047,-4.2964,-4.2382,-4.2284,-4.2052,-4.1832,-4.2065,-4.2625,-4.2964,-4.2709,-4.2479,-4.2235,-4.1782,-4.1448,-4.1311,-4.1311,-4.1311,-4.1311,-4.1311,-4.1311,-4.1311,-4.1311,-4.1361,-4.1967,-4.2284,-4.3191,-4.4345,-4.49,-4.5326,-4.655,-4.7077,-4.7309,-4.7309,-4.7309,-4.7309,-4.7309,-4.7309,-4.7309,-4.7309,-4.7309,-4.7309,-4.7309,-4.7309,-4.7309,-4.7309,-4.7309,-4.7309,-4.7309,-4.7352,-4.7467,-4.7822,-4.8324,-4.9157,-5.04,-5.1156,-5.1268,-5.1582,-5.2142,-5.2409,-5.2409,-5.2409,-5.2409,-5.2409,-5.2409,-5.2409,-5.2409,-5.2409,-5.2393,-5.221,-5.1953,-5.188,-5.148,-5.0808,-5.0214,-4.9763,-4.9475,-4.9204,-4.9052,-4.9018,-4.9018,-4.9018,-4.9018,-4.9018,-4.9018,-4.9138,-4.1611,-4.2056,-4.2198,-4.2211,-4.2198,-4.1664,-4.1415,-4.1376,-4.135,-4.1311,-4.1311,-4.1311,-4.1311,-4.1311,-4.1311,-4.1311,-4.1311,-4.1311,-4.1311,-4.1311,-4.1448,-4.1547,-4.1782,-4.2199,-4.2612,-4.2985,-4.3225,-4.3191,-4.2563,-4.215,-4.1832,-4.1324,-4.1411,-4.1498,-4.1498,-4.1411,-4.1547,-4.1733,-4.1832,-4.1683,-4.1547,-4.1361,-4.1311,-4.1311,-4.1311,-4.1311,-4.1311,-4.1311,-4.1311,-4.1311,-4.1311,-4.1311,-4.1361,-4.1411,-4.1498,-4.2248,-4.3654,-4.4485,-4.5235,-4.6403,-4.7077,-4.7309,-4.7309,-4.7309,-4.7309,-4.7309,-4.7309,-4.7309,-4.7309,-4.7309,-4.7309,-4.7309,-4.7309,-4.7309,-4.7309,-4.7309,-4.7309,-4.7309,-4.7352,-4.751,-4.7992,-4.8532,-4.9237,-5.0384,-5.1343,-5.1434,-5.1745,-5.2302,-5.2409,-5.2409,-5.2409,-5.2409,-5.2409,-5.2409,-5.2409,-5.2409,-5.2409,-5.2376,-5.2326,-5.2454,-5.2416,-5.1967,-5.1446,-5.0802,-5.0135,-4.9729,-4.9441,-4.9238,-4.9069,-4.9018,-4.9018,-4.9018,-4.9001,-4.9063,-4.9303,-4.1389,-4.1559,-4.199,-4.2396,-4.2709,-4.2213,-4.1951,-4.1925,-4.1494,-4.1324,-4.1311,-4.1311,-4.1311,-4.1311,-4.1311,-4.1311,-4.1311,-4.1311,-4.1311,-4.1311,-4.1311,-4.1311,-4.1311,-4.1634,-4.1782,-4.1733,-4.1868,-4.2115,-4.1769,-4.1448,-4.1311,-4.1311,-4.1311,-4.1311,-4.1311,-4.1311,-4.1311,-4.1311,-4.1311,-4.1311,-4.1311,-4.1311,-4.1311,-4.1311,-4.1311,-4.1311,-4.1311,-4.1311,-4.1311,-4.1311,-4.1311,-4.1311,-4.1311,-4.1311,-4.1683,-4.2466,-4.3511,-4.4438,-4.5326,-4.6358,-4.7121,-4.7309,-4.7309,-4.7309,-4.7309,-4.7309,-4.7309,-4.7309,-4.7309,-4.7309,-4.7309,-4.7309,-4.7309,-4.7309,-4.7309,-4.7309,-4.7309,-4.7309,-4.7309,-4.7752,-4.8229,-4.8846,-4.9543,-5.0345,-5.1215,-5.1782,-5.2106,-5.239,-5.2409,-5.2409,-5.2409,-5.2409,-5.2409,-5.2409,-5.2409,-5.2409,-5.2409,-5.2445,-5.2447,-5.2659,-5.2885,-5.2521,-5.2033,-5.1205,-5.0541,-5.0202,-4.9796,-4.9323,-4.9171,-4.9069,-4.9018,-4.9018,-4.9138,-4.9229,-4.9526,-4.1468,-4.1742,-4.2317,-4.2879,-4.3232,-4.2788,-4.2409,-4.2121,-4.1821,-4.1546,-4.1337,-4.1311,-4.1311,-4.1311,-4.1311,-4.1311,-4.1311,-4.1311,-4.1311,-4.1311,-4.1311,-4.1311,-4.1311,-4.1311,-4.1361,-4.1311,-4.1311,-4.1361,-4.1311,-4.1311,-4.1311,-4.1311,-4.1311,-4.1311,-4.1311,-4.1311,-4.1311,-4.1311,-4.1311,-4.1311,-4.1311,-4.1311,-4.1311,-4.1311,-4.1311,-4.1311,-4.1311,-4.1311,-4.1311,-4.1311,-4.1311,-4.1311,-4.1311,-4.1311,-4.1534,-4.2297,-4.3334,-4.4531,-4.5372,-4.6358,-4.7222,-4.7309,-4.7309,-4.7309,-4.7309,-4.7309,-4.7309,-4.7309,-4.7309,-4.7309,-4.7309,-4.7309,-4.7309,-4.7309,-4.7309,-4.7309,-4.7309,-4.7309,-4.7624,-4.8172,-4.8764,-4.9599,-5.029,-5.1177,-5.1891,-5.2053,-5.2373,-5.239,-5.2409,-5.2409,-5.2409,-5.2409,-5.2409,-5.2409,-5.2409,-5.2409,-5.2445,-5.248,-5.257,-5.2781,-5.299,-5.2927,-5.2604,-5.1877,-5.1251,-5.0811,-5.0355,-4.9746,-4.9255,-4.9086,-4.9035,-4.9018,-4.9168,-4.9364,-4.9698,-4.169,-4.2317,-4.2801,-4.3402,-4.3846,-4.3376,-4.2879,-4.2448,-4.2277,-4.1886,-4.1481,-4.1376,-4.1324,-4.1311,-4.1311,-4.1311,-4.1311,-4.1311,-4.1311,-4.1311,-4.1311,-4.1311,-4.1311,-4.1311,-4.1311,-4.1311,-4.1311,-4.1311,-4.1311,-4.1311,-4.1311,-4.1311,-4.1311,-4.1311,-4.1311,-4.1311,-4.1311,-4.1311,-4.1311,-4.1311,-4.1311,-4.1311,-4.1311,-4.1311,-4.1311,-4.1311,-4.1311,-4.1311,-4.1311,-4.1311,-4.1311,-4.1311,-4.1311,-4.1311,-4.1547,-4.2213,-4.3416,-4.4298,-4.5052,-4.6358,-4.6975,-4.7309,-4.7309,-4.7309,-4.7309,-4.7309,-4.7309,-4.7309,-4.7309,-4.7309,-4.7309,-4.7309,-4.7309,-4.7352,-4.7352,-4.7467,-4.751,-4.7538,-4.8061,-4.8641,-4.9343,-5.0174,-5.0973,-5.1818,-5.2142,-5.2302,-5.2409,-5.2409,-5.2409,-5.2409,-5.2409,-5.2409,-5.2409,-5.2409,-5.2445,-5.2445,-5.2464,-5.264,-5.2764,-5.2938,-5.3076,-5.3129,-5.3027,-5.2689,-5.2097,-5.1437,-5.0777,-5.0152,-4.9695,-4.912,-4.9035,-4.9032,-4.9124,-4.9364,-4.9797,-4.1925,-4.2866,-4.2997,-4.3598,-4.4369,-4.3951,-4.369,-4.3441,-4.2591,-4.2133,-4.1886,-4.1494,-4.1311,-4.1311,-4.1311,-4.1311,-4.1311,-4.1311,-4.1311,-4.1311,-4.1311,-4.1311,-4.1311,-4.1311,-4.1311,-4.1311,-4.1311,-4.1311,-4.1311,-4.1311,-4.1311,-4.1311,-4.1311,-4.1311,-4.1311,-4.1311,-4.1311,-4.1311,-4.1311,-4.1311,-4.1311,-4.1311,-4.1311,-4.1311,-4.1311,-4.1311,-4.1311,-4.1311,-4.1311,-4.1311,-4.1311,-4.1311,-4.1311,-4.1361,-4.1597,-4.2199,-4.3464,-4.4392,-4.5326,-4.6491,-4.7106,-4.7309,-4.7309,-4.7309,-4.7309,-4.7309,-4.7309,-4.7309,-4.7309,-4.7309,-4.7309,-4.7309,-4.7309,-4.7424,-4.7467,-4.7934,-4.8172,-4.8366,-4.8723,-4.9237,-4.9781,-5.0461,-5.1118,-5.1709,-5.1908,-5.2106,-5.2409,-5.2409,-5.2409,-5.2409,-5.2409,-5.2409,-5.2409,-5.248,-5.2535,-5.2535,-5.2605,-5.2764,-5.2972,-5.3161,-5.3314,-5.3399,-5.3281,-5.301,-5.2503,-5.186,-5.12,-5.0422,-4.9746,-4.9221,-4.9069,-4.9032,-4.9155,-4.9436,-4.9942]},{"header":{"parameterUnit":"m.s-1","parameterCategory":1,"la1":31.0,"la2":29.5877,"lo1":-88.7671,"lo2":-86.6584,"dy":0.0162,"dx":0.0185,"nx":115,"ny":88,"refTime":"2025-03-27T12:00:00:Z","depth":0,"parameterNumber":3,"parameterNumberName":"V-component_of_WINDS"},"data":[0.0,0.0,0.0,0.0,0.0,0.0,0.0,0.0,0.0,0.0,0.0,0.0,0.0,0.0,0.0,0.0,0.0,0.0,0.0,0.0,0.0,0.0,0.0,0.0,0.0,0.0,0.0,0.0,0.0,0.0,0.0,0.0,0.0,0.0,0.0,0.0,0.0,0.0,0.0,0.0,0.0,0.0,0.0,0.0,0.0,0.0,0.0,0.0,0.0,0.0,0.0,0.0,0.0,0.0,0.0,0.0,0.0,0.0,0.0,0.0,0.0,0.0,0.0,0.0,0.0,0.0,0.0,0.0,0.0,0.0,0.0,0.0,0.0,0.0,0.0,0.0,0.0,0.0,0.0,0.0,0.0,0.0,0.0,0.0,0.0,0.0,0.0,0.0,0.0,0.0,0.0,0.0,0.0,0.0,0.0,0.0,0.0,0.0,0.0,0.0,0.0,0.0,0.0,0.0,0.0,0.0,0.0,0.0,0.0,0.0,0.0,0.0,0.0,0.0,0.0,0.0,0.0,0.0,0.0,0.0,0.0,0.0,0.0,0.0,0.0,0.0,0.0,0.0,0.0,0.0,0.0,0.0,0.0,0.0,0.0,0.0,0.0,0.0,0.0,0.0,0.0,0.0,0.0,0.0,0.0,0.0,0.0,0.0,0.0,0.0,0.0,0.0,0.0,0.0,0.0,0.0,0.0,0.0,0.0,0.0,0.0,0.0,0.0,0.0,0.0,0.0,0.0,0.0,0.0,0.0,0.0,0.0,0.0,0.0,0.0,0.0,0.0,0.0,0.0,0.0,0.0,0.0,0.0,0.0,0.0,0.0,0.0,0.0,0.0,0.0,0.0,0.0,0.0,0.0,0.0,0.0,0.0,0.0,0.0,0.0,0.0,0.0,0.0,0.0,0.0,0.0,0.0,0.0,0.0,0.0,0.0,0.0,0.0,0.0,0.0,0.0,0.0,0.0,0.0,0.0,0.0,0.0,0.0,0.0,0.0,0.0,0.0,0.0,0.0,0.0,0.0,0.0,0.0,0.0,0.0,0.0,0.0,0.0,0.0,0.0,0.0,0.0,0.0,0.0,0.0,0.0,0.0,0.0,0.0,0.0,0.0,0.0,0.0,0.0,0.0,0.0,0.0,0.0,0.0,0.0,0.0,0.0,0.0,0.0,0.0,0.0,0.0,0.0,0.0,0.0,0.0,0.0,0.0,0.0,0.0,0.0,0.0,0.0,0.0,0.0,0.0,0.0,0.0,0.0,0.0,0.0,0.0,0.0,0.0,0.0,0.0,0.0,0.0,0.0,0.0,0.0,0.0,0.0,0.0,0.0,0.0,0.0,0.0,0.0,0.0,0.0,0.0,0.0,0.0,0.0,0.0,0.0,0.0,0.0,0.0,0.0,0.0,0.0,0.0,0.0,0.0,0.0,0.0,0.0,0.0,0.0,0.0,0.0,0.0,0.0,0.0,0.0,0.0,0.0,0.0,0.0,0.0,0.0,0.0,0.0,0.0,0.0,0.0,0.0,0.0,0.0,0.0,0.0,0.0,0.0,0.0,0.0,0.0,0.0,0.0,0.0,0.0,0.0,0.0,0.0,0.0,0.0,0.0,0.0,0.0,0.0,0.0,0.0,0.0,0.0,0.0,0.0,0.0,0.0,0.0,0.0,0.0,0.0,0.0,0.0,0.0,0.0,0.0,0.0,0.0,0.0,0.0,0.0,0.0,0.0,0.0,0.0,0.0,0.0,0.0,0.0,0.0,0.0,0.0,0.0,0.0,0.0,0.0,0.0,0.0,0.0,0.0,0.0,0.0,0.0,0.0,0.0,0.0,0.0,0.0,0.0,0.0,0.0,0.0,0.0,0.0,0.0,0.0,0.0,0.0,0.0,0.0,0.0,0.0,0.0,0.0,0.0,0.0,0.0,0.0,0.0,0.0,0.0,0.0,0.0,0.0,0.0,0.0,0.0,0.0,0.0,0.0,0.0,0.0,0.0,0.0,0.0,0.0,0.0,0.0,0.0,0.0,0.0,0.0,0.0,0.0,0.0,0.0,0.0,0.0,0.0,0.0,0.0,0.0,0.0,0.0,0.0,0.0,0.0,0.0,0.0,0.0,0.0,0.0,0.0,0.0,0.0,0.0,0.0,0.0,0.0,0.0,0.0,0.0,0.0,0.0,0.0,0.0,0.0,0.0,0.0,0.0,0.0,0.0,0.0,0.0,0.0,0.0,0.0,0.0,0.0,0.0,0.0,0.0,0.0,0.0,0.0,0.0,0.0,0.0,0.0,0.0,0.0,0.0,0.0,0.0,0.0,0.0,0.0,0.0,0.0,0.0,0.0,0.0,0.0,0.0,0.0,0.0,0.0,0.0,0.0,0.0,0.0,0.0,0.0,0.0,0.0,0.0,0.0,0.0,0.0,0.0,0.0,0.0,0.0,0.0,0.0,0.0,0.0,0.0,0.0,0.0,0.0,0.0,0.0,0.0,0.0,0.0,0.0,0.0,0.0,0.0,0.0,0.0,0.0,0.0,0.0,0.0,0.0,0.0,0.0,0.0,0.0,0.0,0.0,0.0,0.0,0.0,0.0,0.0,0.0,0.0,0.0,0.0,0.0,0.0,0.0,0.0,0.0,0.0,0.0,0.0,0.0,0.0,0.0,0.0,0.0,0.0,0.0,0.0,0.0,0.0,0.0,0.0,0.0,0.0,0.0,0.0,0.0,0.0,0.0,0.0,0.0,0.0,0.0,0.0,0.0,0.0,0.0,0.0,0.0,0.0,0.0,0.0,0.0,0.0,0.0,0.0,0.0,0.0,0.0,0.0,0.0,0.0,0.0,0.0,0.0,0.0,0.0,0.0,0.0,0.0,0.0,0.0,0.0,0.0,0.0,0.0,0.0,0.0,0.0,0.0,0.0,0.0,0.0,0.0,0.0,0.0,0.0,0.0,0.0,0.0,0.0,0.0,0.0,0.0,0.0,0.0,0.0,0.0,0.0,0.0,0.0,0.0,0.0,0.0,0.0,0.0,0.0,0.0,0.0,0.0,0.0,0.0,0.0,0.0,0.0,0.0,0.0,0.0,0.0,0.0,0.0,0.0,0.0,0.0,0.0,0.0,0.0,0.0,0.0,0.0,0.0,0.0,0.0,0.0,0.0,0.0,0.0,0.0,0.0,0.0,0.0,0.0,0.0,0.0,0.0,0.0,0.0,0.0,0.0,0.0,0.0,0.0,0.0,0.0,0.0,0.0,0.0,0.0,0.0,0.0,0.0,0.0,0.0,0.0,0.0,0.0,0.0,0.0,0.0,0.0,0.0,0.0,0.0,0.0,0.0,0.0,0.0,0.0,0.0,0.0,0.0,0.0,0.0,0.0,0.0,0.0,0.0,0.0,0.0,0.0,0.0,0.0,0.0,0.0,0.0,0.0,0.0,0.0,0.0,0.0,0.0,0.0,0.0,0.0,0.0,0.0,0.0,0.0,0.0,0.0,0.0,0.0,0.0,0.0,0.0,0.0,0.0,0.0,0.0,0.0,0.0,0.0,0.0,0.0,0.0,0.0,0.0,0.0,0.0,0.0,0.0,0.0,0.0,0.0,0.0,0.0,0.0,0.0,0.0,0.0,0.0,0.0,0.0,0.0,0.0,0.0,0.0,0.0,0.0,0.0,0.0,0.0,0.0,0.0,0.0,0.0,0.0,0.0,0.0,0.0,0.0,0.0,0.0,0.0,0.0,0.0,0.0,0.0,0.0,0.0,0.0,0.0,0.0,0.0,0.0,0.0,0.0,0.0,0.0,0.0,0.0,0.0,0.0,0.0,0.0,0.0,0.0,0.0,0.0,0.0,0.0,0.0,0.0,0.0,0.0,0.0,0.0,0.0,0.0,0.0,0.0,0.0,0.0,0.0,0.0,0.0,0.0,0.0,0.0,0.0,0.0,0.0,0.0,0.0,0.0,0.0,0.0,0.0,0.0,0.0,0.0,0.0,0.0,0.0,0.0,0.0,0.0,0.0,0.0,0.0,0.0,0.0,0.0,0.0,0.0,0.0,0.0,0.0,0.0,0.0,0.0,0.0,0.0,0.0,0.0,0.0,0.0,0.0,0.0,0.0,0.0,0.0,0.0,0.0,0.0,0.0,0.0,0.0,0.0,0.0,0.0,0.0,0.0,0.0,0.0,0.0,0.0,0.0,0.0,0.0,0.0,0.0,0.0,0.0,0.0,0.0,0.0,0.0,0.0,0.0,0.0,0.0,0.0,0.0,0.0,0.0,0.0,0.0,0.0,-3.7457,0.0,0.0,0.0,0.0,0.0,0.0,0.0,0.0,0.0,0.0,0.0,0.0,0.0,0.0,0.0,0.0,0.0,0.0,0.0,0.0,0.0,0.0,0.0,0.0,0.0,0.0,0.0,0.0,0.0,0.0,0.0,0.0,0.0,0.0,0.0,0.0,0.0,0.0,0.0,0.0,0.0,0.0,0.0,0.0,0.0,0.0,0.0,0.0,0.0,0.0,0.0,0.0,0.0,0.0,0.0,0.0,0.0,0.0,0.0,0.0,0.0,0.0,0.0,0.0,0.0,0.0,0.0,0.0,0.0,0.0,0.0,0.0,0.0,0.0,0.0,0.0,0.0,0.0,0.0,0.0,0.0,0.0,0.0,0.0,0.0,0.0,0.0,0.0,0.0,0.0,0.0,0.0,0.0,0.0,0.0,0.0,0.0,0.0,0.0,0.0,0.0,0.0,0.0,0.0,0.0,0.0,0.0,0.0,0.0,0.0,-3.8797,-3.8366,-3.7825,-3.7443,-3.7303,0.0,0.0,0.0,0.0,0.0,0.0,0.0,0.0,0.0,0.0,0.0,0.0,0.0,0.0,0.0,0.0,0.0,0.0,0.0,0.0,0.0,0.0,0.0,0.0,0.0,0.0,0.0,0.0,0.0,0.0,0.0,0.0,0.0,0.0,0.0,0.0,0.0,0.0,0.0,0.0,0.0,0.0,0.0,0.0,0.0,0.0,0.0,0.0,0.0,0.0,0.0,0.0,0.0,0.0,0.0,0.0,0.0,0.0,0.0,0.0,0.0,0.0,0.0,0.0,0.0,0.0,0.0,0.0,0.0,0.0,0.0,0.0,0.0,0.0,0.0,0.0,0.0,0.0,0.0,0.0,0.0,0.0,0.0,0.0,0.0,0.0,0.0,0.0,0.0,0.0,0.0,0.0,0.0,0.0,0.0,0.0,0.0,0.0,0.0,0.0,0.0,0.0,0.0,0.0,0.0,0.0,0.0,0.0,0.0,0.0,0.0,0.0,-3.7327,-3.7031,-3.707,0.0,0.0,0.0,0.0,0.0,0.0,0.0,0.0,0.0,0.0,0.0,0.0,0.0,0.0,0.0,0.0,0.0,0.0,0.0,0.0,0.0,0.0,0.0,0.0,0.0,0.0,0.0,0.0,0.0,0.0,0.0,0.0,0.0,0.0,0.0,0.0,0.0,0.0,0.0,0.0,0.0,0.0,0.0,0.0,0.0,0.0,0.0,0.0,0.0,0.0,0.0,0.0,0.0,0.0,0.0,0.0,0.0,0.0,0.0,0.0,0.0,0.0,0.0,0.0,0.0,0.0,0.0,0.0,0.0,0.0,0.0,0.0,0.0,0.0,0.0,0.0,0.0,0.0,0.0,0.0,0.0,0.0,0.0,0.0,0.0,0.0,0.0,0.0,0.0,0.0,0.0,0.0,0.0,0.0,0.0,0.0,0.0,0.0,0.0,0.0,0.0,0.0,0.0,0.0,0.0,0.0,0.0,0.0,0.0,0.0,-3.7938,-3.738,-3.7134,0.0,-3.651,0.0,0.0,0.0,0.0,0.0,0.0,0.0,0.0,0.0,0.0,0.0,0.0,0.0,0.0,0.0,0.0,0.0,0.0,0.0,0.0,0.0,0.0,0.0,0.0,0.0,0.0,0.0,0.0,0.0,0.0,0.0,0.0,0.0,0.0,0.0,0.0,0.0,0.0,0.0,0.0,0.0,0.0,0.0,0.0,0.0,0.0,0.0,0.0,0.0,0.0,0.0,0.0,0.0,0.0,0.0,0.0,0.0,0.0,0.0,0.0,0.0,0.0,0.0,0.0,0.0,0.0,0.0,0.0,0.0,0.0,0.0,0.0,0.0,0.0,0.0,0.0,0.0,0.0,0.0,0.0,0.0,0.0,0.0,0.0,0.0,0.0,0.0,0.0,0.0,0.0,0.0,0.0,0.0,0.0,0.0,0.0,0.0,0.0,0.0,0.0,0.0,0.0,0.0,0.0,0.0,0.0,0.0,0.0,0.0,0.0,-3.761,-3.7134,-3.6811,-3.633,0.0,0.0,0.0,0.0,0.0,0.0,0.0,0.0,0.0,0.0,0.0,0.0,0.0,0.0,0.0,0.0,0.0,0.0,0.0,0.0,0.0,0.0,0.0,0.0,0.0,0.0,0.0,0.0,0.0,0.0,0.0,0.0,0.0,0.0,0.0,0.0,0.0,0.0,0.0,0.0,0.0,0.0,0.0,0.0,0.0,0.0,0.0,0.0,0.0,0.0,0.0,0.0,0.0,0.0,0.0,0.0,0.0,0.0,0.0,0.0,0.0,0.0,0.0,0.0,0.0,0.0,0.0,0.0,0.0,0.0,0.0,0.0,0.0,0.0,0.0,0.0,0.0,0.0,0.0,0.0,0.0,0.0,0.0,0.0,0.0,0.0,0.0,0.0,0.0,0.0,0.0,0.0,0.0,0.0,0.0,0.0,0.0,0.0,0.0,0.0,0.0,0.0,0.0,0.0,0.0,0.0,0.0,0.0,0.0,0.0,-3.7687,-3.7226,-3.6758,-3.647,-3.5957,-3.5131,0.0,0.0,0.0,0.0,0.0,0.0,0.0,0.0,0.0,0.0,0.0,0.0,0.0,0.0,0.0,0.0,0.0,0.0,0.0,0.0,0.0,0.0,0.0,0.0,0.0,0.0,0.0,0.0,0.0,0.0,0.0,0.0,0.0,0.0,0.0,0.0,0.0,0.0,0.0,0.0,0.0,0.0,0.0,0.0,0.0,0.0,0.0,0.0,0.0,0.0,0.0,0.0,0.0,0.0,0.0,0.0,0.0,0.0,0.0,0.0,0.0,0.0,0.0,0.0,0.0,0.0,0.0,0.0,0.0,0.0,0.0,0.0,0.0,0.0,0.0,0.0,0.0,0.0,0.0,0.0,0.0,0.0,0.0,0.0,0.0,0.0,0.0,0.0,0.0,0.0,0.0,0.0,0.0,0.0,0.0,0.0,0.0,0.0,0.0,0.0,0.0,0.0,0.0,0.0,0.0,0.0,0.0,0.0,-3.7924,-3.7341,-3.6772,-3.618,-3.614,-3.5705,0.0,0.0,0.0,0.0,0.0,0.0,0.0,0.0,0.0,0.0,0.0,0.0,0.0,0.0,0.0,0.0,0.0,0.0,0.0,0.0,0.0,0.0,0.0,0.0,0.0,0.0,0.0,0.0,0.0,0.0,0.0,0.0,0.0,0.0,0.0,0.0,0.0,0.0,0.0,0.0,0.0,0.0,0.0,0.0,0.0,0.0,0.0,0.0,0.0,0.0,0.0,0.0,0.0,0.0,0.0,0.0,0.0,0.0,0.0,0.0,0.0,0.0,0.0,0.0,0.0,0.0,0.0,0.0,0.0,0.0,0.0,0.0,0.0,0.0,0.0,0.0,0.0,0.0,0.0,0.0,0.0,0.0,0.0,0.0,0.0,0.0,0.0,0.0,0.0,0.0,0.0,0.0,0.0,0.0,0.0,0.0,0.0,0.0,0.0,0.0,0.0,0.0,0.0,0.0,0.0,0.0,0.0,0.0,0.0,-3.8302,-3.7976,-3.7385,-3.6633,-3.6511,-3.5736,0.0,0.0,0.0,0.0,0.0,0.0,0.0,0.0,0.0,0.0,0.0,0.0,0.0,0.0,0.0,0.0,0.0,0.0,0.0,0.0,0.0,0.0,0.0,0.0,0.0,0.0,0.0,0.0,0.0,0.0,0.0,0.0,0.0,0.0,0.0,0.0,0.0,0.0,0.0,0.0,0.0,0.0,0.0,0.0,0.0,0.0,0.0,0.0,0.0,0.0,0.0,0.0,0.0,0.0,0.0,0.0,0.0,0.0,0.0,0.0,0.0,0.0,0.0,0.0,0.0,0.0,0.0,0.0,0.0,0.0,0.0,0.0,0.0,0.0,0.0,0.0,0.0,0.0,0.0,0.0,0.0,0.0,0.0,0.0,0.0,0.0,0.0,0.0,0.0,0.0,0.0,0.0,0.0,0.0,0.0,0.0,0.0,0.0,0.0,0.0,0.0,0.0,0.0,0.0,0.0,0.0,0.0,0.0,0.0,-3.8416,0.0,-3.773,-3.7125,-3.6783,-3.5913,0.0,0.0,0.0,0.0,0.0,0.0,0.0,0.0,0.0,0.0,0.0,0.0,0.0,0.0,0.0,0.0,0.0,0.0,0.0,0.0,0.0,0.0,0.0,0.0,0.0,0.0,0.0,0.0,0.0,0.0,0.0,0.0,0.0,0.0,0.0,0.0,0.0,0.0,0.0,0.0,0.0,0.0,0.0,0.0,0.0,0.0,0.0,0.0,0.0,0.0,0.0,0.0,0.0,0.0,0.0,0.0,0.0,0.0,0.0,0.0,0.0,0.0,0.0,0.0,0.0,0.0,0.0,0.0,0.0,0.0,0.0,0.0,0.0,0.0,0.0,0.0,0.0,0.0,0.0,0.0,0.0,0.0,0.0,0.0,0.0,0.0,0.0,0.0,0.0,0.0,0.0,0.0,0.0,0.0,0.0,0.0,0.0,0.0,0.0,0.0,0.0,0.0,0.0,0.0,0.0,0.0,0.0,0.0,-3.8658,-3.8228,-3.8005,-3.7766,-3.7485,-3.6958,-3.621,0.0,0.0,0.0,0.0,0.0,0.0,0.0,0.0,0.0,0.0,0.0,0.0,0.0,0.0,0.0,0.0,0.0,0.0,0.0,0.0,0.0,0.0,0.0,0.0,0.0,0.0,0.0,0.0,0.0,0.0,0.0,0.0,0.0,0.0,0.0,0.0,0.0,0.0,0.0,0.0,0.0,0.0,0.0,0.0,0.0,0.0,0.0,0.0,0.0,0.0,0.0,0.0,0.0,0.0,0.0,0.0,0.0,0.0,0.0,0.0,0.0,0.0,0.0,0.0,0.0,0.0,0.0,0.0,0.0,0.0,0.0,0.0,0.0,0.0,0.0,0.0,0.0,0.0,0.0,0.0,0.0,0.0,0.0,0.0,0.0,0.0,0.0,0.0,0.0,0.0,0.0,0.0,0.0,0.0,0.0,0.0,0.0,0.0,0.0,0.0,0.0,0.0,0.0,0.0,0.0,0.0,0.0,0.0,0.0,-3.9269,-3.9168,-3.879,-3.8152,-3.7398,-3.6518,0.0,0.0,0.0,0.0,0.0,0.0,0.0,0.0,0.0,0.0,0.0,0.0,0.0,0.0,0.0,0.0,0.0,0.0,0.0,0.0,0.0,0.0,0.0,0.0,0.0,0.0,0.0,0.0,0.0,0.0,0.0,0.0,0.0,0.0,0.0,0.0,0.0,0.0,0.0,0.0,0.0,0.0,0.0,0.0,0.0,0.0,0.0,0.0,0.0,0.0,0.0,0.0,0.0,0.0,0.0,0.0,0.0,0.0,0.0,0.0,0.0,0.0,0.0,0.0,0.0,0.0,0.0,0.0,0.0,0.0,0.0,0.0,0.0,0.0,0.0,0.0,0.0,0.0,0.0,0.0,0.0,0.0,0.0,0.0,0.0,0.0,0.0,0.0,0.0,0.0,0.0,0.0,0.0,0.0,0.0,0.0,0.0,0.0,0.0,0.0,0.0,0.0,0.0,0.0,0.0,0.0,0.0,0.0,0.0,-4.0414,-4.021,-3.9654,-3.8822,-3.8111,-3.7123,-3.5862,0.0,0.0,0.0,0.0,0.0,0.0,0.0,0.0,0.0,0.0,0.0,0.0,0.0,0.0,0.0,0.0,0.0,0.0,0.0,0.0,0.0,0.0,0.0,0.0,0.0,0.0,0.0,0.0,0.0,0.0,0.0,0.0,0.0,0.0,0.0,0.0,0.0,0.0,0.0,0.0,0.0,0.0,0.0,0.0,0.0,0.0,0.0,0.0,0.0,0.0,0.0,0.0,0.0,0.0,0.0,0.0,0.0,0.0,0.0,0.0,0.0,0.0,0.0,0.0,0.0,0.0,0.0,0.0,0.0,0.0,0.0,0.0,0.0,0.0,0.0,0.0,0.0,0.0,0.0,0.0,0.0,0.0,0.0,0.0,0.0,0.0,0.0,0.0,0.0,0.0,0.0,0.0,0.0,0.0,0.0,0.0,0.0,0.0,0.0,0.0,0.0,0.0,0.0,0.0,0.0,0.0,0.0,0.0,-4.1603,-4.1133,-4.0448,-3.9548,-3.8962,-3.7975,0.0,0.0,0.0,0.0,0.0,0.0,0.0,0.0,0.0,0.0,0.0,0.0,0.0,0.0,0.0,0.0,0.0,0.0,0.0,0.0,0.0,0.0,0.0,0.0,0.0,0.0,0.0,0.0,0.0,0.0,0.0,0.0,0.0,0.0,0.0,0.0,0.0,0.0,0.0,0.0,0.0,0.0,0.0,0.0,0.0,0.0,0.0,0.0,0.0,0.0,0.0,0.0,0.0,0.0,0.0,0.0,0.0,0.0,0.0,0.0,0.0,0.0,0.0,0.0,0.0,0.0,0.0,0.0,0.0,0.0,0.0,0.0,0.0,0.0,0.0,0.0,0.0,0.0,0.0,0.0,0.0,0.0,0.0,0.0,0.0,0.0,0.0,0.0,0.0,0.0,0.0,0.0,0.0,0.0,0.0,0.0,0.0,0.0,0.0,0.0,0.0,0.0,0.0,0.0,0.0,0.0,0.0,0.0,0.0,-4.1977,-4.2459,-4.2064,-4.0739,-3.9588,-3.8576,0.0,0.0,0.0,0.0,0.0,0.0,0.0,0.0,0.0,0.0,0.0,0.0,0.0,0.0,0.0,0.0,0.0,0.0,0.0,0.0,0.0,0.0,0.0,0.0,0.0,0.0,0.0,0.0,0.0,0.0,0.0,0.0,0.0,0.0,0.0,0.0,0.0,0.0,0.0,0.0,0.0,0.0,0.0,0.0,0.0,0.0,0.0,0.0,0.0,0.0,0.0,0.0,0.0,0.0,0.0,0.0,0.0,0.0,0.0,0.0,0.0,0.0,0.0,0.0,0.0,0.0,0.0,0.0,0.0,0.0,0.0,0.0,0.0,0.0,0.0,0.0,0.0,0.0,0.0,0.0,0.0,0.0,0.0,0.0,0.0,0.0,0.0,0.0,0.0,0.0,0.0,0.0,0.0,0.0,0.0,0.0,0.0,0.0,0.0,0.0,0.0,0.0,0.0,0.0,0.0,0.0,0.0,0.0,-4.1808,-4.2624,-4.3268,-4.3085,-4.1997,-4.0465,-3.9134,0.0,0.0,0.0,0.0,0.0,0.0,0.0,0.0,0.0,0.0,0.0,0.0,0.0,0.0,0.0,0.0,0.0,0.0,0.0,0.0,0.0,0.0,0.0,0.0,0.0,0.0,0.0,0.0,0.0,0.0,0.0,0.0,0.0,0.0,0.0,0.0,0.0,0.0,0.0,0.0,0.0,0.0,0.0,0.0,0.0,0.0,0.0,0.0,0.0,0.0,0.0,0.0,0.0,0.0,0.0,0.0,0.0,0.0,0.0,0.0,0.0,0.0,0.0,0.0,0.0,0.0,0.0,0.0,0.0,0.0,0.0,0.0,0.0,0.0,0.0,0.0,0.0,0.0,0.0,0.0,0.0,0.0,0.0,0.0,0.0,0.0,0.0,0.0,0.0,0.0,0.0,0.0,0.0,0.0,0.0,0.0,0.0,0.0,0.0,0.0,0.0,0.0,0.0,0.0,0.0,0.0,0.0,0.0,-4.1974,-4.3385,-4.3782,-4.365,-4.2958,-4.1442,-3.9808,0.0,0.0,0.0,0.0,0.0,0.0,0.0,0.0,0.0,0.0,0.0,0.0,0.0,0.0,0.0,0.0,0.0,0.0,0.0,0.0,0.0,0.0,0.0,0.0,0.0,0.0,0.0,0.0,0.0,0.0,0.0,0.0,0.0,0.0,0.0,0.0,0.0,0.0,0.0,0.0,0.0,0.0,0.0,0.0,0.0,0.0,0.0,0.0,0.0,0.0,0.0,0.0,0.0,0.0,0.0,0.0,0.0,0.0,0.0,0.0,0.0,0.0,0.0,0.0,0.0,0.0,0.0,0.0,0.0,0.0,0.0,0.0,0.0,0.0,0.0,0.0,0.0,0.0,0.0,0.0,0.0,0.0,0.0,0.0,0.0,0.0,0.0,0.0,0.0,0.0,0.0,0.0,0.0,0.0,0.0,0.0,0.0,0.0,0.0,0.0,0.0,0.0,0.0,0.0,0.0,0.0,0.0,0.0,-4.2594,-4.3412,-4.4123,-4.4055,-4.3049,-4.2226,-4.0997,0.0,0.0,0.0,0.0,0.0,0.0,0.0,0.0,0.0,0.0,0.0,0.0,0.0,0.0,0.0,0.0,0.0,0.0,0.0,0.0,0.0,0.0,0.0,0.0,0.0,0.0,0.0,0.0,0.0,0.0,0.0,0.0,0.0,0.0,0.0,0.0,0.0,0.0,0.0,0.0,0.0,0.0,0.0,0.0,0.0,0.0,0.0,0.0,-3.7098,0.0,0.0,0.0,0.0,0.0,0.0,0.0,0.0,0.0,0.0,0.0,0.0,0.0,0.0,0.0,0.0,0.0,0.0,0.0,0.0,0.0,0.0,0.0,0.0,0.0,0.0,0.0,0.0,0.0,0.0,0.0,0.0,0.0,0.0,0.0,0.0,0.0,0.0,0.0,0.0,0.0,0.0,0.0,0.0,0.0,0.0,0.0,0.0,0.0,0.0,0.0,0.0,0.0,0.0,0.0,0.0,0.0,0.0,0.0,-4.2655,-4.3376,-4.383,-4.3632,-4.2683,-4.2216,-4.1263,0.0,0.0,0.0,0.0,0.0,0.0,0.0,0.0,0.0,0.0,0.0,0.0,0.0,0.0,0.0,0.0,0.0,0.0,0.0,0.0,0.0,0.0,0.0,0.0,0.0,0.0,0.0,0.0,0.0,0.0,0.0,0.0,0.0,0.0,0.0,0.0,0.0,0.0,0.0,0.0,0.0,0.0,0.0,0.0,0.0,0.0,0.0,0.0,0.0,0.0,0.0,0.0,0.0,0.0,0.0,0.0,0.0,0.0,0.0,0.0,0.0,0.0,0.0,0.0,0.0,0.0,0.0,0.0,0.0,0.0,0.0,0.0,0.0,0.0,0.0,0.0,0.0,0.0,0.0,0.0,0.0,0.0,0.0,0.0,0.0,0.0,0.0,0.0,0.0,0.0,0.0,0.0,0.0,0.0,0.0,0.0,0.0,0.0,0.0,0.0,0.0,0.0,0.0,0.0,0.0,0.0,0.0,-4.1677,-4.2554,-4.3314,-4.3325,-4.2948,-4.2248,-4.1905,-4.1011,-3.9568,0.0,0.0,0.0,0.0,0.0,0.0,0.0,0.0,0.0,0.0,0.0,0.0,0.0,0.0,0.0,0.0,0.0,0.0,0.0,0.0,0.0,0.0,0.0,0.0,0.0,0.0,0.0,0.0,0.0,0.0,0.0,0.0,0.0,0.0,0.0,0.0,0.0,0.0,-3.553,-3.7214,0.0,0.0,0.0,0.0,0.0,0.0,0.0,0.0,-3.8634,0.0,0.0,0.0,0.0,0.0,0.0,0.0,0.0,0.0,0.0,0.0,0.0,0.0,0.0,0.0,0.0,0.0,0.0,0.0,0.0,0.0,0.0,0.0,0.0,0.0,0.0,0.0,0.0,0.0,0.0,0.0,0.0,0.0,0.0,0.0,0.0,0.0,0.0,0.0,0.0,0.0,0.0,0.0,0.0,0.0,0.0,0.0,0.0,0.0,0.0,0.0,0.0,0.0,0.0,0.0,0.0,-4.0448,-4.1813,-4.268,-4.3044,-4.3069,-4.28,-4.2182,-4.1736,-4.0809,-3.9327,0.0,0.0,0.0,0.0,0.0,0.0,0.0,0.0,0.0,0.0,0.0,0.0,0.0,0.0,0.0,0.0,0.0,0.0,0.0,0.0,0.0,0.0,0.0,0.0,0.0,0.0,0.0,0.0,0.0,0.0,0.0,0.0,0.0,0.0,0.0,0.0,0.0,0.0,0.0,-3.9194,-4.0642,0.0,0.0,0.0,0.0,0.0,0.0,0.0,0.0,-3.819,0.0,0.0,0.0,0.0,0.0,0.0,0.0,0.0,0.0,0.0,0.0,0.0,0.0,0.0,0.0,0.0,0.0,0.0,0.0,0.0,0.0,0.0,0.0,0.0,0.0,0.0,0.0,0.0,0.0,0.0,0.0,0.0,0.0,0.0,0.0,0.0,0.0,0.0,0.0,0.0,0.0,0.0,0.0,0.0,0.0,0.0,0.0,0.0,0.0,0.0,0.0,0.0,0.0,0.0,0.0,-4.0631,-4.1737,-4.2646,-4.3169,-4.2659,-4.2131,-4.1745,-4.0809,-3.9916,0.0,0.0,0.0,0.0,0.0,0.0,0.0,0.0,0.0,0.0,0.0,0.0,0.0,0.0,0.0,0.0,0.0,0.0,0.0,0.0,0.0,0.0,0.0,0.0,0.0,0.0,0.0,0.0,0.0,0.0,0.0,0.0,0.0,0.0,0.0,0.0,0.0,0.0,0.0,0.0,-4.0065,-4.122,-4.167,0.0,0.0,0.0,0.0,0.0,0.0,-3.9912,-3.9308,0.0,0.0,0.0,0.0,0.0,0.0,0.0,0.0,0.0,0.0,0.0,0.0,0.0,0.0,0.0,0.0,0.0,0.0,0.0,0.0,0.0,0.0,0.0,0.0,0.0,0.0,0.0,0.0,0.0,0.0,0.0,0.0,0.0,0.0,0.0,0.0,0.0,0.0,0.0,0.0,0.0,0.0,0.0,0.0,0.0,0.0,0.0,0.0,0.0,0.0,0.0,0.0,0.0,0.0,0.0,-4.0614,-4.1607,-4.2391,-4.2933,-4.2093,-4.1481,-4.1153,-3.989,-3.9067,0.0,0.0,0.0,0.0,0.0,0.0,0.0,0.0,0.0,0.0,0.0,0.0,0.0,0.0,0.0,0.0,0.0,0.0,0.0,0.0,0.0,0.0,0.0,0.0,0.0,0.0,0.0,0.0,0.0,0.0,0.0,0.0,0.0,0.0,0.0,0.0,0.0,0.0,0.0,0.0,0.0,-4.1608,-4.2789,-4.3073,0.0,0.0,0.0,0.0,-4.1354,-4.1153,0.0,0.0,0.0,0.0,0.0,0.0,0.0,0.0,0.0,0.0,0.0,0.0,0.0,0.0,0.0,0.0,0.0,0.0,0.0,0.0,0.0,0.0,0.0,0.0,0.0,0.0,0.0,0.0,0.0,0.0,0.0,0.0,0.0,0.0,0.0,0.0,0.0,0.0,0.0,0.0,0.0,0.0,0.0,0.0,0.0,0.0,0.0,0.0,0.0,0.0,0.0,0.0,0.0,0.0,0.0,0.0,-3.9773,-4.131,-4.1928,-4.1559,-4.1404,-4.1103,-4.0614,-3.9535,-3.8905,0.0,0.0,0.0,0.0,0.0,0.0,0.0,0.0,0.0,0.0,0.0,0.0,0.0,0.0,0.0,0.0,0.0,0.0,0.0,0.0,0.0,0.0,0.0,0.0,0.0,0.0,0.0,0.0,0.0,0.0,0.0,0.0,0.0,0.0,0.0,0.0,0.0,0.0,0.0,0.0,0.0,-4.2532,-4.2944,-4.3207,-4.3047,0.0,0.0,-4.1949,-4.1363,-4.2095,0.0,0.0,0.0,0.0,0.0,0.0,0.0,0.0,0.0,0.0,0.0,0.0,0.0,0.0,0.0,0.0,0.0,0.0,0.0,0.0,0.0,0.0,0.0,0.0,0.0,0.0,0.0,0.0,0.0,0.0,0.0,0.0,0.0,0.0,0.0,0.0,0.0,0.0,0.0,0.0,0.0,0.0,0.0,0.0,0.0,0.0,0.0,0.0,0.0,0.0,0.0,0.0,0.0,0.0,0.0,-3.8545,-3.9608,-4.0797,-4.1387,-4.1317,-4.0987,-4.0764,-4.0513,-3.9132,-3.8514,0.0,0.0,0.0,0.0,0.0,0.0,0.0,0.0,0.0,0.0,0.0,0.0,0.0,0.0,0.0,0.0,0.0,0.0,0.0,0.0,0.0,0.0,0.0,0.0,0.0,0.0,0.0,0.0,0.0,0.0,0.0,0.0,0.0,0.0,0.0,0.0,0.0,0.0,0.0,0.0,0.0,0.0,-4.2519,-4.3413,0.0,0.0,0.0,-4.3011,-4.2773,0.0,0.0,0.0,0.0,0.0,0.0,0.0,0.0,0.0,0.0,0.0,0.0,0.0,0.0,0.0,0.0,0.0,0.0,0.0,0.0,0.0,0.0,0.0,0.0,0.0,0.0,0.0,0.0,0.0,0.0,0.0,0.0,0.0,0.0,0.0,0.0,0.0,0.0,0.0,0.0,0.0,0.0,0.0,0.0,0.0,0.0,0.0,0.0,0.0,0.0,0.0,0.0,0.0,0.0,0.0,0.0,0.0,-3.9404,-4.0389,-4.089,-4.0915,-4.0664,-4.045,-4.0287,-3.8956,0.0,0.0,0.0,0.0,0.0,0.0,0.0,0.0,0.0,0.0,0.0,0.0,0.0,0.0,0.0,0.0,0.0,0.0,0.0,0.0,0.0,0.0,0.0,0.0,0.0,0.0,0.0,-3.1928,0.0,0.0,0.0,0.0,0.0,0.0,0.0,0.0,0.0,0.0,0.0,0.0,0.0,0.0,-4.2108,-4.2179,-4.3451,-4.4079,0.0,0.0,-4.3865,-4.3451,-4.3175,-4.2753,0.0,0.0,0.0,0.0,0.0,0.0,0.0,0.0,0.0,0.0,0.0,0.0,0.0,0.0,0.0,0.0,0.0,0.0,0.0,0.0,0.0,0.0,0.0,0.0,0.0,0.0,0.0,0.0,0.0,0.0,0.0,0.0,0.0,0.0,0.0,0.0,0.0,0.0,0.0,0.0,0.0,0.0,0.0,0.0,0.0,0.0,0.0,0.0,0.0,0.0,0.0,0.0,0.0,0.0,-3.7947,-3.8841,-4.0185,-4.051,-3.9848,-4.0275,-4.0275,-3.976,-3.9196,-3.8705,0.0,0.0,0.0,0.0,0.0,0.0,0.0,0.0,0.0,0.0,0.0,0.0,0.0,0.0,0.0,0.0,0.0,0.0,0.0,0.0,0.0,0.0,0.0,0.0,0.0,0.0,0.0,0.0,0.0,0.0,0.0,0.0,0.0,0.0,0.0,0.0,0.0,0.0,0.0,0.0,0.0,-4.2108,-4.2192,-4.3124,-4.3652,0.0,-4.3878,-4.4041,-4.2564,-4.401,-4.4204,-4.1141,0.0,0.0,0.0,0.0,0.0,0.0,0.0,0.0,0.0,0.0,0.0,0.0,0.0,0.0,0.0,0.0,0.0,0.0,0.0,0.0,0.0,0.0,0.0,0.0,0.0,0.0,0.0,0.0,0.0,0.0,0.0,0.0,0.0,0.0,0.0,0.0,0.0,0.0,0.0,0.0,0.0,0.0,0.0,0.0,0.0,0.0,0.0,0.0,0.0,0.0,0.0,0.0,0.0,-3.7386,-3.8777,-3.9398,-3.9713,-3.9685,-3.9898,-3.991,-3.9697,-3.8806,-3.8328,0.0,0.0,0.0,0.0,0.0,0.0,0.0,0.0,0.0,0.0,0.0,0.0,0.0,0.0,0.0,0.0,0.0,0.0,0.0,0.0,0.0,0.0,0.0,0.0,0.0,0.0,0.0,0.0,-3.4214,-3.458,-3.4424,0.0,0.0,0.0,0.0,0.0,0.0,0.0,0.0,0.0,0.0,-4.1821,-4.1685,-4.2886,0.0,0.0,-4.3338,-4.3388,-4.276,-4.2798,-4.2497,-4.1175,-4.0174,0.0,0.0,0.0,0.0,0.0,0.0,0.0,0.0,0.0,0.0,0.0,0.0,0.0,0.0,0.0,0.0,0.0,0.0,0.0,0.0,0.0,0.0,0.0,0.0,0.0,0.0,0.0,0.0,0.0,0.0,0.0,0.0,0.0,0.0,0.0,0.0,0.0,0.0,0.0,0.0,0.0,0.0,0.0,0.0,0.0,0.0,0.0,0.0,0.0,0.0,0.0,0.0,-3.7074,-3.8764,-3.883,-3.9196,-3.9685,-3.9697,-3.9609,-3.9433,-3.868,-3.8214,0.0,0.0,0.0,0.0,0.0,0.0,0.0,0.0,0.0,0.0,0.0,0.0,0.0,0.0,0.0,0.0,0.0,0.0,0.0,0.0,0.0,0.0,0.0,0.0,0.0,0.0,0.0,0.0,-3.4554,-3.4868,-3.445,0.0,0.0,0.0,0.0,0.0,0.0,0.0,0.0,0.0,0.0,-4.1585,-4.1354,-4.261,-4.3363,-4.2811,-4.2873,-4.2861,-4.2534,-4.1982,-4.1417,-4.0927,0.0,0.0,0.0,0.0,0.0,0.0,0.0,0.0,0.0,0.0,0.0,0.0,0.0,0.0,0.0,0.0,0.0,0.0,0.0,0.0,0.0,0.0,0.0,0.0,0.0,0.0,0.0,-3.4452,0.0,0.0,-3.4465,0.0,0.0,0.0,0.0,0.0,0.0,0.0,0.0,0.0,0.0,0.0,0.0,0.0,0.0,0.0,0.0,0.0,0.0,0.0,0.0,0.0,0.0,-3.7062,-3.8751,-3.888,-3.9183,-3.9672,-3.9685,-3.9433,-3.8919,-3.8843,-3.8378,-3.726,0.0,0.0,0.0,0.0,0.0,0.0,0.0,0.0,0.0,0.0,0.0,0.0,0.0,0.0,0.0,0.0,0.0,0.0,0.0,0.0,0.0,0.0,0.0,0.0,0.0,0.0,-3.4384,-3.4397,-3.4424,0.0,0.0,0.0,0.0,0.0,0.0,0.0,0.0,0.0,-3.8394,-4.0298,-4.1585,-4.1329,-4.2283,-4.2773,-4.2288,-4.2665,-4.2585,-4.1501,-4.1781,-4.1647,0.0,0.0,0.0,0.0,0.0,0.0,0.0,0.0,0.0,0.0,0.0,0.0,0.0,0.0,0.0,0.0,0.0,0.0,0.0,0.0,0.0,0.0,0.0,0.0,0.0,0.0,0.0,-3.5195,-3.5495,0.0,0.0,0.0,0.0,0.0,0.0,0.0,0.0,0.0,0.0,0.0,-3.6109,-3.6109,0.0,0.0,0.0,0.0,0.0,0.0,0.0,0.0,0.0,0.0,0.0,0.0,-3.6703,-3.8687,-3.8451,-3.8755,-3.9647,-3.9333,-3.9057,-3.8868,-3.8128,-3.7061,-3.5592,0.0,0.0,0.0,0.0,0.0,0.0,0.0,0.0,0.0,0.0,0.0,0.0,0.0,0.0,0.0,0.0,0.0,0.0,0.0,0.0,0.0,0.0,0.0,0.0,0.0,-3.4999,0.0,0.0,0.0,0.0,0.0,0.0,0.0,0.0,0.0,0.0,-3.695,-3.7919,-3.8345,-3.9827,-4.0895,-4.0789,-4.1417,-4.1819,0.0,0.0,0.0,0.0,0.0,0.0,0.0,0.0,0.0,0.0,0.0,0.0,0.0,0.0,-3.5069,-3.4572,-3.4462,-3.4236,-3.3389,0.0,0.0,0.0,0.0,0.0,0.0,0.0,0.0,0.0,0.0,0.0,0.0,0.0,0.0,-3.5783,-3.6057,-3.5744,0.0,0.0,0.0,0.0,0.0,0.0,0.0,0.0,-3.6632,-3.6724,-3.6724,-3.6724,-3.6619,0.0,-3.641,-3.5926,0.0,0.0,0.0,0.0,0.0,0.0,0.0,0.0,-3.6511,-3.8674,-3.8274,-3.8467,-3.9346,-3.9108,-3.873,-3.8291,-3.7436,-3.6207,-3.4731,-3.4495,-3.3788,0.0,0.0,0.0,0.0,0.0,0.0,0.0,0.0,0.0,0.0,0.0,0.0,0.0,0.0,0.0,0.0,0.0,0.0,0.0,0.0,0.0,0.0,0.0,-3.5299,0.0,0.0,0.0,0.0,0.0,0.0,0.0,0.0,0.0,-3.609,-3.7079,-3.8018,-3.8489,-3.9699,-4.0526,-4.0526,0.0,0.0,0.0,0.0,0.0,0.0,0.0,-3.991,-3.9735,-4.0011,-4.0149,-3.9785,-3.9258,-3.878,-3.8514,0.0,0.0,-3.5293,-3.4716,-3.4099,-3.3285,-3.3009,-3.3059,-3.336,-3.3412,-3.3409,0.0,0.0,0.0,0.0,0.0,0.0,0.0,0.0,-3.6136,-3.6175,0.0,-3.6175,0.0,0.0,0.0,0.0,-3.6162,-3.6711,0.0,0.0,-3.7599,-3.79,-3.7874,-3.7861,-3.7599,-3.705,-3.7024,-3.6724,-3.6149,-3.5613,0.0,0.0,0.0,0.0,0.0,0.0,-3.6511,-3.8661,-3.8223,-3.8253,-3.8869,-3.8869,-3.8278,-3.7211,-3.6694,-3.5868,-3.4826,-3.4751,-3.4042,-3.2655,-3.2804,0.0,0.0,0.0,0.0,0.0,0.0,0.0,0.0,0.0,0.0,0.0,0.0,0.0,0.0,0.0,0.0,0.0,0.0,0.0,0.0,-3.5286,0.0,0.0,0.0,0.0,0.0,0.0,0.0,0.0,0.0,-3.6725,-3.6801,-3.7739,-3.8538,-3.8831,0.0,0.0,0.0,0.0,-4.1075,-4.0601,-4.0538,-4.0362,-3.9848,-4.0212,-4.0375,-3.9848,0.0,0.0,-4.1238,-4.0852,-4.0345,-4.0081,-3.8758,-3.7297,-3.548,-3.4106,-3.3062,-3.2706,-3.3108,-3.3526,-3.3664,-3.4028,-3.4362,-3.723,0.0,0.0,0.0,0.0,-3.5665,-3.6051,-3.6737,-3.675,-3.7207,-3.7913,-3.7103,0.0,0.0,0.0,0.0,0.0,0.0,-3.7246,-3.7639,-3.7821,-3.79,-3.79,-3.79,-3.7808,-3.7652,-3.7652,-3.756,-3.7364,-3.6802,-3.6305,-3.5874,0.0,0.0,0.0,0.0,-3.6749,-3.806,-3.7667,-3.7701,-3.8241,-3.7877,-3.7324,-3.6621,-3.6493,-3.6031,-3.5295,-3.527,-3.4914,-3.4092,-3.3558,0.0,0.0,0.0,0.0,0.0,0.0,0.0,0.0,0.0,0.0,0.0,0.0,0.0,0.0,0.0,0.0,0.0,0.0,0.0,-3.4607,-3.5038,-3.5129,0.0,0.0,0.0,0.0,0.0,0.0,0.0,0.0,0.0,-3.815,-3.8529,-3.8793,0.0,0.0,-3.9936,-3.9936,-4.04,-4.0701,-4.0551,-4.0852,0.0,-4.0849,-4.0949,-4.1,-4.089,-4.1087,-4.1163,-4.0814,-4.0573,-4.0335,-3.9894,-3.8087,-3.6526,-3.596,-3.4919,-3.38,-3.2962,-3.2845,-3.3174,-3.3847,-3.4143,-3.4334,-3.8077,-3.6857,-3.6049,-3.5821,-3.6025,-3.6334,-3.6897,-3.7567,-3.788,-3.8305,-3.8671,-3.7991,-3.7756,-3.7874,-3.7142,0.0,0.0,0.0,-3.756,-3.79,-3.79,-3.79,-3.79,-3.79,-3.79,-3.79,-3.79,-3.79,-3.79,-3.7534,-3.7181,-3.6802,0.0,-3.641,-3.6985,-3.6638,-3.6965,-3.7998,-3.7571,-3.7507,-3.781,-3.7184,-3.6744,-3.643,-3.6417,-3.6194,-3.5881,-3.5881,-3.5617,-3.5019,-3.4635,-3.3941,0.0,0.0,0.0,0.0,0.0,0.0,0.0,0.0,0.0,0.0,0.0,-3.1797,-3.181,0.0,0.0,0.0,-3.4005,-3.4397,-3.4724,-3.5201,0.0,0.0,0.0,0.0,0.0,0.0,0.0,-3.6637,-3.7213,-3.7886,-3.8793,-3.9309,-3.9446,-3.922,-3.9672,-4.0023,-4.0023,0.0,-4.0852,-4.084,-4.1075,-4.1275,-4.1275,-4.153,-4.1743,-4.1957,-4.1982,-4.1794,-4.1279,-4.1003,-4.0664,-3.9927,-3.8294,-3.6738,-3.6306,-3.5278,-3.4089,-3.2955,-3.2871,-3.3182,-3.371,-3.3997,-3.4155,-3.853,-3.7926,-3.6756,-3.6286,-3.6391,-3.7186,-3.7868,-3.848,-3.9155,-3.9211,-3.8789,-3.8684,-3.837,-3.79,-3.79,0.0,-3.79,-3.79,-3.79,-3.79,-3.79,-3.79,-3.79,-3.79,-3.79,-3.79,-3.79,-3.79,-3.79,-3.79,-3.79,-3.7874,-3.6789,-3.6528,-3.7037,-3.678,-3.7175,-3.8209,-3.776,-3.7508,-3.7508,-3.6776,-3.6417,-3.6417,-3.6417,-3.6417,-3.6417,-3.6417,-3.6132,-3.5596,-3.5764,-3.5016,-3.3248,0.0,0.0,0.0,0.0,0.0,0.0,0.0,0.0,0.0,0.0,0.0,0.0,0.0,0.0,-3.3718,-3.4724,0.0,-3.5335,-3.563,0.0,0.0,0.0,-3.5488,-3.5513,-3.6222,-3.6767,-3.6855,0.0,0.0,-3.8982,-3.9848,-4.0337,-3.9823,-4.0237,-4.0576,-4.0576,-4.1,-4.1351,-4.1351,-4.1455,-4.148,-4.1539,-4.1932,-4.2426,-4.2785,-4.2986,-4.271,-4.2238,-4.1656,-4.1087,-4.0576,-3.9067,-3.7607,-3.6522,-3.5399,-3.4145,-3.3105,-3.3142,-3.3317,-3.341,-3.371,-3.4,-3.853,-3.7927,-3.7281,-3.683,-3.6675,-3.7282,-3.7886,-3.8407,-3.8536,-3.8925,-3.9337,-3.8475,-3.8018,-3.79,-3.79,-3.79,-3.79,-3.79,-3.79,-3.79,-3.79,-3.79,-3.79,-3.79,-3.79,-3.79,-3.79,-3.79,-3.79,-3.79,-3.79,-3.7887,-3.7612,-3.7547,-3.7678,-3.7403,-3.7428,-3.7699,-3.7173,-3.683,-3.6701,-3.648,-3.6417,-3.6417,-3.6417,-3.6417,-3.6417,-3.6417,-3.6342,-3.6157,-3.5814,-3.5342,-3.4848,-3.405,0.0,0.0,0.0,0.0,0.0,0.0,0.0,0.0,0.0,-3.2685,-3.3143,0.0,-3.4397,0.0,-3.5508,-3.5839,-3.5691,-3.5776,0.0,0.0,-3.5647,-3.5943,-3.6362,-3.6833,-3.7421,-3.829,-3.868,-3.9032,-3.9459,-4.0086,-4.0463,-4.035,-4.0749,-4.1087,-4.1112,-4.1605,-4.1957,-4.1995,-4.2296,-4.2585,-4.2534,-4.2685,-4.2785,-4.3017,-4.2974,-4.2841,-4.2301,-4.1706,-4.11,-4.0495,-3.9079,-3.788,-3.7512,-3.5893,-3.4525,-3.4099,-3.3416,-3.2985,-3.3306,-3.3461,-3.3637,-3.8153,-3.7613,-3.7312,-3.6956,-3.6619,-3.7451,-3.7932,-3.8243,-3.8679,-3.9012,-3.9155,-3.8279,-3.79,-3.79,-3.79,-3.79,-3.79,-3.79,-3.79,-3.79,-3.79,-3.79,-3.79,-3.79,-3.79,-3.79,-3.79,-3.79,-3.79,-3.79,-3.79,-3.79,-3.79,-3.79,-3.79,-3.7762,-3.7657,-3.7657,-3.7168,-3.6734,-3.6417,-3.6417,-3.6417,-3.6417,-3.6417,-3.6417,-3.6417,-3.6417,-3.6417,-3.6405,-3.6069,-3.5567,-3.4889,-3.4356,-3.3566,0.0,0.0,0.0,0.0,0.0,0.0,0.0,0.0,0.0,0.0,0.0,-3.5038,-3.5613,-3.5852,-3.6033,-3.6146,-3.5949,-3.5884,-3.5965,-3.6041,-3.6319,-3.6874,-3.7321,-3.7889,-3.8818,-3.9133,-3.9433,-3.9986,-4.0538,-4.0978,-4.1216,-4.1718,-4.1982,-4.1806,-4.217,-4.2577,-4.259,-4.2841,-4.2873,-4.2715,-4.2409,-4.2246,-4.2271,-4.2446,-4.2414,-4.1593,-4.1392,-4.1037,-4.0272,-3.9352,-3.8489,-3.795,-3.6534,-3.5179,-3.448,-3.3547,-3.2877,-3.3037,-3.3099,-3.3182,-3.7626,-3.7174,-3.7111,-3.6797,-3.649,-3.7422,-3.7868,-3.8066,-3.8986,-3.9073,-3.8579,-3.8109,-3.79,-3.79,-3.79,-3.79,-3.79,-3.79,-3.79,-3.79,-3.79,-3.79,-3.79,-3.79,-3.79,-3.79,-3.79,-3.79,-3.79,-3.79,-3.79,-3.79,-3.79,-3.79,-3.79,-3.79,-3.7854,-3.7854,-3.7353,-3.6862,-3.6452,-3.6405,-3.6417,-3.6417,-3.6417,-3.6417,-3.6417,-3.6417,-3.6417,-3.6417,-3.6417,-3.5806,-3.4496,-3.4538,-3.3858,0.0,-3.2426,0.0,0.0,0.0,0.0,0.0,0.0,0.0,0.0,-3.5067,-3.5704,-3.6131,-3.6054,-3.6179,-3.6586,-3.6253,-3.6168,-3.6599,-3.6499,-3.6656,-3.726,-3.7726,-3.8253,-3.8957,-3.9396,-3.9885,-4.0312,-4.094,-4.153,-4.1907,-4.2484,-4.271,-4.2451,-4.2703,-4.2967,-4.2954,-4.2811,-4.2484,-4.2108,-4.1681,-4.1338,-4.1363,-4.1743,-4.1706,-4.0877,-4.0924,-4.0915,-4.0074,-3.9553,-3.9089,-3.8226,-3.7019,-3.5706,-3.4902,-3.3706,-3.2737,-3.27,-3.2711,-3.2669,-3.7274,-3.7149,-3.6744,-3.6505,-3.6417,-3.6789,-3.7355,-3.7992,-3.8178,-3.8144,-3.8057,-3.7952,-3.79,-3.79,-3.79,-3.79,-3.79,-3.79,-3.79,-3.79,-3.79,-3.79,-3.79,-3.79,-3.79,-3.79,-3.79,-3.79,-3.79,-3.79,-3.79,-3.79,-3.79,-3.79,-3.79,0.0,0.0,0.0,-3.7261,-3.6956,-3.6628,-3.6499,-3.6417,-3.6417,-3.6417,0.0,-3.6417,-3.6417,-3.6417,-3.6417,-3.6417,0.0,0.0,0.0,0.0,0.0,0.0,0.0,0.0,0.0,0.0,0.0,-3.4781,-3.5195,-3.5443,-3.6225,-3.6622,-3.6547,-3.6897,-3.7037,-3.6684,-3.6603,-3.6514,-3.6487,-3.6405,-3.6795,-3.7701,-3.7939,-3.8391,-3.9421,-3.9634,-3.9735,-3.9923,-4.0701,-4.1313,-4.1555,-4.2359,-4.2898,-4.2854,-4.2848,-4.2854,-4.2451,-4.1982,-4.1643,-4.1505,-4.1326,-4.1163,-4.13,-4.1338,-4.1326,-4.1062,-4.0802,-4.0623,-4.0247,-3.9176,-3.8542,-3.9089,-3.6911,-3.5068,-3.5717,-3.4145,-3.2669,-3.2669,-3.2669,-3.2669,-3.6784,-3.6747,-3.6531,-3.6417,0.0,-3.6499,-3.6946,-3.7557,-3.7651,-3.7777,-3.79,-3.79,-3.79,-3.79,-3.79,-3.79,-3.79,-3.79,-3.79,-3.79,-3.79,-3.79,-3.79,-3.79,-3.79,-3.79,-3.79,-3.79,-3.79,-3.79,-3.79,-3.79,-3.79,-3.79,-3.79,-3.79,-3.7703,-3.7307,-3.7155,-3.6909,-3.6534,-3.6452,-3.6417,-3.6417,-3.6417,0.0,0.0,0.0,0.0,0.0,0.0,0.0,0.0,0.0,0.0,-3.4286,-3.4323,-3.4196,-3.3868,-3.4293,-3.4711,-3.499,-3.5658,-3.6063,-3.6044,-3.6541,-3.6843,-3.6863,-3.7021,-3.7015,-3.6722,-3.6628,-3.6487,-3.6405,-3.6417,-3.6744,-3.7462,-3.7852,-3.8341,-3.912,-3.9534,-3.9785,-4.0074,-4.0538,-4.0974,-4.1263,-4.1739,-4.2195,-4.2195,-4.2409,-4.2426,-4.1831,-4.1291,-4.094,-4.0915,-4.0676,-4.0413,-4.0224,-4.035,-4.0388,-4.0162,-4.0124,-4.0111,-3.9982,-3.8871,-3.8161,-3.8437,-3.6437,-3.4692,-3.5057,-3.3931,-3.2727,-3.2669,-3.2669,-3.2669,-3.6417,-3.6417,-3.6417,-3.6417,-3.6417,-3.6465,-3.6734,-3.7201,-3.7459,0.0,0.0,-3.79,-3.79,-3.79,-3.79,-3.79,-3.79,-3.79,-3.79,-3.79,-3.79,-3.79,-3.79,-3.79,-3.79,-3.79,-3.79,-3.79,-3.79,-3.79,-3.79,-3.79,-3.79,-3.79,-3.79,-3.79,-3.7657,-3.7108,-3.7108,-3.6922,-3.6546,-3.6452,-3.6417,-3.6417,-3.6417,-3.6417,-3.6417,-3.6417,-3.6157,-3.5696,-3.6119,-3.5906,-3.4964,-3.5486,-3.5499,-3.4788,-3.5007,-3.5057,-3.4864,-3.4951,-3.5215,-3.5608,-3.6281,-3.6561,-3.6386,-3.6598,-3.6837,-3.7019,-3.6824,-3.6722,-3.6722,-3.6546,-3.6417,-3.6452,-3.6405,-3.6619,-3.7123,-3.7563,-3.8065,-3.8642,-3.9195,-3.971,-4.0086,-4.0388,-4.0611,-4.1025,-4.1263,-4.1238,-4.1225,-4.1568,-4.1668,-4.1254,-4.0739,-4.0375,-4.0312,-4.0061,-3.9496,-3.9183,-3.932,-3.9333,-3.8956,-3.9082,-3.9371,-3.9346,-3.8313,-3.7508,-3.7438,-3.5654,-3.4227,-3.4349,-3.3494,-3.2669,-3.2669,-3.2669,-3.2669,-3.6417,-3.6417,-3.6417,-3.6417,-3.6405,-3.6581,-3.6968,-3.7446,-3.7716,-3.7854,-3.79,-3.79,-3.79,-3.79,-3.79,-3.79,-3.79,-3.79,-3.79,-3.79,-3.79,-3.79,-3.79,-3.79,-3.79,-3.79,-3.79,-3.79,-3.79,-3.79,-3.79,-3.79,-3.79,-3.79,-3.79,-3.79,-3.7657,-3.7108,-3.7108,-3.7062,-3.6968,-3.6606,-3.6417,-3.6417,-3.6417,-3.6417,-3.6417,-3.6417,-3.6367,-3.6304,-3.6367,-3.6069,-3.5433,-3.5504,-3.5303,-3.4801,-3.5165,-3.5429,-3.5395,-3.5881,-3.6216,-3.6279,-3.6355,-3.6483,-3.6637,-3.6879,-3.6943,-3.6811,-3.6696,-3.6722,-3.6675,-3.6487,-3.6452,-3.6581,-3.6499,-3.6631,-3.7086,-3.7262,-3.7538,-3.8065,-3.863,-3.8994,-3.9182,-3.9898,-4.045,-4.0598,-4.0837,-4.1087,-4.0764,-4.0701,-4.0727,-4.0588,-4.0162,-3.986,-3.9848,-3.9772,-3.9459,-3.9007,-3.8906,-3.8793,-3.8228,-3.8228,-3.8291,-3.8241,-3.6675,-3.5815,-3.6292,-3.4265,-3.3155,-3.3505,-3.3085,-3.2633,-3.2597,-3.2638,-3.2669,-3.6417,-3.6417,-3.6417,-3.6417,-3.6417,-3.6781,-3.7062,-3.7307,-3.7703,-3.79,-3.79,-3.79,-3.79,-3.79,-3.79,-3.79,-3.79,-3.79,-3.79,-3.79,-3.79,-3.79,-3.79,-3.79,-3.79,-3.79,-3.79,-3.79,-3.79,-3.79,-3.79,-3.79,-3.79,-3.79,-3.79,-3.79,-3.7795,-3.7551,-3.7261,-3.6968,-3.6734,-3.6499,-3.6417,-3.6417,-3.6417,-3.6417,-3.6417,-3.6417,-3.6267,-3.5931,-3.6207,-3.6119,-3.5545,-3.5818,-3.5868,-3.5642,-3.5843,-3.5994,-3.5981,-3.6267,-3.6417,-3.6417,-3.6417,-3.6452,-3.6521,-3.6628,-3.6687,-3.6568,-3.6534,-3.6534,-3.6534,-3.6452,-3.6452,-3.6546,-3.6452,-3.6505,-3.6709,-3.7071,-3.7287,-3.7563,-3.8052,-3.8391,-3.8404,-3.9107,-3.9609,-3.9659,-4.0099,-4.0325,-4.0111,-4.0074,-4.0074,-4.0049,-3.9848,-3.9722,-3.9697,-3.9697,-3.9333,-3.8555,-3.8404,-3.8165,-3.7688,-3.7563,-3.743,-3.712,-3.5766,-3.4786,-3.4774,-3.3084,-3.2245,-3.2232,-3.2293,-3.2099,-3.2271,-3.254,-3.2659,-3.6417,-3.6417,-3.6417,-3.6452,-3.6593,-3.6922,-3.7168,-3.7307,-3.7703,-3.79,-3.79,-3.79,-3.79,-3.79,-3.79,-3.79,-3.79,-3.79,-3.79,-3.79,-3.79,-3.79,-3.79,-3.79,-3.79,-3.79,-3.79,-3.79,-3.79,-3.79,-3.79,-3.79,-3.79,-3.7854,-3.7808,-3.7808,-3.7749,-3.7611,-3.7214,-3.6862,-3.6546,-3.6452,-3.6417,-3.6417,-3.6417,-3.6417,-3.6417,-3.6417,-3.6169,-3.578,-3.6132,-3.6169,-3.578,-3.6132,-3.6417,-3.6417,-3.6417,-3.6417,-3.6417,-3.6417,-3.6417,-3.6417,-3.6417,-3.6417,-3.6417,-3.6417,-3.6417,-3.6417,-3.6405,-3.6405,-3.6452,-3.6405,-3.6405,-3.6439,-3.6465,-3.6417,-3.6455,-3.6795,-3.701,-3.7061,-3.7588,-3.799,-3.799,-3.8555,-3.9107,-3.922,-3.9346,-3.9521,-3.9647,-3.9697,-3.9697,-3.9697,-3.9697,-3.9697,-3.9697,-3.9697,-3.922,-3.8191,-3.8015,-3.7726,-3.7262,-3.6998,-3.6918,-3.6443,-3.5527,-3.4462,-3.335,-3.2394,-3.1673,-3.1498,-3.1415,-3.1567,-3.1946,-3.2256,-3.2556,-3.6417,-3.6417,-3.6417,-3.664,-3.7015,-3.7062,-3.7353,-3.7808,-3.7854,-3.79,-3.79,-3.79,-3.79,-3.79,-3.79,-3.79,-3.79,-3.79,-3.79,-3.79,-3.79,-3.79,-3.79,-3.79,-3.79,-3.79,-3.79,-3.79,-3.79,-3.79,-3.79,-3.79,-3.79,-3.7762,-3.7564,-3.7551,-3.7307,-3.6815,-3.6769,-3.6815,-3.7015,-3.664,-3.6417,-3.6417,-3.6417,-3.6417,-3.6417,-3.6417,-3.6392,-3.6342,-3.6367,-3.638,-3.6342,-3.6392,-3.6417,-3.6417,-3.6417,-3.6417,-3.6417,-3.6417,-3.6417,-3.6417,-3.6417,-3.6417,-3.6417,-3.6417,-3.6417,-3.6417,-3.6417,-3.6499,-3.6628,-3.6487,-3.6452,-3.6581,-3.6499,-3.6417,-3.643,-3.6455,-3.648,-3.648,-3.7312,-3.7826,-3.7487,-3.8492,-3.9471,-3.9534,-3.9308,-3.927,-3.9609,-3.9697,-3.9697,-3.9697,-3.9697,-3.9697,-3.9697,-3.9697,-3.917,-3.8241,-3.799,-3.7538,-3.686,-3.6556,-3.6401,-3.6049,-3.5393,-3.4287,-3.3343,-3.2612,-3.1752,-3.1006,-3.105,-3.1474,-3.1899,-3.2039,-3.2215,-3.6417,-3.6417,-3.6417,-3.6593,-3.6862,-3.7214,-3.7459,-3.7657,-3.7854,-3.79,-3.79,-3.79,-3.79,-3.79,-3.79,-3.79,-3.79,-3.79,-3.79,-3.79,-3.79,-3.79,-3.79,-3.79,-3.79,-3.79,-3.79,-3.79,-3.79,-3.79,-3.7808,-3.7657,-3.7657,-3.7505,-3.7261,-3.7261,-3.7155,-3.6909,-3.6769,-3.6769,-3.6815,-3.6546,-3.6417,-3.6417,-3.6417,-3.6417,-3.6417,-3.6417,-3.6417,-3.6417,-3.6417,-3.6417,-3.6417,-3.6417,-3.6417,-3.6417,-3.6417,-3.6417,-3.6417,-3.6417,-3.6417,-3.6417,-3.6417,-3.6417,-3.6417,-3.6417,-3.6417,-3.6417,-3.6417,-3.6452,-3.6499,-3.6439,-3.6439,-3.6487,-3.6452,-3.6417,-3.6417,-3.6417,-3.6417,-3.6443,-3.6795,-3.6985,-3.6983,-3.7852,-3.8906,-3.9471,-3.9471,-3.9446,-3.9672,-3.9697,-3.9697,-3.9697,-3.9697,-3.9697,-3.9672,-3.9396,-3.8881,-3.8216,-3.7726,-3.7186,-3.6669,-3.6417,-3.6216,-3.5619,-3.4727,-3.3685,-3.2381,-3.1552,-3.0737,-3.043,-3.0626,-3.1029,-3.1205,-3.1671,-3.2019,-3.6417,-3.6405,-3.6452,-3.6687,-3.6956,-3.7307,-3.7551,-3.7657,-3.7808,-3.79,-3.79,-3.79,-3.79,-3.79,-3.79,-3.79,-3.79,-3.79,-3.79,-3.79,-3.79,-3.79,-3.79,-3.79,-3.79,-3.79,-3.79,-3.79,-3.79,-3.7808,-3.7703,-3.7505,-3.7413,-3.7261,-3.7015,-3.6956,-3.6968,-3.6875,-3.6722,-3.6628,-3.6593,-3.6499,-3.6417,-3.6417,-3.6417,-3.6417,-3.6417,-3.6417,-3.6417,-3.6417,-3.6417,-3.6417,-3.6417,-3.6417,-3.6417,-3.6417,-3.6417,-3.6417,-3.6417,-3.6417,-3.6417,-3.6417,-3.6417,-3.6417,-3.6417,-3.6417,-3.6417,-3.6417,-3.6417,-3.6417,-3.6417,-3.6417,-3.6417,-3.6417,-3.6417,-3.6417,-3.6417,-3.6417,-3.6417,-3.6417,-3.6631,-3.6795,-3.7096,-3.7588,-3.8241,-3.9396,-3.9559,-3.9572,-3.9659,-3.9697,-3.9697,-3.9697,-3.9697,-3.9697,-3.9647,-3.9258,-3.8668,-3.8103,-3.7588,-3.7048,-3.6531,-3.643,-3.6358,-3.581,-3.4434,-3.34,-3.2639,-3.1454,-3.0266,-3.0119,-3.0284,-3.0584,-3.0781,-3.1298,-3.1453,-3.6417,-3.6417,-3.6581,-3.6968,-3.7459,-3.7505,-3.7657,-3.7854,-3.7913,-3.79,-3.79,-3.79,-3.79,-3.79,-3.79,-3.79,-3.79,-3.79,-3.79,-3.79,-3.79,-3.79,-3.79,-3.79,-3.79,-3.79,-3.79,-3.79,-3.7854,-3.7644,-3.7505,-3.7459,-3.7261,-3.6968,-3.6769,-3.6722,-3.664,-3.6499,-3.6452,-3.6405,-3.6417,-3.6417,-3.6417,-3.6417,-3.6417,-3.6417,-3.6417,-3.6417,-3.6417,-3.6417,-3.6417,-3.6417,-3.6417,-3.6417,-3.6417,-3.6417,-3.6417,-3.6417,-3.6417,-3.6417,-3.6417,-3.6417,-3.6417,-3.6417,-3.6417,-3.6417,-3.6417,-3.6417,-3.6417,-3.6417,-3.6417,-3.6417,-3.6417,-3.6417,-3.6417,-3.6417,-3.6417,-3.6417,-3.6417,-3.648,-3.6772,-3.7374,-3.8417,-3.7826,-3.8216,-3.9132,-3.927,-3.9145,-3.9584,-3.9697,-3.9697,-3.9697,-3.9697,-3.9697,-3.9647,-3.922,-3.8668,-3.8103,-3.755,-3.7046,-3.6694,-3.6417,-3.631,-3.6001,-3.4921,-3.3932,-3.3189,-3.2196,-3.1002,-3.0474,-3.013,-3.0222,-3.047,-3.0636,-3.0794,-3.6499,-3.6628,-3.6875,-3.7155,-3.7505,-3.769,-3.7808,-3.79,-3.79,-3.79,-3.79,-3.79,-3.79,-3.79,-3.79,-3.79,-3.79,-3.79,-3.79,-3.79,-3.79,-3.79,-3.79,-3.79,-3.79,-3.79,-3.79,-3.7808,-3.7598,-3.7353,-3.7168,-3.7015,-3.6909,-3.6722,-3.6546,-3.6487,-3.6452,-3.6417,-3.6417,-3.6417,-3.6417,-3.6417,-3.6417,-3.6417,-3.6417,-3.6417,-3.6417,-3.6417,-3.6417,-3.6417,-3.6417,-3.6417,-3.6417,-3.6417,-3.6417,-3.6417,-3.6417,-3.6417,-3.6417,-3.6417,-3.6417,-3.6417,-3.6417,-3.6417,-3.6417,-3.6417,-3.6417,-3.6417,-3.6417,-3.6417,-3.6417,-3.6417,-3.6417,-3.6417,-3.6417,-3.6417,-3.6417,-3.6417,-3.6417,-3.6493,-3.6895,-3.7549,-3.8078,-3.8266,-3.8655,-3.9446,-3.9509,-3.9484,-3.9609,-3.9697,-3.9634,-3.9685,-3.9697,-3.9697,-3.9697,-3.9233,-3.8718,-3.8103,-3.755,-3.6998,-3.6619,-3.6455,-3.6358,-3.587,-3.5017,-3.3735,-3.2689,-3.1545,-3.0651,-3.0349,-2.9994,-3.0056,-3.0212,-3.0419,-3.0378,-3.6628,-3.6862,-3.7108,-3.7366,-3.7657,-3.7808,-3.79,-3.79,-3.79,-3.79,-3.79,-3.79,-3.79,-3.79,-3.79,-3.79,-3.79,-3.79,-3.79,-3.79,-3.79,-3.79,-3.79,-3.79,-3.7854,-3.7749,-3.7657,-3.7551,-3.7366,-3.7121,-3.6862,-3.6722,-3.6628,-3.6546,-3.6417,-3.6417,-3.6417,-3.6417,-3.6417,-3.6417,-3.6417,-3.6417,-3.6417,-3.6417,-3.6417,-3.6417,-3.6417,-3.6417,-3.6417,-3.6417,-3.6417,-3.6417,-3.6417,-3.6417,-3.6417,-3.6417,-3.6417,-3.6417,-3.6417,-3.6417,-3.6417,-3.6417,-3.6417,-3.6417,-3.6417,-3.6417,-3.6417,-3.6417,-3.6417,-3.6417,-3.6417,-3.6417,-3.6417,-3.6417,-3.6417,-3.6417,-3.6417,-3.6417,-3.6417,-3.6455,-3.6694,-3.7199,-3.7877,-3.8316,-3.8868,-3.9572,-3.9559,-3.9433,-3.9421,-3.9245,-3.9157,-3.9132,-3.9082,-3.9044,-3.8994,-3.8642,-3.8479,-3.8015,-3.755,-3.6998,-3.6571,-3.6433,-3.6121,-3.5667,-3.4678,-3.3289,-3.2044,-3.0899,-3.0349,-3.0047,-2.9994,-3.0036,-3.0149,-3.0243,-3.0079,-3.6862,-3.7121,-3.74,-3.7598,-3.7854,-3.79,-3.79,-3.79,-3.79,-3.79,-3.79,-3.79,-3.79,-3.79,-3.79,-3.79,-3.79,-3.79,-3.79,-3.79,-3.79,-3.79,-3.79,-3.7854,-3.7703,-3.7505,-3.7214,-3.7121,-3.7108,-3.6862,-3.6662,-3.6675,-3.6499,-3.6417,-3.6417,-3.6417,-3.6417,-3.6417,-3.6417,-3.6417,-3.6417,-3.6417,-3.6417,-3.6417,-3.6417,-3.6417,-3.6417,-3.6417,-3.6417,-3.6417,-3.6417,-3.6417,-3.6417,-3.6417,-3.6417,-3.6417,-3.6417,-3.6417,-3.6417,-3.6417,-3.6417,-3.6417,-3.6417,-3.6417,-3.6417,-3.6417,-3.6417,-3.6417,-3.6417,-3.6417,-3.6417,-3.6417,-3.6417,-3.6417,-3.6417,-3.6417,-3.6417,-3.6417,-3.6417,-3.643,-3.6543,-3.6908,-3.7651,-3.8153,-3.8592,-3.9157,-3.9207,-3.8931,-3.8856,-3.853,-3.8153,-3.8115,-3.8291,-3.8429,-3.8228,-3.8015,-3.8015,-3.7902,-3.7475,-3.701,-3.6488,-3.6216,-3.5715,-3.5174,-3.3871,-3.2538,-3.1249,-3.0245,-3.0203,-2.9994,-2.9994,-2.9994,-3.0067,-3.0066,-2.9761,-3.6968,-3.7353,-3.7459,-3.7657,-3.79,-3.79,-3.79,-3.79,-3.79,-3.79,-3.79,-3.79,-3.79,-3.79,-3.79,-3.79,-3.79,-3.79,-3.79,-3.79,-3.79,-3.79,-3.7854,-3.7703,-3.7505,-3.7214,-3.6968,-3.6815,-3.6769,-3.6593,-3.6499,-3.6499,-3.6452,-3.6417,-3.6417,-3.6417,-3.6417,-3.6417,-3.6417,-3.6417,-3.6417,-3.6417,-3.6417,-3.6417,-3.6417,-3.6417,-3.6417,-3.6417,-3.6417,-3.6417,-3.6417,-3.6417,-3.6417,-3.6417,-3.6417,-3.6417,-3.6417,-3.6417,-3.6417,-3.6417,-3.643,-3.6417,-3.6417,-3.6417,-3.6417,-3.6417,-3.6417,-3.6417,-3.6417,-3.6417,-3.6417,-3.6417,-3.6417,-3.6417,-3.6417,-3.6417,-3.6417,-3.6417,-3.6417,-3.6455,-3.6732,-3.7134,-3.7487,-3.7939,-3.8479,-3.8567,-3.8693,-3.8693,-3.8341,-3.8078,-3.8015,-3.8002,-3.8002,-3.7852,-3.7739,-3.7638,-3.7588,-3.7575,-3.7299,-3.678,-3.6285,-3.581,-3.5319,-3.4276,-3.3028,-3.1841,-3.0547,-2.9994,-2.9994,-2.9994,-2.9994,-2.9994,-2.9994,-2.9889,-2.9669,-3.7015,-3.7505,-3.7505,-3.7657,-3.79,-3.79,-3.79,-3.79,-3.79,-3.79,-3.79,-3.79,-3.79,-3.79,-3.79,-3.79,-3.7854,-3.7795,-3.7749,-3.7749,-3.7749,-3.7749,-3.7703,-3.7353,-3.7108,-3.6956,-3.6734,-3.6581,-3.6581,-3.6452,-3.6417,-3.6417,-3.6417,-3.6417,-3.6417,-3.6417,-3.6417,-3.6417,-3.6417,-3.6417,-3.6417,-3.6417,-3.6417,-3.6417,-3.6417,-3.6417,-3.6417,-3.6417,-3.6417,-3.6417,-3.6417,-3.6417,-3.6417,-3.6417,-3.6417,-3.6443,-3.6581,-3.6644,-3.648,-3.6606,-3.6593,-3.6468,-3.6417,-3.6417,-3.6417,-3.6417,-3.6417,-3.6417,-3.6417,-3.6417,-3.6417,-3.6417,-3.6417,-3.6417,-3.6417,-3.6417,-3.6417,-3.6417,-3.6417,-3.648,-3.6694,-3.6935,-3.7324,-3.7638,-3.8216,-3.8052,-3.8128,-3.8178,-3.7751,-3.75,-3.7462,-3.7412,-3.7262,-3.7211,-3.7324,-3.7262,-3.7186,-3.7149,-3.7073,-3.6413,-3.5815,-3.5356,-3.4824,-3.3227,-3.188,-3.1187,-2.9994,-2.9994,-2.9994,-2.9994,-2.9994,-2.9994,-2.9994,-2.9994,-2.9837,-3.7002,-3.7459,-3.7505,-3.7657,-3.7854,-3.79,-3.79,-3.79,-3.79,-3.79,-3.79,-3.79,-3.79,-3.7854,-3.7854,-3.7808,-3.7808,-3.7598,-3.7459,-3.7459,-3.7459,-3.7413,-3.7366,-3.6968,-3.6769,-3.6675,-3.6487,-3.6405,-3.6465,-3.6405,-3.6417,-3.6417,-3.6417,-3.6417,-3.6417,-3.6417,-3.6417,-3.6417,-3.6417,-3.6417,-3.6417,-3.6417,-3.6417,-3.6417,-3.6417,-3.6417,-3.6417,-3.6417,-3.6417,-3.6417,-3.6417,-3.6417,-3.6417,-3.643,-3.6518,-3.6556,-3.6983,-3.6948,-3.6769,-3.6985,-3.7059,-3.6606,-3.6631,-3.6443,-3.6455,-3.6505,-3.6518,-3.643,-3.6417,-3.6417,-3.6417,-3.6505,-3.6505,-3.648,-3.6468,-3.643,-3.6417,-3.6455,-3.6505,-3.6455,-3.6455,-3.6644,-3.7136,-3.7287,-3.7513,-3.7701,-3.7575,-3.7387,-3.7111,-3.6872,-3.6556,-3.6556,-3.6732,-3.6769,-3.6872,-3.686,-3.6835,-3.7012,-3.6743,-3.5866,-3.5102,-3.4519,-3.3624,-3.2134,-3.1135,-3.0443,-3.0047,-2.9994,-2.9994,-2.9994,-2.9994,-2.9994,-2.9994,-2.9994,-2.9837,-3.6909,-3.7214,-3.7413,-3.7564,-3.7611,-3.7808,-3.79,-3.79,-3.79,-3.7854,-3.79,-3.79,-3.7749,-3.7611,-3.7611,-3.7518,-3.7366,-3.7261,-3.7201,-3.7155,-3.7015,-3.6909,-3.6922,-3.6769,-3.6628,-3.6499,-3.6452,-3.6417,-3.6417,-3.6417,-3.6417,-3.6417,-3.6417,-3.6417,-3.6417,-3.643,-3.6417,-3.6417,-3.6417,-3.6417,-3.6417,-3.6417,-3.6417,-3.6417,-3.6417,-3.6417,-3.6417,-3.6417,-3.6417,-3.6417,-3.6417,-3.6417,-3.6443,-3.6757,-3.6971,-3.7046,-3.745,-3.7739,-3.7626,-3.7701,-3.7525,-3.7098,-3.7274,-3.7211,-3.648,-3.6795,-3.6769,-3.6556,-3.6417,-3.643,-3.6493,-3.6782,-3.6923,-3.691,-3.6744,-3.6493,-3.6518,-3.6769,-3.6883,-3.6543,-3.6807,-3.7036,-3.7174,-3.7249,-3.7287,-3.7387,-3.7299,-3.7036,-3.6795,-3.6631,-3.6417,-3.6417,-3.6505,-3.6468,-3.6468,-3.6468,-3.6558,-3.6791,-3.6245,-3.5187,-3.4286,-3.3388,-3.2134,-3.064,-3.064,-3.0099,-2.9994,-2.9994,-2.9994,-2.9994,-2.9994,-2.9994,-2.9994,-2.9994,-2.9722,-3.6781,-3.7108,-3.7168,-3.7201,-3.7366,-3.7518,-3.7564,-3.7564,-3.7551,-3.7551,-3.7551,-3.7564,-3.7459,-3.7353,-3.7353,-3.7261,-3.7095,-3.6968,-3.6922,-3.6875,-3.6687,-3.6593,-3.6581,-3.6581,-3.6499,-3.6417,-3.6417,-3.6417,-3.6417,-3.6417,-3.6417,-3.6417,-3.6417,-3.6531,-3.6769,-3.6505,-3.6543,-3.6669,-3.6556,-3.6417,-3.6417,-3.6417,-3.6417,-3.6417,-3.6417,-3.6417,-3.6417,-3.6417,-3.6417,-3.6417,-3.6417,-3.6417,-3.6455,-3.692,-3.7186,-3.7224,-3.7914,-3.8278,-3.8103,-3.8216,-3.8103,-3.7701,-3.7864,-3.7525,-3.7021,-3.7071,-3.7008,-3.6505,-3.6606,-3.6732,-3.6845,-3.7199,-3.7475,-3.75,-3.7249,-3.696,-3.6795,-3.7033,-3.7197,-3.7184,-3.7312,-3.7538,-3.7525,-3.7525,-3.7387,-3.7274,-3.7236,-3.6933,-3.6581,-3.648,-3.6443,-3.6493,-3.6443,-3.6417,-3.6556,-3.6606,-3.6495,-3.6674,-3.5696,-3.4586,-3.3269,-3.2229,-3.1238,-3.0245,-3.0099,-2.9994,-2.9994,-2.9994,-2.9994,-2.9994,-2.9994,-2.9994,-2.9994,-2.9889,-2.9617,-3.664,-3.7028,-3.6781,-3.6862,-3.7062,-3.7062,-3.7168,-3.7108,-3.7168,-3.7155,-3.7155,-3.7108,-3.7108,-3.7062,-3.7062,-3.7062,-3.6956,-3.6769,-3.6675,-3.6628,-3.6487,-3.6465,-3.6452,-3.6452,-3.6417,-3.6417,-3.6417,-3.6417,-3.6417,-3.6417,-3.6417,-3.6455,-3.648,-3.6694,-3.6872,-3.6757,-3.687,-3.6998,-3.6872,-3.6795,-3.6744,-3.6681,-3.6606,-3.6581,-3.6443,-3.6417,-3.6417,-3.6417,-3.6417,-3.6417,-3.6417,-3.6417,-3.648,-3.6945,-3.7262,-3.7538,-3.8291,-3.8743,-3.8404,-3.873,-3.8718,-3.8253,-3.8178,-3.7889,-3.7487,-3.7425,-3.7324,-3.6832,-3.7046,-3.7274,-3.7524,-3.7801,-3.7965,-3.8015,-3.8027,-3.7739,-3.7487,-3.7362,-3.7538,-3.7939,-3.8002,-3.8103,-3.8078,-3.7965,-3.7789,-3.7789,-3.7563,-3.7111,-3.6895,-3.6832,-3.6744,-3.6656,-3.6556,-3.6417,-3.6619,-3.6784,-3.6637,-3.6493,-3.517,-3.3869,-3.2196,-3.1193,-3.0548,-2.9994,-2.9994,-2.9994,-2.9994,-2.9994,-2.9994,-2.9994,-2.9994,-2.9994,-2.9994,-2.9774,-2.9554,-3.6452,-3.6546,-3.6628,-3.6722,-3.6815,-3.7015,-3.7108,-3.7108,-3.7108,-3.7074,-3.7108,-3.7108,-3.6956,-3.6803,-3.6769,-3.6722,-3.6593,-3.6499,-3.6452,-3.6439,-3.6452,-3.6417,-3.643,-3.6455,-3.643,-3.6417,-3.6417,-3.6417,-3.6417,-3.6417,-3.6417,-3.6455,-3.6782,-3.6895,-3.6684,-3.7249,-3.7425,-3.7312,-3.7412,-3.7487,-3.74,-3.7123,-3.696,-3.6971,-3.6619,-3.643,-3.6417,-3.6417,-3.6417,-3.6417,-3.6443,-3.648,-3.6631,-3.7287,-3.7751,-3.8065,-3.8843,-3.9421,-3.9358,-3.9333,-3.9283,-3.8806,-3.8956,-3.8906,-3.7977,-3.8228,-3.8153,-3.7801,-3.7789,-3.8015,-3.8379,-3.8165,-3.8316,-3.8517,-3.8354,-3.8216,-3.8417,-3.8467,-3.8329,-3.8241,-3.8454,-3.8693,-3.8642,-3.7939,-3.7902,-3.8191,-3.7965,-3.7462,-3.7236,-3.7098,-3.6897,-3.6757,-3.6568,-3.643,-3.6556,-3.6691,-3.6616,-3.6169,-3.4844,-3.3281,-3.1609,-3.0622,-3.014,-2.9994,-2.9994,-2.9994,-2.9994,-2.9994,-2.9994,-2.9994,-2.9994,-2.9994,-2.9879,-2.9711,-2.9448,-3.6417,-3.6405,-3.6499,-3.6581,-3.6581,-3.6675,-3.6794,-3.6781,-3.6781,-3.6781,-3.6781,-3.6781,-3.6687,-3.6534,-3.6534,-3.6499,-3.6417,-3.6417,-3.6417,-3.6405,-3.643,-3.6556,-3.6782,-3.6757,-3.6646,-3.6493,-3.6417,-3.6417,-3.6417,-3.6443,-3.6417,-3.6455,-3.6935,-3.7199,-3.7073,-3.7525,-3.7575,-3.75,-3.7299,-3.7337,-3.75,-3.7362,-3.7186,-3.7086,-3.6719,-3.6417,-3.6417,-3.6417,-3.6417,-3.648,-3.6656,-3.6807,-3.6908,-3.7525,-3.8065,-3.853,-3.9157,-3.9672,-3.9685,-3.9685,-3.9546,-3.9283,-3.9559,-3.917,-3.8693,-3.8781,-3.8555,-3.8241,-3.8266,-3.8642,-3.9157,-3.9057,-3.9019,-3.9094,-3.8981,-3.8944,-3.9145,-3.9095,-3.8969,-3.8818,-3.9094,-3.9207,-3.8956,-3.8329,-3.8278,-3.868,-3.8555,-3.804,-3.7262,-3.7111,-3.6945,-3.6744,-3.6531,-3.6443,-3.6531,-3.6523,-3.6429,-3.5786,-3.476,-3.3046,-3.1254,-3.0548,-3.0005,-2.9994,-2.9994,-2.9994,-2.9994,-2.9994,-2.9994,-2.9994,-2.9994,-2.9942,-2.9774,-2.9501,-2.9237,-3.6417,-3.6405,-3.6546,-3.6546,-3.6452,-3.6769,-3.6769,-3.6405,-3.6593,-3.6769,-3.6593,-3.6499,-3.6546,-3.6593,-3.6452,-3.6405,-3.6417,-3.643,-3.6443,-3.6619,-3.6619,-3.692,-3.7199,-3.7262,-3.7136,-3.6681,-3.6782,-3.6782,-3.6769,-3.6669,-3.687,-3.682,-3.726,-3.7613,-3.7826,-3.7839,-3.7814,-3.7852,-3.7613,-3.7448,-3.7649,-3.7575,-3.7513,-3.7098,-3.6883,-3.6531,-3.6493,-3.6518,-3.6568,-3.6568,-3.7059,-3.7312,-3.7563,-3.7852,-3.8304,-3.8906,-3.9371,-3.9647,-3.9697,-3.9697,-3.9685,-3.9697,-3.9697,-3.9496,-3.9183,-3.907,-3.8856,-3.8718,-3.8755,-3.9157,-3.9622,-3.9546,-3.9584,-3.9647,-3.9672,-3.9697,-3.9622,-3.927,-3.9283,-3.9484,-3.9496,-3.9509,-3.9421,-3.9044,-3.9082,-3.9057,-3.8894,-3.8605,-3.7852,-3.7274,-3.7161,-3.692,-3.6732,-3.6933,-3.7046,-3.6172,-3.613,-3.5603,-3.46,-3.2845,-3.1179,-3.0537,-3.0056,-3.0005,-2.9994,-2.9994,-2.9994,-2.9994,-2.9994,-2.9994,-2.9994,-2.9931,-2.9669,-2.9343,-2.9036,-3.6417,-3.6452,-3.7209,-3.7129,-3.6722,-3.8043,-3.7782,-3.6675,-3.7302,-3.7592,-3.75,-3.6815,-3.6989,-3.7222,-3.6675,-3.6452,-3.6675,-3.6704,-3.6764,-3.7018,-3.7071,-3.7349,-3.7789,-3.7864,-3.7801,-3.7776,-3.7726,-3.7726,-3.7626,-3.7726,-3.7538,-3.7776,-3.8216,-3.8417,-3.8366,-3.868,-3.8592,-3.8266,-3.8379,-3.8542,-3.8442,-3.8379,-3.8065,-3.7437,-3.7209,-3.6847,-3.6644,-3.687,-3.7048,-3.7111,-3.7575,-3.8052,-3.8379,-3.8642,-3.8793,-3.8994,-3.9408,-3.9697,-3.9697,-3.9697,-3.9697,-3.9697,-3.9697,-3.9697,-3.9546,-3.9521,-3.9358,-3.9383,-3.9371,-3.9584,-3.9672,-3.9697,-3.9697,-3.9697,-3.9697,-3.9697,-3.9672,-3.9597,-3.9509,-3.9672,-3.9697,-3.9685,-3.9546,-3.9396,-3.9258,-3.9132,-3.8994,-3.9019,-3.8755,-3.814,-3.7713,-3.7349,-3.6996,-3.7287,-3.7638,-3.6419,-3.569,-3.5305,-3.4364,-3.2767,-3.1337,-3.0568,-3.0118,-3.0046,-3.0005,-2.9994,-2.9994,-2.9994,-2.9994,-2.9994,-2.9942,-2.9879,-2.9564,-2.9185,-2.8983,-3.6675,-3.7188,-3.7625,-3.7841,-3.8011,-3.8765,-3.872,-3.8011,-3.8315,-3.8509,-3.8419,-3.8056,-3.8056,-3.8328,-3.8102,-3.7828,-3.7756,-3.7616,-3.7706,-3.7894,-3.7766,-3.7914,-3.8404,-3.8454,-3.8668,-3.8806,-3.8868,-3.8504,-3.8065,-3.7977,-3.8052,-3.8115,-3.858,-3.8718,-3.8592,-3.8894,-3.8969,-3.8617,-3.873,-3.8919,-3.8881,-3.8932,-3.8492,-3.8178,-3.7713,-3.7324,-3.701,-3.7324,-3.745,-3.7349,-3.7701,-3.8266,-3.8693,-3.8969,-3.9045,-3.927,-3.9521,-3.9685,-3.9697,-3.9697,-3.9697,-3.9697,-3.9685,-3.9697,-3.9697,-3.9672,-3.9697,-3.9697,-3.9697,-3.9697,-3.9697,-3.9697,-3.9697,-3.9697,-3.9697,-3.9697,-3.9697,-3.9697,-3.9697,-3.9697,-3.9697,-3.9685,-3.9659,-3.9496,-3.9333,-3.9207,-3.9094,-3.9195,-3.9358,-3.8793,-3.809,-3.7425,-3.6985,-3.6992,-3.7133,-3.6219,-3.5443,-3.5051,-3.3941,-3.2416,-3.1506,-3.0713,-3.0232,-3.0046,-3.0015,-2.9994,-2.9994,-2.9994,-2.9994,-2.9942,-2.9827,-2.9669,-2.9396,-2.9079,-2.8877,-3.7209,-3.8115,-3.8283,-3.8675,-3.9224,-3.9802,-3.9659,-3.9326,-3.9537,-3.9642,-3.9461,-3.9254,-3.9254,-3.9414,-3.939,-3.9324,-3.9365,-3.8939,-3.8859,-3.8847,-3.8432,-3.8492,-3.8894,-3.9133,-3.9207,-3.9446,-3.9534,-3.9233,-3.8642,-3.8492,-3.8404,-3.858,-3.8906,-3.9044,-3.9094,-3.9221,-3.9019,-3.8768,-3.863,-3.863,-3.8919,-3.9082,-3.9007,-3.8919,-3.8417,-3.7914,-3.7462,-3.7889,-3.7977,-3.7902,-3.8128,-3.8605,-3.8956,-3.9044,-3.9245,-3.9584,-3.9597,-3.9546,-3.9484,-3.9295,-3.9245,-3.9396,-3.9496,-3.9572,-3.9697,-3.9697,-3.9697,-3.9697,-3.9697,-3.9697,-3.9697,-3.9697,-3.9697,-3.9697,-3.9697,-3.9697,-3.9697,-3.9697,-3.9697,-3.9697,-3.9697,-3.9685,-3.9659,-3.9396,-3.9195,-3.9333,-3.9233,-3.9233,-3.9308,-3.8843,-3.8165,-3.7387,-3.6877,-3.6649,-3.6383,-3.5699,-3.5238,-3.5085,-3.356,-3.1783,-3.127,-3.0855,-3.045,-3.0036,-3.0015,-2.9994,-2.9994,-2.9994,-2.9942,-2.9879,-2.9722,-2.9459,-2.9142,-2.893,-2.8727,-3.8192,-3.9121,-3.9927,-3.9842,-3.9686,-4.1581,-4.121,-3.9612,-4.0771,-4.0979,-4.0543,-3.9722,-3.9881,-4.0382,-4.034,-4.0191,-4.011,-3.9974,-3.9947,-4.0022,-3.9341,-3.9171,-3.9496,-3.9597,-3.9546,-3.9697,-3.9697,-3.9659,-3.9346,-3.932,-3.9408,-3.9421,-3.9396,-3.9572,-3.9484,-3.9471,-3.9346,-3.9082,-3.9245,-3.9471,-3.9534,-3.9534,-3.9308,-3.907,-3.8793,-3.8492,-3.8078,-3.8429,-3.8642,-3.8668,-3.9107,-3.9459,-3.9584,-3.9609,-3.9609,-3.9534,-3.9295,-3.902,-3.9007,-3.8768,-3.8743,-3.9069,-3.9082,-3.9258,-3.9546,-3.9697,-3.9697,-3.9697,-3.9697,-3.9697,-3.9697,-3.9697,-3.9697,-3.9697,-3.9697,-3.9697,-3.9697,-3.9697,-3.9697,-3.9697,-3.9697,-3.9697,-3.9685,-3.9346,-3.9069,-3.9258,-3.9396,-3.9332,-3.9041,-3.8425,-3.8341,-3.7575,-3.6799,-3.6468,-3.5865,-3.518,-3.468,-3.4773,-3.3258,-3.147,-3.1214,-3.0884,-3.0356,-3.0046,-3.0015,-2.9942,-2.9889,-2.9889,-2.9827,-2.9722,-2.9511,-2.9195,-2.8834,-2.8684,-2.8568,-4.0725,-4.1082,-4.1481,-4.1802,-4.2034,-4.3128,-4.2998,-4.2164,-4.2209,-4.2467,-4.2353,-4.1724,-4.1781,-4.2281,-4.2389,-4.2386,-4.2247,-4.1847,-4.1457,-4.109,-4.0499,-3.9982,-3.9712,-3.9697,-3.9697,-3.9697,-3.9697,-3.9697,-3.9697,-3.9697,-3.9697,-3.9697,-3.9697,-3.9672,-3.9697,-3.9697,-3.9572,-3.9459,-3.9559,-3.9685,-3.9697,-3.9672,-3.9572,-3.9333,-3.9333,-3.9007,-3.8768,-3.9019,-3.9132,-3.9032,-3.9157,-3.9383,-3.9509,-3.9446,-3.932,-3.9634,-3.9182,-3.9057,-3.9233,-3.8768,-3.8793,-3.9032,-3.9107,-3.9145,-3.9546,-3.9697,-3.9697,-3.9697,-3.9697,-3.9697,-3.9697,-3.9697,-3.9697,-3.9697,-3.9697,-3.9697,-3.9697,-3.9697,-3.9697,-3.9697,-3.9697,-3.9697,-3.9697,-3.9534,-3.9128,-3.8894,-3.8889,-3.8721,-3.8237,-3.7505,-3.7598,-3.7839,-3.6973,-3.6263,-3.554,-3.4781,-3.394,-3.369,-3.3089,-3.1636,-3.1324,-3.0915,-3.0356,-2.9993,-2.9837,-2.9827,-2.9774,-2.9722,-2.9669,-2.9511,-2.9363,-2.8993,-2.8674,-2.8514,-2.8408,-4.3355,-4.334,-4.3028,-4.3312,-4.4008,-4.4139,-4.4095,-4.3906,-4.3428,-4.3427,-4.3515,-4.3153,-4.3298,-4.3935,-4.4008,-4.3979,-4.4124,-4.3825,-4.2999,-4.2215,-4.1376,-4.0591,-3.9981,-3.9697,-3.9697,-3.9697,-3.9697,-3.9697,-3.9697,-3.9697,-3.9697,-3.9697,-3.9697,-3.9697,-3.9697,-3.9697,-3.9647,-3.9647,-3.9659,-3.9697,-3.9697,-3.9697,-3.9697,-3.9672,-3.9647,-3.9496,-3.922,-3.9408,-3.9408,-3.9233,-3.9157,-3.9396,-3.9584,-3.9433,-3.9383,-3.9572,-3.9308,-3.9295,-3.9233,-3.8931,-3.8881,-3.9019,-3.9371,-3.932,-3.9584,-3.9697,-3.9697,-3.9697,-3.9697,-3.9697,-3.9697,-3.9697,-3.9697,-3.9697,-3.9697,-3.9697,-3.9697,-3.9697,-3.9697,-3.9697,-3.9697,-3.9697,-3.9697,-3.9697,-3.9337,-3.8687,-3.8384,-3.8096,-3.7522,-3.6785,-3.672,-3.7012,-3.6326,-3.5588,-3.5103,-3.4339,-3.3461,-3.2812,-3.2211,-3.1795,-3.1381,-3.0853,-3.0231,-2.993,-2.9732,-2.9554,-2.9511,-2.9501,-2.9448,-2.9195,-2.8993,-2.8781,-2.8568,-2.8398,-2.8291,-4.566,-4.5558,-4.4385,-4.3965,-4.4095,-4.4603,-4.4516,-4.4182,-4.3993,-4.3631,-4.3369,-4.3123,-4.3529,-4.4066,-4.4632,-4.4835,-4.482,-4.4436,-4.3681,-4.2739,-4.169,-4.0844,-4.0173,-3.9839,-3.9697,-3.9697,-3.9697,-3.9697,-3.9697,-3.9697,-3.9697,-3.9697,-3.9697,-3.9697,-3.9697,-3.9697,-3.9697,-3.9697,-3.9697,-3.9697,-3.9697,-3.9697,-3.9697,-3.9749,-3.9697,-3.9672,-3.9686,-3.9853,-3.9879,-3.9778,-3.9651,-3.9548,-3.9648,-3.9572,-3.9609,-3.9597,-3.9597,-3.9534,-3.9333,-3.8567,-3.7889,-3.8278,-3.8944,-3.9546,-3.9672,-3.9697,-3.9697,-3.9697,-3.9697,-3.9697,-3.9697,-3.9697,-3.9697,-3.9697,-3.9697,-3.9697,-3.9697,-3.9697,-3.9697,-3.9697,-3.9697,-3.9697,-3.9426,-3.9362,-3.9154,-3.8542,-3.7352,-3.7019,-3.6913,-3.6305,-3.5883,-3.5724,-3.519,-3.4749,-3.4587,-3.3874,-3.3185,-3.2611,-3.2072,-3.1719,-3.135,-3.0791,-3.0097,-2.9867,-2.9659,-2.9448,-2.9185,-2.9132,-2.9036,-2.8834,-2.8684,-2.8568,-2.8461,-2.8354,-2.8291,-4.588,-4.5837,-4.5358,-4.5155,-4.5169,-4.5416,-4.5358,-4.5097,-4.4719,-4.4414,-4.4124,-4.4197,-4.4516,-4.5068,-4.5329,-4.5503,-4.5487,-4.5391,-4.4606,-4.3701,-4.2668,-4.1617,-4.0794,-4.0032,-3.9697,-3.9697,-3.9697,-3.9697,-3.9697,-3.9697,-3.9697,-3.9697,-3.9697,-3.9697,-3.9697,-3.9697,-3.9697,-3.9697,-3.9697,-3.9697,-3.9697,-3.9697,-3.9697,-3.9697,-4.0465,-4.0554,-4.0679,-4.089,-4.0809,-4.0626,-4.0283,-3.9994,-3.9801,-3.9788,-3.9697,-3.9697,-3.9697,-3.9559,-3.9295,-3.8592,-3.8379,-3.8555,-3.9233,-3.9697,-3.9697,-3.9697,-3.9697,-3.9697,-3.9697,-3.9697,-3.9697,-3.9697,-3.9697,-3.9697,-3.9697,-3.9697,-3.9697,-3.9697,-3.9697,-3.9697,-3.9697,-3.9697,-3.9362,-3.8973,-3.8712,-3.8332,-3.7019,-3.5979,-3.5834,-3.5668,-3.5172,-3.4919,-3.4488,-3.4335,-3.4139,-3.3561,-3.287,-3.244,-3.1981,-3.1628,-3.1267,-3.0563,-2.9993,-2.9784,-2.9501,-2.9237,-2.8973,-2.8761,-2.8664,-2.8621,-2.8514,-2.8408,-2.8354,-2.8291,-2.8301,-4.588,-4.588,-4.588,-4.588,-4.588,-4.588,-4.588,-4.5764,-4.514,-4.4879,-4.4879,-4.4908,-4.5256,-4.5735,-4.5866,-4.5851,-4.5822,-4.573,-4.5141,-4.4219,-4.3163,-4.2244,-4.1182,-4.0313,-3.9697,-3.9697,-3.9697,-3.9697,-3.9697,-3.9697,-3.9697,-3.9697,-3.9697,-3.9697,-3.9697,-3.9697,-3.9697,-3.9697,-3.9697,-3.9929,-4.007,-4.0173,-4.0516,-4.0719,-4.1432,-4.1617,-4.1749,-4.1879,-4.1887,-4.1491,-4.1034,-4.0484,-4.0172,-3.9878,-3.9749,-3.9697,-3.9647,-3.9484,-3.9207,-3.8982,-3.8881,-3.8932,-3.9333,-3.9634,-3.9697,-3.9697,-3.9697,-3.9697,-3.9697,-3.9697,-3.9697,-3.9697,-3.9697,-3.9697,-3.9697,-3.9697,-3.9697,-3.9697,-3.9697,-3.9697,-3.9697,-3.9697,-3.9258,-3.8699,-3.7566,-3.7138,-3.6045,-3.5013,-3.4603,-3.4459,-3.4236,-3.4081,-3.4038,-3.3914,-3.3832,-3.3275,-3.2755,-3.2542,-3.2107,-3.1615,-3.1133,-3.045,-2.9815,-2.9511,-2.9237,-2.8973,-2.8761,-2.8548,-2.8504,-2.8568,-2.8461,-2.8354,-2.8301,-2.8301,-2.8301,-4.588,-4.588,-4.588,-4.588,-4.588,-4.588,-4.588,-4.5793,-4.5228,-4.4922,-4.4966,-4.4951,-4.5256,-4.5764,-4.588,-4.588,-4.588,-4.588,-4.5429,-4.4466,-4.3321,-4.2244,-4.1282,-4.0415,-3.9697,-3.9697,-3.9697,-3.9697,-3.9697,-3.9697,-3.9697,-3.9788,-3.9839,-3.9839,-3.9749,-3.9697,-3.9697,-3.9697,-3.9697,-4.016,-4.0781,-4.0932,-4.1382,-4.211,-4.2585,-4.273,-4.2772,-4.2917,-4.2903,-4.267,-4.1897,-4.1406,-4.1193,-4.0313,-3.9981,-3.9878,-3.9736,-3.9672,-3.9622,-3.917,-3.9057,-3.9082,-3.9496,-3.9672,-3.9697,-3.9697,-3.9697,-3.9697,-3.9697,-3.9697,-3.9697,-3.9697,-3.9697,-3.9697,-3.9697,-3.9697,-3.9697,-3.9697,-3.9697,-3.9697,-3.9697,-3.9645,-3.9193,-3.8437,-3.6762,-3.5729,-3.4847,-3.4246,-3.3864,-3.3547,-3.3434,-3.3434,-3.3491,-3.3388,-3.3275,-3.3001,-3.2623,-3.2489,-3.2147,-3.1619,-3.0983,-3.0288,-2.9758,-2.9298,-2.9036,-2.8824,-2.8611,-2.8344,-2.8408,-2.8408,-2.8354,-2.8301,-2.8291,-2.8301,-2.8301,-4.588,-4.588,-4.588,-4.588,-4.588,-4.588,-4.588,-4.5764,-4.5242,-4.5126,-4.5387,-4.5126,-4.5256,-4.5706,-4.588,-4.588,-4.588,-4.588,-4.5489,-4.5201,-4.3715,-4.284,-4.1864,-4.0706,-3.9788,-3.9685,-3.9697,-3.9697,-3.9697,-3.9788,-3.9749,-3.98,-4.0415,-4.0275,-3.989,-3.9697,-3.9697,-3.9697,-3.9788,-4.016,-4.1082,-4.1306,-4.1802,-4.2889,-4.3497,-4.3796,-4.3815,-4.3953,-4.4017,-4.3779,-4.2944,-4.2514,-4.2163,-4.1282,-4.0743,-4.0503,-4.0275,-3.9697,-3.9685,-3.9484,-3.9446,-3.9484,-3.9534,-3.9697,-3.9697,-3.9697,-3.9697,-3.9697,-3.9697,-3.9697,-3.9697,-3.9697,-3.9697,-3.9697,-3.9697,-3.9697,-3.9697,-3.9697,-3.9697,-3.9697,-3.9697,-3.9193,-3.8752,-3.7938,-3.6426,-3.5344,-3.458,-3.4312,-3.4043,-3.3275,-3.2944,-3.2887,-3.2887,-3.2841,-3.2669,-3.2669,-3.2669,-3.2566,-3.207,-3.145,-3.0815,-3.0273,-2.969,-2.9252,-2.898,-2.8674,-2.8514,-2.8344,-2.8291,-2.8291,-2.8301,-2.8301,-2.8301,-2.8301,-2.8301,-4.588,-4.588,-4.588,-4.588,-4.588,-4.588,-4.588,-4.5808,-4.543,-4.5488,-4.5706,-4.5401,-4.5445,-4.5793,-4.588,-4.588,-4.588,-4.588,-4.588,-4.5654,-4.4186,-4.3511,-4.2682,-4.1332,-4.0503,-4.016,-3.9878,-3.9775,-4.0313,-4.0275,-4.0567,-4.1045,-4.1382,-4.1432,-4.1058,-4.0958,-4.0958,-4.1008,-4.1145,-4.1482,-4.2195,-4.2571,-4.2923,-4.3843,-4.4513,-4.4851,-4.4921,-4.4991,-4.5104,-4.4701,-4.4198,-4.3645,-4.3102,-4.2439,-4.1851,-4.1482,-4.0844,-4.0364,-4.0262,-3.9775,-3.9661,-3.9659,-3.9697,-3.9697,-3.9697,-3.9697,-3.9697,-3.9697,-3.9697,-3.9697,-3.9697,-3.9697,-3.9697,-3.9697,-3.9697,-3.9697,-3.9697,-3.9697,-3.9697,-3.9697,-3.953,-3.8973,-3.8372,-3.718,-3.6088,-3.5223,-3.4413,-3.4201,-3.3987,-3.3275,-3.2669,-3.2669,-3.2669,-3.2669,-3.2669,-3.2669,-3.2669,-3.2669,-3.2142,-3.1457,-3.098,-3.0499,-2.9877,-2.9216,-2.8817,-2.8554,-2.8524,-2.8408,-2.8354,-2.8301,-2.8301,-2.8301,-2.8301,-2.8301,-2.8301,-4.588,-4.588,-4.588,-4.588,-4.588,-4.588,-4.588,-4.588,-4.5866,-4.5851,-4.5866,-4.5837,-4.5837,-4.5851,-4.588,-4.588,-4.588,-4.588,-4.588,-4.558,-4.4559,-4.4266,-4.3545,-4.223,-4.1468,-4.0932,-4.0706,-4.0807,-4.1232,-4.1282,-4.1766,-4.2404,-4.2633,-4.2633,-4.2647,-4.2792,-4.2633,-4.2355,-4.2208,-4.273,-4.3388,-4.3876,-4.4373,-4.5049,-4.5535,-4.5625,-4.5642,-4.5689,-4.5734,-4.5461,-4.49,-4.4531,-4.4031,-4.3402,-4.3033,-4.2501,-4.1654,-4.1182,-4.0882,-4.0211,-3.9788,-3.9697,-3.9697,-3.9697,-3.9697,-3.9697,-3.9697,-3.9697,-3.9697,-3.9697,-3.9697,-3.9697,-3.9697,-3.9697,-3.9697,-3.9697,-3.9697,-3.9697,-3.9697,-3.9645,-3.9426,-3.9037,-3.8554,-3.7512,-3.5608,-3.5002,-3.4201,-3.3434,-3.3218,-3.3161,-3.2669,-3.2669,-3.2669,-3.2669,-3.2669,-3.2669,-3.2669,-3.2669,-3.2308,-3.1715,-3.1211,-3.063,-2.9842,-2.9192,-2.8672,-2.8413,-2.8427,-2.8354,-2.8301,-2.8301,-2.8301,-2.8301,-2.8301,-2.8301,-2.8237,-4.588,-4.588,-4.588,-4.588,-4.588,-4.588,-4.588,-4.588,-4.588,-4.588,-4.588,-4.588,-4.588,-4.588,-4.588,-4.588,-4.588,-4.588,-4.588,-4.5535,-4.4943,-4.4513,-4.3876,-4.3067,-4.2488,-4.2257,-4.2061,-4.1878,-4.2257,-4.2341,-4.2439,-4.2744,-4.3606,-4.3796,-4.4125,-4.4559,-4.389,-4.3321,-4.3129,-4.3654,-4.4172,-4.4466,-4.5095,-4.564,-4.588,-4.588,-4.588,-4.588,-4.588,-4.573,-4.558,-4.5444,-4.5353,-4.4466,-4.3687,-4.2744,-4.1864,-4.1169,-4.1019,-4.0262,-3.9697,-3.9697,-3.9697,-3.9697,-3.9697,-3.9697,-3.9697,-3.9697,-3.9697,-3.9697,-3.9697,-3.9697,-3.9697,-3.9697,-3.9697,-3.9697,-3.9697,-3.9697,-3.9697,-3.9581,-3.9362,-3.8712,-3.8332,-3.6654,-3.4958,-3.458,-3.3976,-3.3161,-3.2669,-3.2669,-3.2669,-3.2669,-3.2669,-3.2669,-3.2669,-3.2669,-3.2669,-3.2607,-3.2308,-3.1881,-3.132,-3.061,-2.9784,-2.9144,-2.8711,-2.8437,-2.8301,-2.8301,-2.8301,-2.8301,-2.8301,-2.8301,-2.8301,-2.8301,-2.813,-4.604,-4.6243,-4.6258,-4.6258,-4.6214,-4.5982,-4.588,-4.588,-4.588,-4.588,-4.588,-4.588,-4.588,-4.588,-4.588,-4.588,-4.588,-4.588,-4.588,-4.573,-4.5201,-4.5095,-4.4606,-4.3937,-4.3497,-4.3307,-4.3129,-4.284,-4.3321,-4.3904,-4.4092,-4.42,-4.4759,-4.4851,-4.5095,-4.5353,-4.511,-4.4527,-4.42,-4.442,-4.4666,-4.4897,-4.5398,-4.573,-4.588,-4.588,-4.588,-4.588,-4.588,-4.588,-4.588,-4.588,-4.5835,-4.5201,-4.4851,-4.3951,-4.273,-4.2146,-4.1716,-4.0465,-3.9942,-3.9697,-3.9697,-3.9697,-3.9697,-3.9697,-3.9697,-3.9697,-3.9697,-3.9697,-3.9697,-3.9697,-3.9697,-3.9697,-3.9697,-3.9697,-3.9697,-3.9697,-3.9645,-3.9478,-3.8985,-3.8267,-3.7126,-3.5454,-3.4424,-3.4256,-3.3818,-3.3058,-3.2669,-3.2669,-3.2669,-3.2669,-3.2669,-3.2669,-3.2669,-3.2669,-3.2669,-3.2659,-3.2545,-3.2071,-3.1404,-3.078,-3.0077,-2.9431,-2.873,-2.8564,-2.8408,-2.832,-2.8301,-2.8301,-2.8301,-2.8301,-2.8301,-2.8301,-2.8014,-4.6214,-4.6708,-4.6763,-4.6778,-4.6763,-4.6272,-4.5996,-4.5953,-4.5924,-4.588,-4.588,-4.588,-4.588,-4.588,-4.588,-4.588,-4.588,-4.588,-4.588,-4.588,-4.573,-4.564,-4.5398,-4.4957,-4.4513,-4.4125,-4.389,-4.3951,-4.4559,-4.5003,-4.5353,-4.5895,-4.579,-4.5685,-4.5685,-4.579,-4.564,-4.5444,-4.5353,-4.5489,-4.564,-4.5835,-4.588,-4.588,-4.588,-4.588,-4.588,-4.588,-4.588,-4.588,-4.588,-4.588,-4.5835,-4.579,-4.5685,-4.4911,-4.3464,-4.2585,-4.1815,-4.0605,-3.9942,-3.9697,-3.9697,-3.9697,-3.9697,-3.9697,-3.9697,-3.9697,-3.9697,-3.9697,-3.9697,-3.9697,-3.9697,-3.9697,-3.9697,-3.9697,-3.9697,-3.9697,-3.9645,-3.9426,-3.8776,-3.8003,-3.7019,-3.5443,-3.4145,-3.4043,-3.3604,-3.2841,-3.2669,-3.2669,-3.2669,-3.2669,-3.2669,-3.2669,-3.2669,-3.2669,-3.2669,-3.2649,-3.2618,-3.2301,-3.165,-3.1071,-3.0456,-2.9701,-2.8945,-2.8711,-2.8545,-2.8428,-2.833,-2.8301,-2.8301,-2.8301,-2.8291,-2.8184,-2.7682,-4.5967,-4.6156,-4.6635,-4.7085,-4.7433,-4.6882,-4.6592,-4.6563,-4.6084,-4.5895,-4.588,-4.588,-4.588,-4.588,-4.588,-4.588,-4.588,-4.588,-4.588,-4.588,-4.588,-4.588,-4.588,-4.5535,-4.5398,-4.5444,-4.5293,-4.5064,-4.5384,-4.573,-4.588,-4.588,-4.588,-4.588,-4.588,-4.588,-4.588,-4.588,-4.588,-4.588,-4.588,-4.588,-4.588,-4.588,-4.588,-4.588,-4.588,-4.588,-4.588,-4.588,-4.588,-4.588,-4.588,-4.588,-4.5489,-4.4652,-4.3606,-4.2633,-4.1716,-4.0655,-3.989,-3.9697,-3.9697,-3.9697,-3.9697,-3.9697,-3.9697,-3.9697,-3.9697,-3.9697,-3.9697,-3.9697,-3.9697,-3.9697,-3.9697,-3.9697,-3.9697,-3.9697,-3.9697,-3.9102,-3.8449,-3.7566,-3.6576,-3.5498,-3.4302,-3.3547,-3.3115,-3.2737,-3.2669,-3.2669,-3.2669,-3.2669,-3.2669,-3.2669,-3.2669,-3.2669,-3.2669,-3.2612,-3.2534,-3.219,-3.1855,-3.1169,-3.0421,-2.9787,-2.918,-2.8984,-2.875,-2.8476,-2.8389,-2.833,-2.8301,-2.8301,-2.8014,-2.7853,-2.7241,-4.6055,-4.6359,-4.6998,-4.7622,-4.8014,-4.7521,-4.71,-4.678,-4.6446,-4.6142,-4.5909,-4.588,-4.588,-4.588,-4.588,-4.588,-4.588,-4.588,-4.588,-4.588,-4.588,-4.588,-4.588,-4.588,-4.5835,-4.588,-4.588,-4.5835,-4.588,-4.588,-4.588,-4.588,-4.588,-4.588,-4.588,-4.588,-4.588,-4.588,-4.588,-4.588,-4.588,-4.588,-4.588,-4.588,-4.588,-4.588,-4.588,-4.588,-4.588,-4.588,-4.588,-4.588,-4.588,-4.588,-4.5625,-4.4865,-4.381,-4.2536,-4.1667,-4.0655,-3.98,-3.9697,-3.9697,-3.9697,-3.9697,-3.9697,-3.9697,-3.9697,-3.9697,-3.9697,-3.9697,-3.9697,-3.9697,-3.9697,-3.9697,-3.9697,-3.9697,-3.9697,-3.9258,-3.8489,-3.7672,-3.6534,-3.5542,-3.4357,-3.3378,-3.3161,-3.2727,-3.2737,-3.2669,-3.2669,-3.2669,-3.2669,-3.2669,-3.2669,-3.2669,-3.2669,-3.2612,-3.2555,-3.2373,-3.2028,-3.1604,-3.1021,-3.0371,-2.9951,-2.959,-2.9336,-2.9072,-2.8721,-2.8437,-2.834,-2.831,-2.8301,-2.796,-2.7574,-2.6844,-4.6301,-4.6998,-4.7535,-4.8203,-4.8696,-4.8174,-4.7622,-4.7143,-4.685,-4.6519,-4.6069,-4.5953,-4.5895,-4.588,-4.588,-4.588,-4.588,-4.588,-4.588,-4.588,-4.588,-4.588,-4.588,-4.588,-4.588,-4.588,-4.588,-4.588,-4.588,-4.588,-4.588,-4.588,-4.588,-4.588,-4.588,-4.588,-4.588,-4.588,-4.588,-4.588,-4.588,-4.588,-4.588,-4.588,-4.588,-4.588,-4.588,-4.588,-4.588,-4.588,-4.588,-4.588,-4.588,-4.588,-4.564,-4.4972,-4.3701,-4.2778,-4.2012,-4.0655,-4.0032,-3.9697,-3.9697,-3.9697,-3.9697,-3.9697,-3.9697,-3.9697,-3.9697,-3.9697,-3.9697,-3.9697,-3.9697,-3.9645,-3.9645,-3.9478,-3.9426,-3.9362,-3.8659,-3.7832,-3.6846,-3.5706,-3.4625,-3.3491,-3.3058,-3.2841,-3.2669,-3.2669,-3.2669,-3.2669,-3.2669,-3.2669,-3.2669,-3.2669,-3.2612,-3.2612,-3.2545,-3.2258,-3.2018,-3.173,-3.1421,-3.0984,-3.0615,-3.042,-3.0078,-2.9697,-2.9316,-2.8955,-2.8691,-2.8359,-2.831,-2.8237,-2.8077,-2.7574,-2.6617,-4.6563,-4.7608,-4.7753,-4.842,-4.9277,-4.8812,-4.8416,-4.8141,-4.7198,-4.6691,-4.6519,-4.6084,-4.588,-4.588,-4.588,-4.588,-4.588,-4.588,-4.588,-4.588,-4.588,-4.588,-4.588,-4.588,-4.588,-4.588,-4.588,-4.588,-4.588,-4.588,-4.588,-4.588,-4.588,-4.588,-4.588,-4.588,-4.588,-4.588,-4.588,-4.588,-4.588,-4.588,-4.588,-4.588,-4.588,-4.588,-4.588,-4.588,-4.588,-4.588,-4.588,-4.588,-4.588,-4.5835,-4.5595,-4.4957,-4.3654,-4.2682,-4.1716,-4.0503,-3.9878,-3.9697,-3.9697,-3.9697,-3.9697,-3.9697,-3.9697,-3.9697,-3.9697,-3.9697,-3.9697,-3.9697,-3.9697,-3.953,-3.9478,-3.8816,-3.8489,-3.8214,-3.7725,-3.7019,-3.6251,-3.5333,-3.448,-3.366,-3.3388,-3.3115,-3.2669,-3.2669,-3.2669,-3.2669,-3.2669,-3.2669,-3.2669,-3.2555,-3.243,-3.243,-3.2315,-3.2018,-3.1672,-3.1392,-3.117,-3.1064,-3.0762,-3.0605,-3.0312,-2.9941,-2.956,-2.9111,-2.8721,-2.8418,-2.833,-2.8237,-2.8023,-2.7403,-2.6345]}]]